[[{"header":{"parameterUnit":"m.s-1","parameterCategory":1,"la1":31.0,"la2":29.5877,"lo1":-88.7671,"lo2":-86.6584,"dx":0.0162,"dy":0.0185,"nx":115,"ny":88,"refTime":"2023-01-28T06:00:00:Z","depth":0,"parameterNumber":2,"parameterNumberName":"U-component_of_WINDS"},"data":[0.0,0.0,0.0,0.0,0.0,0.0,0.0,0.0,0.0,0.0,0.0,0.0,0.0,0.0,0.0,0.0,0.0,0.0,0.0,0.0,0.0,0.0,0.0,0.0,0.0,0.0,0.0,0.0,0.0,0.0,0.0,0.0,0.0,0.0,0.0,0.0,0.0,0.0,0.0,0.0,0.0,0.0,0.0,0.0,0.0,0.0,0.0,0.0,0.0,0.0,0.0,0.0,0.0,0.0,0.0,0.0,0.0,0.0,0.0,0.0,0.0,0.0,0.0,0.0,0.0,0.0,0.0,0.0,0.0,0.0,0.0,0.0,0.0,0.0,0.0,0.0,0.0,0.0,0.0,0.0,0.0,0.0,0.0,0.0,0.0,0.0,0.0,0.0,0.0,0.0,0.0,0.0,0.0,0.0,0.0,0.0,0.0,0.0,0.0,0.0,0.0,0.0,0.0,0.0,0.0,0.0,0.0,0.0,0.0,0.0,0.0,0.0,0.0,0.0,0.0,0.0,0.0,0.0,0.0,0.0,0.0,0.0,0.0,0.0,0.0,0.0,0.0,0.0,0.0,0.0,0.0,0.0,0.0,0.0,0.0,0.0,0.0,0.0,0.0,0.0,0.0,0.0,0.0,0.0,0.0,0.0,0.0,0.0,0.0,0.0,0.0,0.0,0.0,0.0,0.0,0.0,0.0,0.0,0.0,0.0,0.0,0.0,0.0,0.0,0.0,0.0,0.0,0.0,0.0,0.0,0.0,0.0,0.0,0.0,0.0,0.0,0.0,0.0,0.0,0.0,0.0,0.0,0.0,0.0,0.0,0.0,0.0,0.0,0.0,0.0,0.0,0.0,0.0,0.0,0.0,0.0,0.0,0.0,0.0,0.0,0.0,0.0,0.0,0.0,0.0,0.0,0.0,0.0,0.0,0.0,0.0,0.0,0.0,0.0,0.0,0.0,0.0,0.0,0.0,0.0,0.0,0.0,0.0,0.0,0.0,0.0,0.0,0.0,0.0,0.0,0.0,0.0,0.0,0.0,0.0,0.0,0.0,0.0,0.0,0.0,0.0,0.0,0.0,0.0,0.0,0.0,0.0,0.0,0.0,0.0,0.0,0.0,0.0,0.0,0.0,0.0,0.0,0.0,0.0,0.0,0.0,0.0,0.0,0.0,0.0,0.0,0.0,0.0,0.0,0.0,0.0,0.0,0.0,0.0,0.0,0.0,0.0,0.0,0.0,0.0,0.0,0.0,0.0,0.0,0.0,0.0,0.0,0.0,0.0,0.0,0.0,0.0,0.0,0.0,0.0,0.0,0.0,0.0,0.0,0.0,0.0,0.0,0.0,0.0,0.0,0.0,0.0,0.0,0.0,0.0,0.0,0.0,0.0,0.0,0.0,0.0,0.0,0.0,0.0,0.0,0.0,0.0,0.0,0.0,0.0,0.0,0.0,0.0,0.0,0.0,0.0,0.0,0.0,0.0,0.0,0.0,0.0,0.0,0.0,0.0,0.0,0.0,0.0,0.0,0.0,0.0,0.0,0.0,0.0,0.0,0.0,0.0,0.0,0.0,0.0,0.0,0.0,0.0,0.0,0.0,0.0,0.0,0.0,0.0,0.0,0.0,0.0,0.0,0.0,0.0,0.0,0.0,0.0,0.0,0.0,0.0,0.0,0.0,0.0,0.0,0.0,0.0,0.0,0.0,0.0,0.0,0.0,0.0,0.0,0.0,0.0,0.0,0.0,0.0,0.0,0.0,0.0,0.0,0.0,0.0,0.0,0.0,0.0,0.0,0.0,0.0,0.0,0.0,0.0,0.0,0.0,0.0,0.0,0.0,0.0,0.0,0.0,0.0,0.0,0.0,0.0,0.0,0.0,0.0,0.0,0.0,0.0,0.0,0.0,0.0,0.0,0.0,0.0,0.0,0.0,0.0,0.0,0.0,0.0,0.0,0.0,0.0,0.0,0.0,0.0,0.0,0.0,0.0,0.0,0.0,0.0,0.0,0.0,0.0,0.0,0.0,0.0,0.0,0.0,0.0,0.0,0.0,0.0,0.0,0.0,0.0,0.0,0.0,0.0,0.0,0.0,0.0,0.0,0.0,0.0,0.0,0.0,0.0,0.0,0.0,0.0,0.0,0.0,0.0,0.0,0.0,0.0,0.0,0.0,0.0,0.0,0.0,0.0,0.0,0.0,0.0,0.0,0.0,0.0,0.0,0.0,0.0,0.0,0.0,0.0,0.0,0.0,0.0,0.0,0.0,0.0,0.0,0.0,0.0,0.0,0.0,0.0,0.0,0.0,0.0,0.0,0.0,0.0,0.0,0.0,0.0,0.0,0.0,0.0,0.0,0.0,0.0,0.0,0.0,0.0,0.0,0.0,0.0,0.0,0.0,0.0,0.0,0.0,0.0,0.0,0.0,0.0,0.0,0.0,0.0,0.0,0.0,0.0,0.0,0.0,0.0,0.0,0.0,0.0,0.0,0.0,0.0,0.0,0.0,0.0,0.0,0.0,0.0,0.0,0.0,0.0,0.0,0.0,0.0,0.0,0.0,0.0,0.0,0.0,0.0,0.0,0.0,0.0,0.0,0.0,0.0,0.0,0.0,0.0,0.0,0.0,0.0,0.0,0.0,0.0,0.0,0.0,0.0,0.0,0.0,0.0,0.0,0.0,0.0,0.0,0.0,0.0,0.0,0.0,0.0,0.0,0.0,0.0,0.0,0.0,0.0,0.0,0.0,0.0,0.0,0.0,0.0,0.0,0.0,0.0,0.0,0.0,0.0,0.0,0.0,0.0,0.0,0.0,0.0,0.0,0.0,0.0,0.0,0.0,0.0,0.0,0.0,0.0,0.0,0.0,0.0,0.0,0.0,0.0,0.0,0.0,0.0,0.0,0.0,0.0,0.0,0.0,0.0,0.0,0.0,0.0,0.0,0.0,0.0,0.0,0.0,0.0,0.0,0.0,0.0,0.0,0.0,0.0,0.0,0.0,0.0,0.0,0.0,0.0,0.0,0.0,0.0,0.0,0.0,0.0,0.0,0.0,0.0,0.0,0.0,0.0,0.0,0.0,0.0,0.0,0.0,0.0,0.0,0.0,0.0,0.0,0.0,0.0,0.0,0.0,0.0,0.0,0.0,0.0,0.0,0.0,0.0,0.0,0.0,0.0,0.0,0.0,0.0,0.0,0.0,0.0,0.0,0.0,0.0,0.0,0.0,0.0,0.0,0.0,0.0,0.0,0.0,0.0,0.0,0.0,0.0,0.0,0.0,0.0,0.0,0.0,0.0,0.0,0.0,0.0,0.0,0.0,0.0,0.0,0.0,0.0,0.0,0.0,0.0,0.0,0.0,0.0,0.0,0.0,0.0,0.0,0.0,0.0,0.0,0.0,0.0,0.0,0.0,0.0,0.0,0.0,0.0,0.0,0.0,0.0,0.0,0.0,0.0,0.0,0.0,0.0,0.0,0.0,0.0,0.0,0.0,0.0,0.0,0.0,0.0,0.0,0.0,0.0,0.0,0.0,0.0,0.0,0.0,0.0,0.0,0.0,0.0,0.0,0.0,0.0,0.0,0.0,0.0,0.0,0.0,0.0,0.0,0.0,0.0,0.0,0.0,0.0,0.0,0.0,0.0,0.0,0.0,0.0,0.0,0.0,0.0,0.0,0.0,0.0,0.0,0.0,0.0,0.0,0.0,0.0,0.0,0.0,0.0,0.0,0.0,0.0,0.0,0.0,0.0,0.0,0.0,0.0,0.0,0.0,0.0,0.0,0.0,0.0,0.0,0.0,0.0,0.0,0.0,0.0,0.0,0.0,0.0,0.0,0.0,0.0,0.0,0.0,0.0,0.0,0.0,0.0,0.0,0.0,0.0,0.0,0.0,0.0,0.0,0.0,0.0,0.0,0.0,0.0,0.0,0.0,0.0,0.0,0.0,0.0,0.0,0.0,0.0,0.0,0.0,0.0,0.0,0.0,0.0,0.0,0.0,0.0,0.0,0.0,0.0,0.0,0.0,0.0,0.0,0.0,0.0,0.0,0.0,0.0,0.0,0.0,0.0,0.0,0.0,0.0,0.0,0.0,0.0,0.0,0.0,0.0,0.0,0.0,0.0,0.0,0.0,0.0,0.0,0.0,0.0,0.0,0.0,0.0,0.0,0.0,0.0,0.0,0.0,0.0,0.0,0.0,0.0,0.0,0.0,0.0,0.0,0.0,0.0,0.0,0.0,0.0,0.0,0.0,0.0,0.0,0.0,0.0,0.0,0.0,0.0,0.0,0.0,-3.9101,0.0,0.0,0.0,0.0,0.0,0.0,0.0,0.0,0.0,0.0,0.0,0.0,0.0,0.0,0.0,0.0,0.0,0.0,0.0,0.0,0.0,0.0,0.0,0.0,0.0,0.0,0.0,0.0,0.0,0.0,0.0,0.0,0.0,0.0,0.0,0.0,0.0,0.0,0.0,0.0,0.0,0.0,0.0,0.0,0.0,0.0,0.0,0.0,0.0,0.0,0.0,0.0,0.0,0.0,0.0,0.0,0.0,0.0,0.0,0.0,0.0,0.0,0.0,0.0,0.0,0.0,0.0,0.0,0.0,0.0,0.0,0.0,0.0,0.0,0.0,0.0,0.0,0.0,0.0,0.0,0.0,0.0,0.0,0.0,0.0,0.0,0.0,0.0,0.0,0.0,0.0,0.0,0.0,0.0,0.0,0.0,0.0,0.0,0.0,0.0,0.0,0.0,0.0,0.0,0.0,0.0,0.0,0.0,0.0,0.0,-3.9101,-3.9101,-3.9101,-3.9101,-3.9101,0.0,0.0,0.0,0.0,0.0,0.0,0.0,0.0,0.0,0.0,0.0,0.0,0.0,0.0,0.0,0.0,0.0,0.0,0.0,0.0,0.0,0.0,0.0,0.0,0.0,0.0,0.0,0.0,0.0,0.0,0.0,0.0,0.0,0.0,0.0,0.0,0.0,0.0,0.0,0.0,0.0,0.0,0.0,0.0,0.0,0.0,0.0,0.0,0.0,0.0,0.0,0.0,0.0,0.0,0.0,0.0,0.0,0.0,0.0,0.0,0.0,0.0,0.0,0.0,0.0,0.0,0.0,0.0,0.0,0.0,0.0,0.0,0.0,0.0,0.0,0.0,0.0,0.0,0.0,0.0,0.0,0.0,0.0,0.0,0.0,0.0,0.0,0.0,0.0,0.0,0.0,0.0,0.0,0.0,0.0,0.0,0.0,0.0,0.0,0.0,0.0,0.0,0.0,0.0,0.0,0.0,0.0,0.0,0.0,0.0,0.0,0.0,-3.9101,-3.9101,-3.9101,0.0,0.0,0.0,0.0,0.0,0.0,0.0,0.0,0.0,0.0,0.0,0.0,0.0,0.0,0.0,0.0,0.0,0.0,0.0,0.0,0.0,0.0,0.0,0.0,0.0,0.0,0.0,0.0,0.0,0.0,0.0,0.0,0.0,0.0,0.0,0.0,0.0,0.0,0.0,0.0,0.0,0.0,0.0,0.0,0.0,0.0,0.0,0.0,0.0,0.0,0.0,0.0,0.0,0.0,0.0,0.0,0.0,0.0,0.0,0.0,0.0,0.0,0.0,0.0,0.0,0.0,0.0,0.0,0.0,0.0,0.0,0.0,0.0,0.0,0.0,0.0,0.0,0.0,0.0,0.0,0.0,0.0,0.0,0.0,0.0,0.0,0.0,0.0,0.0,0.0,0.0,0.0,0.0,0.0,0.0,0.0,0.0,0.0,0.0,0.0,0.0,0.0,0.0,0.0,0.0,0.0,0.0,0.0,0.0,0.0,-3.9101,-3.9101,-3.9082,0.0,-3.9101,0.0,0.0,0.0,0.0,0.0,0.0,0.0,0.0,0.0,0.0,0.0,0.0,0.0,0.0,0.0,0.0,0.0,0.0,0.0,0.0,0.0,0.0,0.0,0.0,0.0,0.0,0.0,0.0,0.0,0.0,0.0,0.0,0.0,0.0,0.0,0.0,0.0,0.0,0.0,0.0,0.0,0.0,0.0,0.0,0.0,0.0,0.0,0.0,0.0,0.0,0.0,0.0,0.0,0.0,0.0,0.0,0.0,0.0,0.0,0.0,0.0,0.0,0.0,0.0,0.0,0.0,0.0,0.0,0.0,0.0,0.0,0.0,0.0,0.0,0.0,0.0,0.0,0.0,0.0,0.0,0.0,0.0,0.0,0.0,0.0,0.0,0.0,0.0,0.0,0.0,0.0,0.0,0.0,0.0,0.0,0.0,0.0,0.0,0.0,0.0,0.0,0.0,0.0,0.0,0.0,0.0,0.0,0.0,0.0,0.0,-3.8878,-3.8395,-3.7912,-3.7684,0.0,0.0,0.0,0.0,0.0,0.0,0.0,0.0,0.0,0.0,0.0,0.0,0.0,0.0,0.0,0.0,0.0,0.0,0.0,0.0,0.0,0.0,0.0,0.0,0.0,0.0,0.0,0.0,0.0,0.0,0.0,0.0,0.0,0.0,0.0,0.0,0.0,0.0,0.0,0.0,0.0,0.0,0.0,0.0,0.0,0.0,0.0,0.0,0.0,0.0,0.0,0.0,0.0,0.0,0.0,0.0,0.0,0.0,0.0,0.0,0.0,0.0,0.0,0.0,0.0,0.0,0.0,0.0,0.0,0.0,0.0,0.0,0.0,0.0,0.0,0.0,0.0,0.0,0.0,0.0,0.0,0.0,0.0,0.0,0.0,0.0,0.0,0.0,0.0,0.0,0.0,0.0,0.0,0.0,0.0,0.0,0.0,0.0,0.0,0.0,0.0,0.0,0.0,0.0,0.0,0.0,0.0,0.0,0.0,0.0,-3.8767,-3.8377,-3.7596,-3.7015,-3.6718,-3.6718,0.0,0.0,0.0,0.0,0.0,0.0,0.0,0.0,0.0,0.0,0.0,0.0,0.0,0.0,0.0,0.0,0.0,0.0,0.0,0.0,0.0,0.0,0.0,0.0,0.0,0.0,0.0,0.0,0.0,0.0,0.0,0.0,0.0,0.0,0.0,0.0,0.0,0.0,0.0,0.0,0.0,0.0,0.0,0.0,0.0,0.0,0.0,0.0,0.0,0.0,0.0,0.0,0.0,0.0,0.0,0.0,0.0,0.0,0.0,0.0,0.0,0.0,0.0,0.0,0.0,0.0,0.0,0.0,0.0,0.0,0.0,0.0,0.0,0.0,0.0,0.0,0.0,0.0,0.0,0.0,0.0,0.0,0.0,0.0,0.0,0.0,0.0,0.0,0.0,0.0,0.0,0.0,0.0,0.0,0.0,0.0,0.0,0.0,0.0,0.0,0.0,0.0,0.0,0.0,0.0,0.0,0.0,0.0,-3.7986,-3.7949,-3.7573,-3.6792,-3.6718,-3.6699,0.0,0.0,0.0,0.0,0.0,0.0,0.0,0.0,0.0,0.0,0.0,0.0,0.0,0.0,0.0,0.0,0.0,0.0,0.0,0.0,0.0,0.0,0.0,0.0,0.0,0.0,0.0,0.0,0.0,0.0,0.0,0.0,0.0,0.0,0.0,0.0,0.0,0.0,0.0,0.0,0.0,0.0,0.0,0.0,0.0,0.0,0.0,0.0,0.0,0.0,0.0,0.0,0.0,0.0,0.0,0.0,0.0,0.0,0.0,0.0,0.0,0.0,0.0,0.0,0.0,0.0,0.0,0.0,0.0,0.0,0.0,0.0,0.0,0.0,0.0,0.0,0.0,0.0,0.0,0.0,0.0,0.0,0.0,0.0,0.0,0.0,0.0,0.0,0.0,0.0,0.0,0.0,0.0,0.0,0.0,0.0,0.0,0.0,0.0,0.0,0.0,0.0,0.0,0.0,0.0,0.0,0.0,0.0,0.0,-3.7875,-3.6872,-3.6216,-3.5937,-3.5398,-3.5107,0.0,0.0,0.0,0.0,0.0,0.0,0.0,0.0,0.0,0.0,0.0,0.0,0.0,0.0,0.0,0.0,0.0,0.0,0.0,0.0,0.0,0.0,0.0,0.0,0.0,0.0,0.0,0.0,0.0,0.0,0.0,0.0,0.0,0.0,0.0,0.0,0.0,0.0,0.0,0.0,0.0,0.0,0.0,0.0,0.0,0.0,0.0,0.0,0.0,0.0,0.0,0.0,0.0,0.0,0.0,0.0,0.0,0.0,0.0,0.0,0.0,0.0,0.0,0.0,0.0,0.0,0.0,0.0,0.0,0.0,0.0,0.0,0.0,0.0,0.0,0.0,0.0,0.0,0.0,0.0,0.0,0.0,0.0,0.0,0.0,0.0,0.0,0.0,0.0,0.0,0.0,0.0,0.0,0.0,0.0,0.0,0.0,0.0,0.0,0.0,0.0,0.0,0.0,0.0,0.0,0.0,0.0,0.0,0.0,-3.7108,0.0,-3.5083,-3.5052,-3.4506,-3.4216,0.0,0.0,0.0,0.0,0.0,0.0,0.0,0.0,0.0,0.0,0.0,0.0,0.0,0.0,0.0,0.0,0.0,0.0,0.0,0.0,0.0,0.0,0.0,0.0,0.0,0.0,0.0,0.0,0.0,0.0,0.0,0.0,0.0,0.0,0.0,0.0,0.0,0.0,0.0,0.0,0.0,0.0,0.0,0.0,0.0,0.0,0.0,0.0,0.0,0.0,0.0,0.0,0.0,0.0,0.0,0.0,0.0,0.0,0.0,0.0,0.0,0.0,0.0,0.0,0.0,0.0,0.0,0.0,0.0,0.0,0.0,0.0,0.0,0.0,0.0,0.0,0.0,0.0,0.0,0.0,0.0,0.0,0.0,0.0,0.0,0.0,0.0,0.0,0.0,0.0,0.0,0.0,0.0,0.0,0.0,0.0,0.0,0.0,0.0,0.0,0.0,0.0,0.0,0.0,0.0,0.0,0.0,0.0,-3.7108,-3.5584,-3.468,-3.4271,-3.4216,-3.4234,-3.4216,0.0,0.0,0.0,0.0,0.0,0.0,0.0,0.0,0.0,0.0,0.0,0.0,0.0,0.0,0.0,0.0,0.0,0.0,0.0,0.0,0.0,0.0,0.0,0.0,0.0,0.0,0.0,0.0,0.0,0.0,0.0,0.0,0.0,0.0,0.0,0.0,0.0,0.0,0.0,0.0,0.0,0.0,0.0,0.0,0.0,0.0,0.0,0.0,0.0,0.0,0.0,0.0,0.0,0.0,0.0,0.0,0.0,0.0,0.0,0.0,0.0,0.0,0.0,0.0,0.0,0.0,0.0,0.0,0.0,0.0,0.0,0.0,0.0,0.0,0.0,0.0,0.0,0.0,0.0,0.0,0.0,0.0,0.0,0.0,0.0,0.0,0.0,0.0,0.0,0.0,0.0,0.0,0.0,0.0,0.0,0.0,0.0,0.0,0.0,0.0,0.0,0.0,0.0,0.0,0.0,0.0,0.0,0.0,0.0,-3.551,-3.4643,-3.4476,-3.5045,-3.4506,-3.4216,0.0,0.0,0.0,0.0,0.0,0.0,0.0,0.0,0.0,0.0,0.0,0.0,0.0,0.0,0.0,0.0,0.0,0.0,0.0,0.0,0.0,0.0,0.0,0.0,0.0,0.0,0.0,0.0,0.0,0.0,0.0,0.0,0.0,0.0,0.0,0.0,0.0,0.0,0.0,0.0,0.0,0.0,0.0,0.0,0.0,0.0,0.0,0.0,0.0,0.0,0.0,0.0,0.0,0.0,0.0,0.0,0.0,0.0,0.0,0.0,0.0,0.0,0.0,0.0,0.0,0.0,0.0,0.0,0.0,0.0,0.0,0.0,0.0,0.0,0.0,0.0,0.0,0.0,0.0,0.0,0.0,0.0,0.0,0.0,0.0,0.0,0.0,0.0,0.0,0.0,0.0,0.0,0.0,0.0,0.0,0.0,0.0,0.0,0.0,0.0,0.0,0.0,0.0,0.0,0.0,0.0,0.0,0.0,0.0,-3.6328,-3.5553,-3.5386,-3.5937,-3.512,-3.4692,-3.4692,0.0,0.0,0.0,0.0,0.0,0.0,0.0,0.0,0.0,0.0,0.0,0.0,0.0,0.0,0.0,0.0,0.0,0.0,0.0,0.0,0.0,0.0,0.0,0.0,0.0,0.0,0.0,0.0,0.0,0.0,0.0,0.0,0.0,0.0,0.0,0.0,0.0,0.0,0.0,0.0,0.0,0.0,0.0,0.0,0.0,0.0,0.0,0.0,0.0,0.0,0.0,0.0,0.0,0.0,0.0,0.0,0.0,0.0,0.0,0.0,0.0,0.0,0.0,0.0,0.0,0.0,0.0,0.0,0.0,0.0,0.0,0.0,0.0,0.0,0.0,0.0,0.0,0.0,0.0,0.0,0.0,0.0,0.0,0.0,0.0,0.0,0.0,0.0,0.0,0.0,0.0,0.0,0.0,0.0,0.0,0.0,0.0,0.0,0.0,0.0,0.0,0.0,0.0,0.0,0.0,0.0,0.0,0.0,-3.7875,-3.7188,-3.6798,-3.6742,-3.5937,-3.5491,0.0,0.0,0.0,0.0,0.0,0.0,0.0,0.0,0.0,0.0,0.0,0.0,0.0,0.0,0.0,0.0,0.0,0.0,0.0,0.0,0.0,0.0,0.0,0.0,0.0,0.0,0.0,0.0,0.0,0.0,0.0,0.0,0.0,0.0,0.0,0.0,0.0,0.0,0.0,0.0,0.0,0.0,0.0,0.0,0.0,0.0,0.0,0.0,0.0,0.0,0.0,0.0,0.0,0.0,0.0,0.0,0.0,0.0,0.0,0.0,0.0,0.0,0.0,0.0,0.0,0.0,0.0,0.0,0.0,0.0,0.0,0.0,0.0,0.0,0.0,0.0,0.0,0.0,0.0,0.0,0.0,0.0,0.0,0.0,0.0,0.0,0.0,0.0,0.0,0.0,0.0,0.0,0.0,0.0,0.0,0.0,0.0,0.0,0.0,0.0,0.0,0.0,0.0,0.0,0.0,0.0,0.0,0.0,0.0,-3.787,-3.8265,-3.8191,-3.7578,-3.6253,-3.5491,0.0,0.0,0.0,0.0,0.0,0.0,0.0,0.0,0.0,0.0,0.0,0.0,0.0,0.0,0.0,0.0,0.0,0.0,0.0,0.0,0.0,0.0,0.0,0.0,0.0,0.0,0.0,0.0,0.0,0.0,0.0,0.0,0.0,0.0,0.0,0.0,0.0,0.0,0.0,0.0,0.0,0.0,0.0,0.0,0.0,0.0,0.0,0.0,0.0,0.0,0.0,0.0,0.0,0.0,0.0,0.0,0.0,0.0,0.0,0.0,0.0,0.0,0.0,0.0,0.0,0.0,0.0,0.0,0.0,0.0,0.0,0.0,0.0,0.0,0.0,0.0,0.0,0.0,0.0,0.0,0.0,0.0,0.0,0.0,0.0,0.0,0.0,0.0,0.0,0.0,0.0,0.0,0.0,0.0,0.0,0.0,0.0,0.0,0.0,0.0,0.0,0.0,0.0,0.0,0.0,0.0,0.0,0.0,-3.7243,-3.8377,-3.8841,-3.8859,-3.8414,-3.7182,-3.6346,0.0,0.0,0.0,0.0,0.0,0.0,0.0,0.0,0.0,0.0,0.0,0.0,0.0,0.0,0.0,0.0,0.0,0.0,0.0,0.0,0.0,0.0,0.0,0.0,0.0,0.0,0.0,0.0,0.0,0.0,0.0,0.0,0.0,0.0,0.0,0.0,0.0,0.0,0.0,0.0,0.0,0.0,0.0,0.0,0.0,0.0,0.0,0.0,0.0,0.0,0.0,0.0,0.0,0.0,0.0,0.0,0.0,0.0,0.0,0.0,0.0,0.0,0.0,0.0,0.0,0.0,0.0,0.0,0.0,0.0,0.0,0.0,0.0,0.0,0.0,0.0,0.0,0.0,0.0,0.0,0.0,0.0,0.0,0.0,0.0,0.0,0.0,0.0,0.0,0.0,0.0,0.0,0.0,0.0,0.0,0.0,0.0,0.0,0.0,0.0,0.0,0.0,0.0,0.0,0.0,0.0,0.0,0.0,-3.7559,-3.9064,-3.9101,-3.9101,-3.9064,-3.8321,-3.7522,0.0,0.0,0.0,0.0,0.0,0.0,0.0,0.0,0.0,0.0,0.0,0.0,0.0,0.0,0.0,0.0,0.0,0.0,0.0,0.0,0.0,0.0,0.0,0.0,0.0,0.0,0.0,0.0,0.0,0.0,0.0,0.0,0.0,0.0,0.0,0.0,0.0,0.0,0.0,0.0,0.0,0.0,0.0,0.0,0.0,0.0,0.0,0.0,0.0,0.0,0.0,0.0,0.0,0.0,0.0,0.0,0.0,0.0,0.0,0.0,0.0,0.0,0.0,0.0,0.0,0.0,0.0,0.0,0.0,0.0,0.0,0.0,0.0,0.0,0.0,0.0,0.0,0.0,0.0,0.0,0.0,0.0,0.0,0.0,0.0,0.0,0.0,0.0,0.0,0.0,0.0,0.0,0.0,0.0,0.0,0.0,0.0,0.0,0.0,0.0,0.0,0.0,0.0,0.0,0.0,0.0,0.0,0.0,-3.8116,-3.9064,-3.9101,-3.9101,-3.9101,-3.8321,-3.7535,0.0,0.0,0.0,0.0,0.0,0.0,0.0,0.0,0.0,0.0,0.0,0.0,0.0,0.0,0.0,0.0,0.0,0.0,0.0,0.0,0.0,0.0,0.0,0.0,0.0,0.0,0.0,0.0,0.0,0.0,0.0,0.0,0.0,0.0,0.0,0.0,0.0,0.0,0.0,0.0,0.0,0.0,0.0,0.0,0.0,0.0,0.0,0.0,-4.1275,0.0,0.0,0.0,0.0,0.0,0.0,0.0,0.0,0.0,0.0,0.0,0.0,0.0,0.0,0.0,0.0,0.0,0.0,0.0,0.0,0.0,0.0,0.0,0.0,0.0,0.0,0.0,0.0,0.0,0.0,0.0,0.0,0.0,0.0,0.0,0.0,0.0,0.0,0.0,0.0,0.0,0.0,0.0,0.0,0.0,0.0,0.0,0.0,0.0,0.0,0.0,0.0,0.0,0.0,0.0,0.0,0.0,0.0,0.0,-3.8275,-3.9064,-3.9101,-3.9027,-3.8847,-3.8463,-3.7725,0.0,0.0,0.0,0.0,0.0,0.0,0.0,0.0,0.0,0.0,0.0,0.0,0.0,0.0,0.0,0.0,0.0,0.0,0.0,0.0,0.0,0.0,0.0,0.0,0.0,0.0,0.0,0.0,0.0,0.0,0.0,0.0,0.0,0.0,0.0,0.0,0.0,0.0,0.0,0.0,0.0,0.0,0.0,0.0,0.0,0.0,0.0,0.0,0.0,0.0,0.0,0.0,0.0,0.0,0.0,0.0,0.0,0.0,0.0,0.0,0.0,0.0,0.0,0.0,0.0,0.0,0.0,0.0,0.0,0.0,0.0,0.0,0.0,0.0,0.0,0.0,0.0,0.0,0.0,0.0,0.0,0.0,0.0,0.0,0.0,0.0,0.0,0.0,0.0,0.0,0.0,0.0,0.0,0.0,0.0,0.0,0.0,0.0,0.0,0.0,0.0,0.0,0.0,0.0,0.0,0.0,0.0,-3.7438,-3.82,-3.8872,-3.8909,-3.8759,-3.8468,-3.8517,-3.7889,-3.6542,0.0,0.0,0.0,0.0,0.0,0.0,0.0,0.0,0.0,0.0,0.0,0.0,0.0,0.0,0.0,0.0,0.0,0.0,0.0,0.0,0.0,0.0,0.0,0.0,0.0,0.0,0.0,0.0,0.0,0.0,0.0,0.0,0.0,0.0,0.0,0.0,0.0,0.0,-3.9951,-4.0667,0.0,0.0,0.0,0.0,0.0,0.0,0.0,0.0,-4.2756,0.0,0.0,0.0,0.0,0.0,0.0,0.0,0.0,0.0,0.0,0.0,0.0,0.0,0.0,0.0,0.0,0.0,0.0,0.0,0.0,0.0,0.0,0.0,0.0,0.0,0.0,0.0,0.0,0.0,0.0,0.0,0.0,0.0,0.0,0.0,0.0,0.0,0.0,0.0,0.0,0.0,0.0,0.0,0.0,0.0,0.0,0.0,0.0,0.0,0.0,0.0,0.0,0.0,0.0,0.0,0.0,-3.6223,-3.746,-3.8118,-3.8096,-3.8096,-3.8011,-3.7874,-3.8112,-3.7517,-3.6052,0.0,0.0,0.0,0.0,0.0,0.0,0.0,0.0,0.0,0.0,0.0,0.0,0.0,0.0,0.0,0.0,0.0,0.0,0.0,0.0,0.0,0.0,0.0,0.0,0.0,0.0,0.0,0.0,0.0,0.0,0.0,0.0,0.0,0.0,0.0,0.0,0.0,0.0,0.0,-4.14,-4.1901,0.0,0.0,0.0,0.0,0.0,0.0,0.0,0.0,-4.3156,0.0,0.0,0.0,0.0,0.0,0.0,0.0,0.0,0.0,0.0,0.0,0.0,0.0,0.0,0.0,0.0,0.0,0.0,0.0,0.0,0.0,0.0,0.0,0.0,0.0,0.0,0.0,0.0,0.0,0.0,0.0,0.0,0.0,0.0,0.0,0.0,0.0,0.0,0.0,0.0,0.0,0.0,0.0,0.0,0.0,0.0,0.0,0.0,0.0,0.0,0.0,0.0,0.0,0.0,0.0,-3.6879,-3.7616,-3.8082,-3.8198,-3.8065,-3.7877,-3.7632,-3.7843,-3.7241,0.0,0.0,0.0,0.0,0.0,0.0,0.0,0.0,0.0,0.0,0.0,0.0,0.0,0.0,0.0,0.0,0.0,0.0,0.0,0.0,0.0,0.0,0.0,0.0,0.0,0.0,0.0,0.0,0.0,0.0,0.0,0.0,0.0,0.0,0.0,0.0,0.0,0.0,0.0,0.0,-4.1747,-4.2015,-4.2176,0.0,0.0,0.0,0.0,0.0,0.0,-4.4031,-4.3693,0.0,0.0,0.0,0.0,0.0,0.0,0.0,0.0,0.0,0.0,0.0,0.0,0.0,0.0,0.0,0.0,0.0,0.0,0.0,0.0,0.0,0.0,0.0,0.0,0.0,0.0,0.0,0.0,0.0,0.0,0.0,0.0,0.0,0.0,0.0,0.0,0.0,0.0,0.0,0.0,0.0,0.0,0.0,0.0,0.0,0.0,0.0,0.0,0.0,0.0,0.0,0.0,0.0,0.0,0.0,-3.7354,-3.7551,-3.7826,-3.8133,-3.7948,-3.7667,-3.7357,-3.7595,-3.6968,0.0,0.0,0.0,0.0,0.0,0.0,0.0,0.0,0.0,0.0,0.0,0.0,0.0,0.0,0.0,0.0,0.0,0.0,0.0,0.0,0.0,0.0,0.0,0.0,0.0,0.0,0.0,0.0,0.0,0.0,0.0,0.0,0.0,0.0,0.0,0.0,0.0,0.0,0.0,0.0,0.0,-4.2084,-4.2649,-4.2965,0.0,0.0,0.0,0.0,-4.4346,-4.4515,0.0,0.0,0.0,0.0,0.0,0.0,0.0,0.0,0.0,0.0,0.0,0.0,0.0,0.0,0.0,0.0,0.0,0.0,0.0,0.0,0.0,0.0,0.0,0.0,0.0,0.0,0.0,0.0,0.0,0.0,0.0,0.0,0.0,0.0,0.0,0.0,0.0,0.0,0.0,0.0,0.0,0.0,0.0,0.0,0.0,0.0,0.0,0.0,0.0,0.0,0.0,0.0,0.0,0.0,0.0,0.0,-3.6661,-3.6928,-3.7068,-3.6992,-3.6952,-3.6891,-3.6788,-3.7222,-3.6773,0.0,0.0,0.0,0.0,0.0,0.0,0.0,0.0,0.0,0.0,0.0,0.0,0.0,0.0,0.0,0.0,0.0,0.0,0.0,0.0,0.0,0.0,0.0,0.0,0.0,0.0,0.0,0.0,0.0,0.0,0.0,0.0,0.0,0.0,0.0,0.0,0.0,0.0,0.0,0.0,0.0,-4.2638,-4.3664,-4.3498,-4.3431,0.0,0.0,-4.3927,-4.4285,-4.4329,0.0,0.0,0.0,0.0,0.0,0.0,0.0,0.0,0.0,0.0,0.0,0.0,0.0,0.0,0.0,0.0,0.0,0.0,0.0,0.0,0.0,0.0,0.0,0.0,0.0,0.0,0.0,0.0,0.0,0.0,0.0,0.0,0.0,0.0,0.0,0.0,0.0,0.0,0.0,0.0,0.0,0.0,0.0,0.0,0.0,0.0,0.0,0.0,0.0,0.0,0.0,0.0,0.0,0.0,0.0,-3.6992,-3.7611,-3.7362,-3.7376,-3.7738,-3.7614,-3.7523,-3.7522,-3.7721,-3.7174,0.0,0.0,0.0,0.0,0.0,0.0,0.0,0.0,0.0,0.0,0.0,0.0,0.0,0.0,0.0,0.0,0.0,0.0,0.0,0.0,0.0,0.0,0.0,0.0,0.0,0.0,0.0,0.0,0.0,0.0,0.0,0.0,0.0,0.0,0.0,0.0,0.0,0.0,0.0,0.0,0.0,0.0,-4.3188,-4.3511,0.0,0.0,0.0,-4.3995,-4.4255,0.0,0.0,0.0,0.0,0.0,0.0,0.0,0.0,0.0,0.0,0.0,0.0,0.0,0.0,0.0,0.0,0.0,0.0,0.0,0.0,0.0,0.0,0.0,0.0,0.0,0.0,0.0,0.0,0.0,0.0,0.0,0.0,0.0,0.0,0.0,0.0,0.0,0.0,0.0,0.0,0.0,0.0,0.0,0.0,0.0,0.0,0.0,0.0,0.0,0.0,0.0,0.0,0.0,0.0,0.0,0.0,0.0,-3.8396,-3.7826,-3.7773,-3.8314,-3.8133,-3.8034,-3.8034,-3.8152,0.0,0.0,0.0,0.0,0.0,0.0,0.0,0.0,0.0,0.0,0.0,0.0,0.0,0.0,0.0,0.0,0.0,0.0,0.0,0.0,0.0,0.0,0.0,0.0,0.0,0.0,0.0,-4.0797,0.0,0.0,0.0,0.0,0.0,0.0,0.0,0.0,0.0,0.0,0.0,0.0,0.0,0.0,-4.2041,-4.2832,-4.339,-4.3586,0.0,0.0,-4.43,-4.4804,-4.4871,-4.4632,0.0,0.0,0.0,0.0,0.0,0.0,0.0,0.0,0.0,0.0,0.0,0.0,0.0,0.0,0.0,0.0,0.0,0.0,0.0,0.0,0.0,0.0,0.0,0.0,0.0,0.0,0.0,0.0,0.0,0.0,0.0,0.0,0.0,0.0,0.0,0.0,0.0,0.0,0.0,0.0,0.0,0.0,0.0,0.0,0.0,0.0,0.0,0.0,0.0,0.0,0.0,0.0,0.0,0.0,0.0,-3.82,-3.7929,-3.7825,-3.7946,-3.7861,-3.7827,-3.7809,-3.8085,-3.7782,0.0,0.0,0.0,0.0,0.0,0.0,0.0,0.0,0.0,0.0,0.0,0.0,0.0,0.0,0.0,0.0,0.0,0.0,0.0,0.0,0.0,0.0,0.0,0.0,0.0,0.0,0.0,0.0,0.0,0.0,0.0,0.0,0.0,0.0,0.0,0.0,0.0,0.0,0.0,0.0,0.0,-4.2433,-4.3243,-4.3195,-4.3415,0.0,0.0,-4.5132,-4.6259,-4.6435,-4.6203,-4.5567,0.0,0.0,0.0,0.0,0.0,0.0,0.0,0.0,0.0,0.0,0.0,0.0,0.0,0.0,0.0,0.0,0.0,0.0,0.0,0.0,0.0,0.0,0.0,0.0,0.0,0.0,0.0,0.0,0.0,0.0,0.0,0.0,0.0,0.0,0.0,0.0,0.0,0.0,0.0,0.0,0.0,0.0,0.0,0.0,0.0,0.0,0.0,0.0,0.0,0.0,0.0,0.0,0.0,-3.8219,-3.8152,-3.7912,-3.779,-3.7789,-3.7754,-3.7737,-3.7737,-3.779,-3.7551,0.0,0.0,0.0,0.0,0.0,0.0,0.0,0.0,0.0,0.0,0.0,0.0,0.0,0.0,0.0,0.0,0.0,0.0,0.0,0.0,0.0,0.0,0.0,0.0,0.0,0.0,0.0,0.0,-4.3231,-4.3338,-4.1992,0.0,0.0,0.0,0.0,0.0,0.0,0.0,0.0,0.0,0.0,-4.3137,-4.3688,-4.4025,0.0,0.0,-4.5036,-4.5533,-4.6093,-4.6027,-4.5839,-4.5623,-4.4969,0.0,0.0,0.0,0.0,0.0,0.0,0.0,0.0,0.0,0.0,0.0,0.0,0.0,0.0,0.0,0.0,0.0,0.0,0.0,0.0,0.0,0.0,0.0,0.0,0.0,0.0,0.0,0.0,0.0,0.0,0.0,0.0,0.0,0.0,0.0,0.0,0.0,0.0,0.0,0.0,0.0,0.0,0.0,0.0,0.0,0.0,0.0,0.0,0.0,0.0,0.0,0.0,-3.8203,-3.8101,-3.7861,-3.7738,-3.7648,-3.7649,-3.7631,-3.7631,-3.7632,-3.7451,0.0,0.0,0.0,0.0,0.0,0.0,0.0,0.0,0.0,0.0,0.0,0.0,0.0,0.0,0.0,0.0,0.0,0.0,0.0,0.0,0.0,0.0,0.0,0.0,0.0,0.0,0.0,0.0,-4.3623,-4.3322,-4.1927,0.0,0.0,0.0,0.0,0.0,0.0,0.0,0.0,0.0,0.0,-4.4145,-4.4214,-4.4674,-4.5024,-4.5029,-4.5582,-4.6121,-4.634,-4.624,-4.6106,-4.5952,0.0,0.0,0.0,0.0,0.0,0.0,0.0,0.0,0.0,0.0,0.0,0.0,0.0,0.0,0.0,0.0,0.0,0.0,0.0,0.0,0.0,0.0,0.0,0.0,0.0,0.0,0.0,0.0,0.0,0.0,0.0,0.0,0.0,0.0,0.0,0.0,0.0,0.0,0.0,0.0,0.0,0.0,0.0,0.0,0.0,0.0,0.0,0.0,0.0,0.0,0.0,0.0,0.0,-3.8167,-3.8085,-3.7773,-3.7596,-3.7578,-3.7524,-3.7505,-3.7487,-3.756,-3.7632,-3.7667,0.0,0.0,0.0,0.0,0.0,0.0,0.0,0.0,0.0,0.0,0.0,0.0,0.0,0.0,0.0,0.0,0.0,0.0,0.0,0.0,0.0,0.0,0.0,0.0,0.0,0.0,-4.3095,-4.3038,-4.2619,0.0,0.0,0.0,0.0,0.0,0.0,0.0,0.0,0.0,0.0,-4.4747,-4.5494,-4.4794,-4.4872,-4.5338,-4.6119,-4.6535,-4.6945,-4.7348,-4.754,-4.7452,0.0,0.0,0.0,0.0,0.0,0.0,0.0,0.0,0.0,0.0,0.0,0.0,0.0,0.0,0.0,0.0,0.0,0.0,0.0,0.0,0.0,0.0,0.0,0.0,0.0,0.0,0.0,-4.1556,-4.1441,0.0,0.0,0.0,0.0,0.0,0.0,0.0,0.0,0.0,0.0,0.0,-4.1627,-4.2147,0.0,0.0,0.0,0.0,0.0,0.0,0.0,0.0,0.0,0.0,0.0,0.0,-3.8453,-3.7667,-3.7835,-3.7545,-3.6779,-3.6719,-3.6821,-3.7094,-3.6956,-3.7148,-3.7667,0.0,0.0,0.0,0.0,0.0,0.0,0.0,0.0,0.0,0.0,0.0,0.0,0.0,0.0,0.0,0.0,0.0,0.0,0.0,0.0,0.0,0.0,0.0,0.0,0.0,-4.2824,0.0,0.0,0.0,0.0,0.0,0.0,0.0,0.0,0.0,0.0,0.0,-4.4286,-4.5189,-4.592,-4.6233,-4.5974,-4.6169,-4.6378,0.0,0.0,0.0,0.0,0.0,0.0,0.0,0.0,0.0,0.0,0.0,0.0,0.0,0.0,-4.5426,-4.5229,-4.5664,-4.6125,-4.6409,0.0,0.0,0.0,0.0,0.0,0.0,0.0,0.0,0.0,0.0,0.0,0.0,0.0,0.0,0.0,0.0,-4.1544,0.0,0.0,0.0,0.0,0.0,0.0,0.0,0.0,-4.2914,-4.2927,-4.2463,-4.2965,-4.2946,0.0,-4.2372,-4.1881,0.0,0.0,0.0,0.0,0.0,0.0,0.0,0.0,-3.9265,-3.8472,-3.8633,-3.8355,-3.7601,-3.7586,-3.7727,-3.7927,-3.7846,-3.8042,-3.8582,-3.8692,-3.8765,0.0,0.0,0.0,0.0,0.0,0.0,0.0,0.0,0.0,0.0,0.0,0.0,0.0,0.0,0.0,0.0,0.0,0.0,0.0,0.0,0.0,0.0,0.0,-4.3515,0.0,0.0,0.0,0.0,0.0,0.0,0.0,0.0,0.0,-4.3949,-4.4705,-4.5514,-4.6392,-4.6853,-4.7052,-4.6928,0.0,0.0,0.0,0.0,0.0,0.0,0.0,-4.7448,-4.6979,-4.6985,-4.7063,-4.7061,-4.6916,-4.6772,-4.6753,0.0,0.0,-4.6524,-4.6835,-4.7207,-4.7207,-4.7229,-4.7257,-4.7276,-4.7316,-4.7324,0.0,0.0,0.0,0.0,0.0,0.0,0.0,0.0,-4.213,-4.2143,0.0,-4.2074,0.0,0.0,0.0,0.0,0.0,0.0,0.0,0.0,-4.3646,-4.4005,-4.3986,-4.3986,-4.3986,-4.3989,-4.3892,-4.3423,-4.2585,-4.1775,0.0,0.0,0.0,0.0,0.0,0.0,-4.0492,-4.0366,-4.0088,-3.9938,-3.9865,-3.9997,-4.0016,-3.9866,-4.0092,-4.0221,-4.0311,-4.066,-4.0932,-4.0976,-4.0498,0.0,0.0,0.0,0.0,0.0,0.0,0.0,0.0,0.0,0.0,0.0,0.0,0.0,0.0,0.0,0.0,0.0,0.0,0.0,0.0,-4.3919,0.0,0.0,0.0,0.0,0.0,0.0,0.0,0.0,0.0,0.0,-4.4135,-4.6077,-4.7405,-4.7,0.0,0.0,0.0,0.0,-4.7653,-4.7772,-4.7913,-4.7855,-4.7353,-4.7389,-4.7513,-4.7667,0.0,0.0,-4.782,-4.7266,-4.681,-4.6807,-4.7498,-4.7841,-4.7296,-4.7269,-4.7344,-4.7344,-4.7382,-4.732,-4.7306,-4.7438,-4.7396,-4.3512,0.0,0.0,0.0,0.0,-4.2881,-4.3151,-4.3662,-4.3608,-4.3594,-4.3552,-4.2911,0.0,0.0,0.0,0.0,0.0,0.0,-4.3252,-4.383,-4.3943,-4.4005,-4.4005,-4.4005,-4.4005,-4.4005,-4.391,-4.3603,-4.3057,-4.3078,-4.2396,-4.1058,0.0,0.0,0.0,0.0,-4.1143,-4.0598,-4.0762,-4.0649,-4.0128,-4.0147,-4.0166,-4.0184,-4.0786,-4.102,-4.0815,-4.1196,-4.1403,-4.1433,-4.1275,0.0,0.0,0.0,0.0,0.0,0.0,0.0,0.0,0.0,0.0,0.0,0.0,0.0,0.0,0.0,0.0,0.0,0.0,0.0,-4.4083,-4.4198,-4.3968,0.0,0.0,0.0,0.0,0.0,0.0,0.0,0.0,0.0,-4.6605,-4.6603,-4.6981,0.0,0.0,-4.813,-4.8028,-4.801,-4.7972,-4.7813,0.0,0.0,0.0,-4.7795,-4.8213,-4.771,-4.815,-4.8556,-4.8571,-4.8472,-4.8408,-4.8389,-4.8644,-4.88,-4.864,-4.8643,-4.872,-4.8822,-4.8837,-4.8837,-4.8837,-4.8856,-4.8818,-4.3849,-4.3434,-4.3063,-4.3166,-4.3568,-4.3563,-4.3785,-4.4177,-4.415,-4.415,-4.4162,-4.358,-4.3401,-4.3501,-4.3015,0.0,0.0,0.0,-4.3684,-4.4119,-4.4036,-4.4005,-4.4005,-4.4005,-4.4005,-4.4005,-4.3958,-4.3779,-4.3474,-4.3734,-4.3238,-4.2062,0.0,0.0,-4.1994,-4.2229,-4.2032,-4.1433,-4.1663,-4.1605,-4.1174,-4.1324,-4.1415,-4.154,-4.2124,-4.2368,-4.22,-4.2427,-4.2556,-4.2537,-4.224,-4.2054,0.0,0.0,0.0,0.0,0.0,0.0,0.0,0.0,0.0,0.0,0.0,-4.0916,-4.1209,0.0,0.0,0.0,-4.3267,-4.3975,-4.4416,-4.4329,0.0,0.0,0.0,0.0,0.0,0.0,0.0,-4.5714,-4.6624,-4.7279,-4.7402,-4.6873,-4.6948,-4.8218,-4.8267,-4.8149,-4.813,0.0,-4.8151,-4.8114,-4.8363,-4.8329,-4.7739,-4.8292,-4.8638,-4.8191,-4.854,-4.889,-4.889,-4.8979,-4.9032,-4.9032,-4.9047,-4.9096,-4.9148,-4.9197,-4.9281,-4.9393,-4.9474,-4.9509,-4.9509,-4.9509,-4.9509,-4.4005,-4.4002,-4.4192,-4.4207,-4.4184,-4.4184,-4.4101,-4.4005,-4.4005,-4.407,-4.4165,-4.407,-4.4116,-4.427,-4.4285,0.0,-4.4184,-4.4184,-4.4101,-4.4005,-4.4005,-4.4005,-4.4005,-4.4005,-4.4005,-4.4005,-4.4005,-4.3976,-4.3897,-4.3913,-4.3716,-4.3374,-4.3651,-4.3601,-4.3214,-4.3178,-4.3013,-4.2709,-4.2689,-4.2707,-4.2709,-4.3068,-4.3303,-4.3422,-4.3747,-4.3926,-4.4005,-4.4005,-4.4005,-4.3986,-4.3299,-4.289,-4.2853,0.0,0.0,0.0,0.0,0.0,0.0,0.0,0.0,0.0,0.0,0.0,0.0,0.0,0.0,0.0,-4.4041,0.0,-4.4397,-4.4329,0.0,0.0,0.0,-4.5324,-4.5379,-4.6104,-4.657,-4.6554,0.0,0.0,-4.7058,0.0,-4.7273,-4.8023,-4.8096,-4.8075,-4.8052,-4.8114,-4.8269,-4.855,-4.8605,-4.8678,-4.8676,-4.8786,-4.8821,-4.8817,-4.889,-4.889,-4.889,-4.889,-4.889,-4.889,-4.889,-4.8926,-4.9068,-4.9101,-4.9133,-4.9279,-4.9374,-4.9474,-4.9474,-4.949,-4.9509,-4.4005,-4.4005,-4.4051,-4.407,-4.4055,-4.4036,-4.402,-4.4005,-4.4005,-4.402,-4.4055,-4.4005,-4.4036,-4.4067,-4.4067,-4.4051,-4.4055,-4.4055,-4.402,-4.4005,-4.4005,-4.4005,-4.4005,-4.4005,-4.4005,-4.4005,-4.4005,-4.3989,-4.3974,-4.3974,-4.3913,-4.3765,-4.3832,-4.3651,-4.3214,-4.3105,-4.3214,-4.3516,-4.3515,-4.3548,-4.3681,-4.3763,-4.3828,-4.386,-4.3942,-4.3989,-4.4005,-4.4005,-4.4005,-4.4005,-4.3819,-4.3708,-4.3708,-4.2817,0.0,0.0,0.0,0.0,0.0,0.0,0.0,0.0,0.0,-4.2061,-4.2892,0.0,-4.42,0.0,-4.4327,-4.4401,-4.4329,-4.4255,0.0,0.0,-4.5239,-4.5563,-4.616,-4.6921,-4.7267,-4.6929,-4.7463,-4.7905,-4.7994,-4.7974,-4.8028,-4.8231,-4.8113,-4.8132,-4.8383,-4.8569,-4.866,-4.8715,-4.8768,-4.8838,-4.8856,-4.8874,-4.8892,-4.889,-4.889,-4.889,-4.889,-4.889,-4.889,-4.889,-4.889,-4.8909,-4.8926,-4.9032,-4.9083,-4.915,-4.9246,-4.934,-4.934,-4.9406,-4.949,-4.4106,-4.4005,-4.4005,-4.4005,-4.4005,-4.4005,-4.4005,-4.4005,-4.4005,-4.4005,-4.4005,-4.4005,-4.4005,-4.4005,-4.4005,-4.4005,-4.4005,-4.4005,-4.4005,-4.4005,-4.4005,-4.4005,-4.4005,-4.4005,-4.4005,-4.4005,-4.4005,-4.4005,-4.4005,-4.4005,-4.3892,-4.3681,-4.3681,-4.3512,-4.3196,-4.316,-4.3196,-4.3322,-4.332,-4.339,-4.3493,-4.3644,-4.3744,-4.3744,-4.3926,-4.4005,-4.4005,-4.4005,-4.4005,-4.4005,-4.4005,-4.4005,-4.3986,-4.3319,-4.2742,0.0,0.0,0.0,0.0,0.0,0.0,0.0,0.0,0.0,0.0,0.0,-4.4426,-4.4416,-4.4368,-4.4344,-4.4318,-4.4371,-4.4681,-4.5323,-4.5782,-4.6222,-4.6665,-4.746,-4.7868,-4.7609,-4.7993,-4.8324,-4.8324,-4.8324,-4.8324,-4.8324,-4.8209,-4.8209,-4.8383,-4.8345,-4.8326,-4.855,-4.8439,-4.8421,-4.8605,-4.8785,-4.889,-4.889,-4.889,-4.889,-4.889,-4.889,-4.889,-4.889,-4.889,-4.889,-4.889,-4.8962,-4.9015,-4.9032,-4.9115,-4.9195,-4.9244,-4.9343,-4.9409,-4.4225,-4.4005,-4.4005,-4.4005,-4.4005,-4.4005,-4.4005,-4.4005,-4.4005,-4.4005,-4.4005,-4.4005,-4.4005,-4.4005,-4.4005,-4.4005,-4.4005,-4.4005,-4.4005,-4.4005,-4.4005,-4.4005,-4.4005,-4.4005,-4.4005,-4.4005,-4.4005,-4.4005,-4.4005,-4.4005,-4.3828,-4.3474,-4.3457,-4.3408,-4.3268,-4.3339,-4.3178,-4.2845,-4.2903,-4.2941,-4.2941,-4.3283,-4.3474,-4.3491,-4.3809,-4.4005,-4.4005,-4.4005,-4.4005,-4.4005,-4.4005,-4.4005,-4.3986,-4.3412,-4.3044,0.0,-4.2399,0.0,0.0,0.0,0.0,0.0,0.0,0.0,0.0,-4.4397,-4.4387,-4.43,-4.4285,-4.4341,-4.442,-4.464,-4.504,-4.5648,-4.6518,-4.7114,-4.7242,-4.7922,-4.8344,-4.8306,-4.8324,-4.8324,-4.8324,-4.8324,-4.8306,-4.8382,-4.8401,-4.8401,-4.8287,-4.8015,-4.7897,-4.8209,-4.7917,-4.7997,-4.8364,-4.8696,-4.889,-4.889,-4.889,-4.889,-4.889,-4.889,-4.889,-4.889,-4.889,-4.889,-4.889,-4.889,-4.889,-4.8909,-4.8996,-4.91,-4.9164,-4.9228,-4.9292,-4.4033,-4.4005,-4.4005,-4.4005,-4.4005,-4.4005,-4.4005,-4.4005,-4.4005,-4.4005,-4.4005,-4.4005,-4.4005,-4.4005,-4.4005,-4.4005,-4.4005,-4.4005,-4.4005,-4.4005,-4.4005,-4.4005,-4.4005,-4.4005,-4.4005,-4.4005,-4.4005,-4.4005,-4.4005,-4.4005,-4.3942,-4.3814,-4.3798,-4.3786,-4.3686,0.0,0.0,0.0,-4.3732,-4.3777,-4.3777,-4.386,-4.3892,-4.3892,-4.3955,0.0,-4.4005,-4.4005,-4.4005,-4.4005,-4.4005,0.0,0.0,0.0,0.0,0.0,0.0,0.0,0.0,0.0,0.0,0.0,-4.4205,-4.4276,-4.4468,-4.4444,-4.4368,-4.43,-4.4259,-4.4463,-4.5053,-4.5159,-4.5739,-4.7105,-4.7446,-4.7804,-4.8451,-4.8693,-4.866,-4.8344,-4.8324,-4.8324,-4.8306,-4.8324,-4.8439,-4.8695,-4.8785,-4.8642,-4.8344,-4.8229,-4.8073,-4.7836,-4.7955,-4.8307,-4.8714,-4.882,-4.889,-4.889,-4.889,-4.889,-4.889,-4.889,-4.889,-4.889,-4.889,-4.889,-4.889,-4.889,-4.889,-4.889,-4.8926,-4.8979,-4.9083,-4.9164,-4.9211,-4.4624,0.0,-4.4005,-4.4005,0.0,-4.4005,-4.4005,-4.4005,-4.4005,-4.4005,-4.4005,-4.4005,-4.4005,-4.4005,-4.4005,-4.4005,-4.4005,-4.4005,-4.4005,-4.4005,-4.4005,-4.4005,-4.4005,-4.4005,-4.4005,-4.4005,-4.4005,-4.4005,-4.4005,-4.4005,-4.3989,-4.3942,-4.3942,-4.3929,-4.3897,-4.391,-4.3929,-4.3897,-4.3958,-4.4005,-4.4005,-4.4005,-4.4005,-4.4005,0.0,0.0,0.0,0.0,0.0,0.0,0.0,0.0,0.0,0.0,0.0,-4.3569,-4.3643,-4.3687,-4.365,-4.3712,-4.3928,-4.4302,-4.434,-4.4354,-4.4401,-4.4344,-4.4252,-4.418,-4.4507,-4.4888,-4.5284,-4.579,-4.657,-4.7575,-4.7881,-4.8181,-4.8532,-4.8605,-4.8532,-4.8363,-4.8324,-4.8363,-4.855,-4.8569,-4.8678,-4.8855,-4.889,-4.875,-4.8382,-4.8324,-4.8132,-4.7695,-4.7995,-4.8363,-4.8569,-4.8804,-4.889,-4.889,-4.889,-4.889,-4.889,-4.889,-4.889,-4.889,-4.889,-4.889,-4.889,-4.889,-4.889,-4.889,-4.889,-4.889,-4.8996,-4.9064,-4.915,-4.5524,-4.4451,-4.4432,-4.4432,-4.4432,-4.4283,-4.4228,-4.4209,0.0,0.0,0.0,-4.4005,-4.4005,-4.4005,-4.4005,-4.4005,-4.4005,-4.4005,-4.4005,-4.4005,-4.4005,-4.4005,-4.4005,-4.4005,-4.4005,-4.4005,-4.4005,-4.4005,-4.4005,-4.4005,-4.4005,-4.4005,-4.4005,-4.4005,-4.4005,-4.4005,-4.4005,-4.4005,-4.4005,-4.4005,-4.4005,-4.4005,-4.4005,-4.4005,-4.4005,-4.4005,-4.4005,-4.4005,-4.4005,-4.4005,-4.4005,-4.4005,-4.4005,-4.4005,-4.4036,-4.4169,-4.4184,-4.4214,-4.4255,-4.427,-4.427,-4.427,-4.427,-4.4285,-4.43,-4.4375,-4.4373,-4.4259,-4.5024,-4.5565,-4.5714,-4.6538,-4.7352,-4.7853,-4.8218,-4.8402,-4.842,-4.842,-4.8439,-4.8401,-4.842,-4.8532,-4.882,-4.8873,-4.889,-4.889,-4.889,-4.8785,-4.8476,-4.8249,-4.8073,-4.7856,-4.8075,-4.8325,-4.8458,-4.8678,-4.8873,-4.889,-4.889,-4.889,-4.889,-4.889,-4.889,-4.889,-4.889,-4.889,-4.889,-4.889,-4.889,-4.889,-4.889,-4.889,-4.889,-4.8979,-4.9049,-4.654,-4.6141,-4.6141,-4.6141,-4.6085,-4.5417,-4.5119,-4.5045,-4.4339,-4.4005,-4.4005,-4.4005,-4.4005,-4.4005,-4.4005,-4.4005,-4.4005,-4.4005,-4.4005,0.0,-4.4005,-4.4005,-4.4005,-4.4005,-4.4005,-4.4005,-4.4005,-4.4005,-4.4005,-4.4005,-4.4005,-4.4005,-4.4005,-4.4005,-4.4005,-4.4005,-4.4005,-4.4005,-4.4005,-4.4005,-4.4005,-4.4005,-4.4005,-4.4005,-4.4005,-4.4005,-4.4005,-4.4005,-4.4005,-4.4005,-4.4005,-4.4005,-4.4005,-4.4005,-4.4005,-4.4039,-4.4153,-4.415,-4.4051,-4.415,-4.4233,-4.4214,-4.4214,-4.4244,-4.4304,-4.4897,-4.5227,-4.5249,-4.5892,-4.6624,-4.7274,-4.7502,-4.7894,-4.8576,-4.8764,-4.8803,-4.8785,-4.8785,-4.8804,-4.8785,-4.8839,-4.8803,-4.8873,-4.889,-4.889,-4.889,-4.889,-4.8855,-4.8695,-4.8174,-4.7897,-4.8094,-4.8248,-4.8439,-4.8696,-4.8838,-4.889,-4.889,-4.889,-4.889,-4.889,-4.889,-4.889,-4.889,-4.889,-4.889,-4.889,-4.889,-4.889,-4.889,-4.889,-4.889,-4.889,-4.8926,-4.8945,-4.7381,-4.671,-4.6557,-4.6513,-4.6475,-4.6104,-4.5937,-4.59,-4.5528,-4.5342,-4.5342,-4.5342,-4.5342,-4.5361,-4.5361,-4.5342,-4.5342,-4.5342,-4.5119,-4.4711,-4.4711,-4.4432,-4.4042,-4.4005,-4.4005,-4.4005,-4.4005,-4.4005,-4.4005,-4.4005,-4.4005,-4.4005,-4.4005,-4.4005,-4.4005,-4.4005,-4.4005,-4.4005,-4.4005,-4.4005,-4.4005,-4.4005,-4.4005,-4.4005,-4.4005,-4.4005,-4.4005,-4.4005,-4.4005,-4.4005,-4.4005,-4.4005,-4.4005,-4.4005,-4.4005,-4.4005,-4.4055,-4.4051,-4.4005,-4.4055,-4.4309,-4.4755,-4.4792,-4.5013,-4.5453,-4.5385,-4.5518,-4.5983,-4.6696,-4.7293,-4.7683,-4.8073,-4.85,-4.8872,-4.889,-4.889,-4.889,-4.889,-4.889,-4.889,-4.889,-4.889,-4.889,-4.889,-4.889,-4.889,-4.889,-4.889,-4.889,-4.8569,-4.8365,-4.8569,-4.8624,-4.8696,-4.8855,-4.889,-4.889,-4.889,-4.889,-4.889,-4.889,-4.889,-4.889,-4.889,-4.889,-4.889,-4.889,-4.889,-4.889,-4.889,-4.889,-4.889,-4.889,-4.889,-4.889,-4.8372,-4.7439,-4.7239,-4.7004,-4.6773,-4.6754,-4.6773,-4.6773,-4.6773,-4.6865,-4.6995,-4.668,-4.6513,-4.6513,-4.6513,-4.6513,-4.6513,-4.6513,-4.6141,-4.5602,-4.5565,-4.5212,-4.4618,-4.4562,-4.4562,-4.4525,-4.4376,-4.4302,-4.4265,-4.4116,-4.4005,-4.4005,-4.4005,-4.4005,-4.4005,-4.4005,-4.4005,-4.4005,-4.4005,-4.4005,-4.4005,-4.4005,-4.4005,-4.4005,-4.4005,-4.4005,-4.4005,-4.4005,-4.4005,-4.4005,-4.4005,-4.4005,-4.4005,-4.4005,-4.4005,-4.4005,-4.4005,-4.4098,-4.4283,-4.4302,-4.4674,-4.5472,-4.5565,-4.5918,-4.6605,-4.6215,-4.6085,-4.6735,-4.7497,-4.798,-4.8073,-4.85,-4.889,-4.889,-4.889,-4.889,-4.889,-4.889,-4.889,-4.889,-4.889,-4.889,-4.889,-4.889,-4.889,-4.889,-4.889,-4.889,-4.889,-4.889,-4.889,-4.889,-4.889,-4.8873,-4.889,-4.889,-4.889,-4.889,-4.889,-4.889,-4.889,-4.889,-4.889,-4.889,-4.889,-4.889,-4.889,-4.889,-4.889,-4.889,-4.889,-4.889,-4.889,-4.889,-4.889,-4.9746,-4.9213,-4.9096,-4.8538,-4.7642,-4.7588,-4.7623,-4.7607,-4.759,-4.7999,-4.8461,-4.7144,-4.6568,-4.6513,-4.6568,-4.6587,-4.6587,-4.6513,-4.6494,-4.6401,-4.6382,-4.6345,-4.6178,-4.6234,-4.6271,-4.6122,-4.5509,-4.5157,-4.5119,-4.4432,-4.4042,-4.4005,-4.4005,-4.4079,-4.4042,-4.4061,-4.4042,-4.4005,-4.4005,-4.4005,-4.4005,-4.4005,-4.4005,-4.4005,-4.4005,-4.4005,-4.4005,-4.4005,-4.4005,-4.4005,-4.4005,-4.4005,-4.4005,-4.4005,-4.4005,-4.4042,-4.4042,-4.4339,-4.5082,-4.5194,-4.5528,-4.6271,-4.6401,-4.6735,-4.7497,-4.7497,-4.7478,-4.7701,-4.8333,-4.8704,-4.8779,-4.8853,-4.889,-4.889,-4.889,-4.889,-4.889,-4.889,-4.889,-4.889,-4.889,-4.889,-4.889,-4.889,-4.889,-4.889,-4.889,-4.889,-4.889,-4.889,-4.889,-4.889,-4.889,-4.889,-4.889,-4.889,-4.889,-4.889,-4.889,-4.889,-4.889,-4.889,-4.889,-4.889,-4.889,-4.889,-4.889,-4.889,-4.889,-4.889,-4.889,-4.889,-4.889,-4.889,-4.889,-5.0145,-4.9905,-4.9735,-4.9361,-4.8976,-4.8923,-4.8923,-4.8927,-4.8765,-4.8894,-4.9067,-4.8286,-4.7924,-4.7906,-4.7924,-4.7924,-4.7924,-4.7924,-4.7646,-4.7237,-4.7218,-4.6958,-4.6531,-4.6513,-4.6513,-4.6494,-4.616,-4.5992,-4.5937,-4.5639,-4.5472,-4.5491,-4.5491,-4.5472,-4.5472,-4.5472,-4.5472,-4.5472,-4.5472,-4.5491,-4.5361,-4.4488,-4.4005,-4.4005,-4.4005,-4.4005,-4.4005,-4.4005,-4.4005,-4.4005,-4.4005,-4.4005,-4.4005,-4.4488,-4.4766,-4.4804,-4.5231,-4.5621,-4.5992,-4.6011,-4.6364,-4.7163,-4.72,-4.7553,-4.8314,-4.8407,-4.8407,-4.8444,-4.8723,-4.889,-4.889,-4.889,-4.889,-4.889,-4.889,-4.889,-4.889,-4.889,-4.889,-4.889,-4.889,-4.889,-4.889,-4.889,-4.889,-4.889,-4.889,-4.889,-4.889,-4.889,-4.889,-4.889,-4.889,-4.889,-4.889,-4.889,-4.889,-4.889,-4.889,-4.889,-4.889,-4.889,-4.889,-4.889,-4.889,-4.889,-4.889,-4.889,-4.889,-4.889,-4.889,-4.889,-4.889,-4.889,-4.889,-5.0425,-5.027,-4.9968,-4.983,-4.9803,-4.9803,-4.9803,-4.9776,-4.9514,-4.9415,-4.9349,-4.9044,-4.889,-4.889,-4.889,-4.889,-4.889,-4.889,-4.8593,-4.8073,-4.8017,-4.772,-4.7181,-4.7144,-4.7163,-4.7107,-4.694,-4.6698,-4.655,-4.6513,-4.6513,-4.6513,-4.6513,-4.6513,-4.6513,-4.6513,-4.6513,-4.6494,-4.6513,-4.6513,-4.6327,-4.5305,-4.4692,-4.4674,-4.4674,-4.4692,-4.4692,-4.4692,-4.4674,-4.4692,-4.4674,-4.4674,-4.4711,-4.5287,-4.5621,-4.5658,-4.6178,-4.6587,-4.6791,-4.6828,-4.7181,-4.7906,-4.8017,-4.8277,-4.8742,-4.889,-4.889,-4.8872,-4.889,-4.889,-4.889,-4.889,-4.889,-4.889,-4.889,-4.889,-4.889,-4.889,-4.889,-4.889,-4.889,-4.889,-4.889,-4.889,-4.889,-4.889,-4.889,-4.889,-4.889,-4.889,-4.889,-4.889,-4.889,-4.889,-4.889,-4.889,-4.889,-4.889,-4.889,-4.889,-4.889,-4.889,-4.889,-4.889,-4.889,-4.889,-4.889,-4.889,-4.889,-4.889,-4.889,-4.889,-4.889,-4.889,-4.889,-5.0681,-5.0361,-5.0037,-4.9897,-4.9817,-4.9844,-4.983,-4.9798,-4.9529,-4.9415,-4.9368,-4.9062,-4.889,-4.889,-4.889,-4.889,-4.889,-4.889,-4.8853,-4.876,-4.8797,-4.8816,-4.8816,-4.8816,-4.8742,-4.8519,-4.7943,-4.7311,-4.6643,-4.6587,-4.6513,-4.6568,-4.6643,-4.6568,-4.6643,-4.668,-4.655,-4.668,-4.668,-4.6587,-4.6568,-4.6457,-4.6382,-4.6382,-4.6345,-4.6271,-4.6308,-4.6345,-4.6345,-4.6364,-4.6271,-4.6327,-4.6345,-4.6401,-4.6438,-4.6494,-4.6531,-4.6884,-4.7534,-4.7646,-4.798,-4.8649,-4.876,-4.8853,-4.8872,-4.889,-4.8909,-4.889,-4.889,-4.889,-4.889,-4.889,-4.889,-4.889,-4.889,-4.889,-4.889,-4.889,-4.889,-4.889,-4.889,-4.889,-4.889,-4.889,-4.889,-4.889,-4.889,-4.889,-4.889,-4.889,-4.889,-4.889,-4.889,-4.889,-4.889,-4.889,-4.889,-4.889,-4.889,-4.889,-4.889,-4.889,-4.889,-4.889,-4.889,-4.889,-4.889,-4.889,-4.889,-4.889,-4.889,-4.889,-4.889,-4.889,-4.889,-5.081,-5.0634,-5.0528,-5.0436,-5.0383,-5.0383,-5.0272,-5.0019,-4.9776,-4.9539,-4.9349,-4.9044,-4.889,-4.889,-4.889,-4.889,-4.889,-4.889,-4.889,-4.889,-4.889,-4.889,-4.889,-4.889,-4.889,-4.8853,-4.8612,-4.8333,-4.8073,-4.8036,-4.8036,-4.8036,-4.8017,-4.8036,-4.8036,-4.8036,-4.8036,-4.8036,-4.8036,-4.8036,-4.798,-4.8036,-4.8036,-4.798,-4.7014,-4.6513,-4.6513,-4.6513,-4.6513,-4.6513,-4.6513,-4.6513,-4.655,-4.6995,-4.7497,-4.798,-4.8036,-4.8166,-4.8426,-4.8481,-4.8574,-4.8853,-4.8979,-4.8979,-4.8926,-4.8979,-4.8996,-4.8926,-4.889,-4.889,-4.889,-4.889,-4.889,-4.889,-4.889,-4.889,-4.889,-4.889,-4.889,-4.889,-4.889,-4.889,-4.889,-4.889,-4.889,-4.889,-4.889,-4.889,-4.889,-4.889,-4.889,-4.889,-4.889,-4.889,-4.889,-4.889,-4.889,-4.889,-4.889,-4.889,-4.889,-4.889,-4.889,-4.889,-4.889,-4.889,-4.889,-4.889,-4.889,-4.889,-4.889,-4.889,-4.889,-4.889,-4.889,-5.088,-5.0846,-5.0838,-5.0784,-5.0701,-5.0692,-5.0576,-5.0317,-5.0043,-4.9776,-4.9514,-4.9206,-4.901,-4.889,-4.889,-4.889,-4.889,-4.889,-4.889,-4.889,-4.889,-4.889,-4.889,-4.889,-4.889,-4.889,-4.889,-4.889,-4.889,-4.889,-4.889,-4.8872,-4.889,-4.889,-4.889,-4.889,-4.889,-4.889,-4.889,-4.889,-4.889,-4.889,-4.889,-4.8742,-4.7831,-4.7274,-4.7274,-4.7274,-4.7274,-4.7274,-4.7274,-4.7274,-4.7348,-4.7794,-4.8314,-4.8816,-4.8872,-4.889,-4.889,-4.889,-4.889,-4.8909,-4.9015,-4.9032,-4.8926,-4.9032,-4.9032,-4.8926,-4.889,-4.889,-4.889,-4.889,-4.889,-4.889,-4.889,-4.889,-4.889,-4.889,-4.889,-4.889,-4.889,-4.889,-4.889,-4.889,-4.889,-4.889,-4.889,-4.889,-4.889,-4.889,-4.889,-4.889,-4.889,-4.889,-4.889,-4.889,-4.889,-4.889,-4.889,-4.889,-4.889,-4.889,-4.889,-4.889,-4.8909,-4.8909,-4.8909,-4.8909,-4.8946,-4.8964,-4.889,-4.889,-4.889,-4.889,-4.902,-5.0893,-5.0899,-5.0899,-5.081,-5.071,-5.071,-5.0692,-5.0565,-5.0294,-4.9981,-4.9679,-4.9488,-4.9193,-4.8942,-4.889,-4.889,-4.889,-4.889,-4.889,-4.889,-4.889,-4.889,-4.889,-4.889,-4.889,-4.889,-4.889,-4.889,-4.889,-4.889,-4.889,-4.889,-4.889,-4.889,-4.889,-4.889,-4.889,-4.889,-4.889,-4.889,-4.889,-4.889,-4.889,-4.889,-4.876,-4.8704,-4.8779,-4.876,-4.8686,-4.8723,-4.876,-4.8853,-4.8704,-4.8779,-4.8872,-4.8872,-4.889,-4.889,-4.889,-4.889,-4.8909,-4.8926,-4.9032,-4.9049,-4.8979,-4.9032,-4.9049,-4.8926,-4.889,-4.889,-4.889,-4.889,-4.889,-4.889,-4.889,-4.889,-4.889,-4.889,-4.889,-4.889,-4.889,-4.889,-4.889,-4.889,-4.889,-4.889,-4.889,-4.889,-4.889,-4.889,-4.889,-4.889,-4.889,-4.889,-4.889,-4.889,-4.889,-4.889,-4.889,-4.889,-4.889,-4.889,-4.889,-4.8909,-4.9224,-4.9243,-4.9373,-4.9392,-4.9522,-4.9522,-4.9262,-4.9299,-4.9485,-4.9633,-4.941,-5.0909,-5.0901,-5.0901,-5.0852,-5.0784,-5.0756,-5.0635,-5.0369,-5.0249,-4.9949,-4.9573,-4.9442,-4.9225,-4.8959,-4.889,-4.889,-4.889,-4.889,-4.889,-4.889,-4.889,-4.889,-4.889,-4.889,-4.889,-4.889,-4.889,-4.889,-4.889,-4.889,-4.889,-4.889,-4.889,-4.889,-4.889,-4.889,-4.889,-4.889,-4.889,-4.889,-4.889,-4.889,-4.889,-4.889,-4.889,-4.889,-4.889,-4.889,-4.889,-4.889,-4.889,-4.889,-4.889,-4.889,-4.889,-4.889,-4.889,-4.889,-4.889,-4.889,-4.8962,-4.9032,-4.9116,-4.9133,-4.9066,-4.9116,-4.9081,-4.8943,-4.889,-4.889,-4.889,-4.889,-4.889,-4.889,-4.889,-4.889,-4.889,-4.889,-4.889,-4.889,-4.889,-4.889,-4.889,-4.889,-4.889,-4.889,-4.889,-4.889,-4.889,-4.889,-4.889,-4.889,-4.889,-4.889,-4.889,-4.889,-4.889,-4.889,-4.889,-4.889,-4.889,-4.9094,-4.9057,-4.9262,-4.954,-4.9726,-4.9837,-4.9986,-5.0172,-5.0432,-5.0506,-5.0562,-5.0618,-5.0469,-5.0209,-5.0898,-5.0898,-5.0898,-5.0885,-5.0827,-5.0838,-5.0682,-5.0404,-5.0383,-5.0116,-4.9754,-4.9602,-4.9396,-4.9092,-4.8978,-4.889,-4.889,-4.889,-4.889,-4.889,-4.889,-4.889,-4.889,-4.889,-4.889,-4.889,-4.889,-4.889,-4.889,-4.889,-4.889,-4.889,-4.889,-4.889,-4.889,-4.889,-4.889,-4.889,-4.889,-4.889,-4.889,-4.889,-4.889,-4.889,-4.889,-4.889,-4.889,-4.889,-4.889,-4.889,-4.889,-4.889,-4.889,-4.889,-4.889,-4.889,-4.889,-4.889,-4.889,-4.889,-4.8943,-4.9066,-4.9148,-4.9164,-4.9116,-4.9166,-4.9096,-4.8925,-4.889,-4.889,-4.889,-4.889,-4.889,-4.889,-4.889,-4.889,-4.889,-4.889,-4.889,-4.889,-4.889,-4.889,-4.889,-4.889,-4.889,-4.889,-4.889,-4.889,-4.889,-4.889,-4.889,-4.889,-4.889,-4.889,-4.889,-4.889,-4.889,-4.889,-4.889,-4.889,-4.889,-4.9392,-4.9596,-5.0135,-5.0506,-5.0562,-5.0673,-5.0859,-5.1063,-5.1361,-5.1546,-5.1249,-5.1045,-5.1138,-5.0971,-5.0898,-5.0898,-5.0898,-5.0901,-5.0899,-5.0899,-5.0793,-5.0692,-5.0682,-5.0457,-5.0159,-4.987,-4.9627,-4.9349,-4.9044,-4.889,-4.889,-4.889,-4.889,-4.889,-4.889,-4.889,-4.889,-4.889,-4.889,-4.889,-4.889,-4.889,-4.889,-4.889,-4.889,-4.889,-4.889,-4.889,-4.889,-4.889,-4.889,-4.889,-4.889,-4.889,-4.889,-4.889,-4.889,-4.889,-4.889,-4.889,-4.889,-4.889,-4.889,-4.889,-4.889,-4.889,-4.889,-4.889,-4.889,-4.889,-4.889,-4.889,-4.889,-4.889,-4.8962,-4.9066,-4.9166,-4.9164,-4.9116,-4.9166,-4.9131,-4.8907,-4.889,-4.889,-4.889,-4.889,-4.889,-4.889,-4.889,-4.889,-4.889,-4.889,-4.889,-4.889,-4.889,-4.889,-4.889,-4.889,-4.889,-4.889,-4.889,-4.889,-4.889,-4.889,-4.889,-4.889,-4.889,-4.889,-4.8909,-4.9299,-4.9336,-4.9429,-4.9447,-4.9522,-4.941,-4.9856,-5.0283,-5.0822,-5.1361,-5.1435,-5.1584,-5.1788,-5.1918,-5.2104,-5.1992,-5.1602,-5.1676,-5.1936,-5.1974,-5.0898,-5.0898,-5.0898,-5.0901,-5.0899,-5.0899,-5.081,-5.0701,-5.0701,-5.0517,-5.0195,-4.9904,-4.9655,-4.938,-4.9061,-4.889,-4.889,-4.889,-4.889,-4.889,-4.889,-4.889,-4.889,-4.889,-4.889,-4.889,-4.889,-4.889,-4.889,-4.889,-4.889,-4.889,-4.889,-4.889,-4.889,-4.889,-4.889,-4.889,-4.889,-4.889,-4.889,-4.889,-4.889,-4.889,-4.889,-4.889,-4.889,-4.889,-4.889,-4.889,-4.889,-4.889,-4.889,-4.889,-4.889,-4.889,-4.889,-4.889,-4.889,-4.889,-4.8943,-4.9066,-4.9166,-4.9164,-4.9118,-4.9148,-4.9115,-4.896,-4.889,-4.889,-4.889,-4.889,-4.889,-4.889,-4.889,-4.889,-4.889,-4.889,-4.889,-4.889,-4.889,-4.889,-4.889,-4.889,-4.889,-4.889,-4.889,-4.889,-4.889,-4.889,-4.889,-4.889,-4.889,-4.889,-4.9039,-4.9522,-4.9837,-5.0005,-5.0209,-5.0562,-5.0488,-5.0599,-5.0952,-5.1342,-5.2029,-5.2289,-5.2531,-5.2772,-5.2847,-5.281,-5.2902,-5.2791,-5.3032,-5.3255,-5.3162,-5.0898,-5.0898,-5.0898,-5.0909,-5.0905,-5.0905,-5.0844,-5.0784,-5.0738,-5.0547,-5.0222,-4.9949,-4.9655,-4.938,-4.9174,-4.9027,-4.8943,-4.9044,-4.9027,-4.889,-4.889,-4.889,-4.889,-4.889,-4.889,-4.889,-4.889,-4.889,-4.889,-4.889,-4.889,-4.889,-4.889,-4.889,-4.889,-4.889,-4.889,-4.889,-4.889,-4.889,-4.889,-4.889,-4.889,-4.889,-4.889,-4.889,-4.889,-4.889,-4.889,-4.889,-4.889,-4.889,-4.889,-4.889,-4.889,-4.889,-4.889,-4.889,-4.889,-4.889,-4.8978,-4.9116,-4.9166,-4.9131,-4.9133,-4.9166,-4.91,-4.8943,-4.889,-4.889,-4.889,-4.889,-4.889,-4.889,-4.889,-4.889,-4.889,-4.889,-4.889,-4.889,-4.889,-4.889,-4.889,-4.889,-4.889,-4.889,-4.889,-4.889,-4.889,-4.889,-4.8946,-4.9002,-4.9076,-4.915,-4.9485,-4.9968,-5.0599,-5.0785,-5.1212,-5.1546,-5.1546,-5.1546,-5.1899,-5.2308,-5.2791,-5.3125,-5.3255,-5.3385,-5.3441,-5.3515,-5.3775,-5.3813,-5.3813,-5.3813,-5.3813,-5.0898,-5.0898,-5.0898,-5.0898,-5.0898,-5.0898,-5.0893,-5.0891,-5.081,-5.0635,-5.032,-4.9968,-4.974,-4.9488,-4.9393,-4.9239,-4.9044,-4.9273,-4.9127,-4.8976,-4.889,-4.889,-4.889,-4.889,-4.889,-4.889,-4.889,-4.889,-4.889,-4.889,-4.889,-4.889,-4.889,-4.889,-4.889,-4.889,-4.889,-4.889,-4.889,-4.889,-4.889,-4.889,-4.889,-4.889,-4.889,-4.889,-4.889,-4.889,-4.889,-4.889,-4.889,-4.889,-4.889,-4.889,-4.889,-4.889,-4.889,-4.889,-4.889,-4.8909,-4.8978,-4.9131,-4.9135,-4.9135,-4.915,-4.9133,-4.9049,-4.8909,-4.889,-4.889,-4.889,-4.889,-4.889,-4.889,-4.889,-4.889,-4.889,-4.889,-4.889,-4.889,-4.889,-4.889,-4.889,-4.889,-4.889,-4.889,-4.889,-4.889,-4.889,-4.889,-4.9057,-4.9262,-4.9355,-4.9466,-4.993,-5.0469,-5.1156,-5.1695,-5.2271,-5.2605,-5.2605,-5.2698,-5.3051,-5.3367,-5.3404,-5.3478,-5.3627,-5.3738,-5.3813,-5.3813,-5.3813,-5.3813,-5.3813,-5.3813,-5.3813,-5.0898,-5.0898,-5.0898,-5.0898,-5.0898,-5.0898,-5.0893,-5.0899,-5.0838,-5.07,-5.0498,-5.0031,-4.991,-4.9968,-4.9612,-4.9454,-4.9495,-4.9442,-4.9225,-4.8925,-4.889,-4.889,-4.889,-4.889,-4.889,-4.889,-4.889,-4.889,-4.889,-4.889,-4.889,-4.889,-4.889,-4.889,-4.889,-4.889,-4.889,-4.889,-4.889,-4.889,-4.889,-4.889,-4.889,-4.889,-4.889,-4.889,-4.889,-4.889,-4.889,-4.889,-4.889,-4.889,-4.889,-4.889,-4.889,-4.889,-4.889,-4.889,-4.889,-4.8909,-4.8962,-4.9083,-4.9135,-4.9101,-4.9118,-4.91,-4.9049,-4.8926,-4.889,-4.889,-4.889,-4.889,-4.889,-4.889,-4.889,-4.889,-4.889,-4.889,-4.889,-4.889,-4.889,-4.889,-4.889,-4.889,-4.889,-4.889,-4.889,-4.889,-4.8964,-4.902,-4.9373,-4.9745,-4.9949,-5.019,-5.0896,-5.1435,-5.2048,-5.2475,-5.2977,-5.3311,-5.3311,-5.3367,-5.3534,-5.3645,-5.372,-5.3813,-5.3813,-5.3813,-5.3813,-5.3813,-5.3813,-5.3813,-5.3813,-5.3813,-5.3813,-5.0898,-5.0898,-5.0898,-5.0898,-5.0898,-5.0898,-5.0909,-5.0877,-5.0827,-5.071,-5.0517,-5.0128,-5.0006,-5.0006,-4.9844,-4.9749,-4.9539,-4.9318,-4.9077,-4.8926,-4.889,-4.889,-4.889,-4.889,-4.889,-4.889,-4.889,-4.889,-4.889,-4.889,-4.889,-4.889,-4.889,-4.889,-4.889,-4.889,-4.889,-4.889,-4.889,-4.889,-4.889,-4.889,-4.889,-4.889,-4.889,-4.889,-4.889,-4.889,-4.889,-4.889,-4.889,-4.889,-4.889,-4.889,-4.889,-4.889,-4.889,-4.889,-4.8909,-4.8962,-4.9032,-4.9084,-4.9135,-4.9168,-4.915,-4.915,-4.91,-4.9032,-4.8979,-4.8979,-4.889,-4.889,-4.889,-4.889,-4.889,-4.889,-4.889,-4.889,-4.889,-4.889,-4.889,-4.889,-4.889,-4.889,-4.889,-4.889,-4.8964,-4.902,-4.9596,-4.9707,-5.0098,-5.0432,-5.0636,-5.1063,-5.1844,-5.2494,-5.3051,-5.3311,-5.346,-5.3627,-5.3627,-5.3683,-5.3775,-5.3813,-5.3813,-5.3813,-5.3813,-5.3813,-5.3813,-5.3813,-5.3813,-5.3813,-5.3813,-5.3813,-5.3813,-5.0898,-5.0898,-5.0898,-5.0898,-5.0898,-5.0898,-5.0898,-5.0909,-5.0844,-5.071,-5.0457,-5.0286,-5.0104,-5.0025,-5.0111,-4.9897,-4.9529,-4.9193,-4.9027,-4.8926,-4.889,-4.889,-4.889,-4.889,-4.889,-4.889,-4.889,-4.889,-4.889,-4.889,-4.889,-4.889,-4.889,-4.889,-4.889,-4.889,-4.889,-4.889,-4.889,-4.889,-4.889,-4.889,-4.889,-4.889,-4.889,-4.889,-4.889,-4.889,-4.889,-4.889,-4.889,-4.889,-4.889,-4.889,-4.889,-4.889,-4.889,-4.889,-4.8926,-4.8996,-4.9101,-4.9118,-4.9166,-4.9214,-4.9214,-4.9197,-4.9166,-4.91,-4.9049,-4.8996,-4.8926,-4.8909,-4.889,-4.889,-4.889,-4.889,-4.889,-4.889,-4.889,-4.889,-4.889,-4.889,-4.889,-4.889,-4.889,-4.8946,-4.9039,-4.9299,-4.9893,-5.045,-5.0822,-5.1231,-5.1491,-5.1918,-5.2679,-5.294,-5.3571,-5.3701,-5.3813,-5.3813,-5.3813,-5.3813,-5.3813,-5.3813,-5.3813,-5.3813,-5.3813,-5.3813,-5.3813,-5.3813,-5.3813,-5.3813,-5.3813,-5.3813,-5.3813,-5.0898,-5.0898,-5.0898,-5.0898,-5.0898,-5.0898,-5.0898,-5.0909,-5.0888,-5.0819,-5.0701,-5.0436,-5.0383,-5.0432,-5.026,-5.0006,-4.9693,-4.9362,-4.911,-4.8943,-4.889,-4.889,-4.889,-4.889,-4.889,-4.889,-4.889,-4.889,-4.889,-4.889,-4.889,-4.889,-4.889,-4.889,-4.889,-4.889,-4.889,-4.889,-4.889,-4.889,-4.889,-4.889,-4.889,-4.889,-4.889,-4.889,-4.889,-4.889,-4.889,-4.889,-4.889,-4.889,-4.889,-4.889,-4.889,-4.889,-4.889,-4.889,-4.8926,-4.9032,-4.9116,-4.9164,-4.9197,-4.9228,-4.9244,-4.9228,-4.9197,-4.9098,-4.903,-4.8979,-4.9068,-4.8996,-4.8926,-4.889,-4.8926,-4.8926,-4.8909,-4.8909,-4.8909,-4.8909,-4.8909,-4.8909,-4.8927,-4.9039,-4.9187,-4.9429,-4.9726,-5.0005,-5.0506,-5.1063,-5.1565,-5.1974,-5.2382,-5.2884,-5.3478,-5.3534,-5.3757,-5.3757,-5.3813,-5.3813,-5.3813,-5.3813,-5.3813,-5.3813,-5.3813,-5.3813,-5.3813,-5.3813,-5.3813,-5.3813,-5.3813,-5.3813,-5.3813,-5.3813,-5.3813,-5.0898,-5.0898,-5.0898,-5.0898,-5.0898,-5.0898,-5.0898,-5.0909,-5.0897,-5.0874,-5.0766,-5.0606,-5.0576,-5.0634,-5.0554,-5.0225,-4.979,-4.9331,-4.9061,-4.889,-4.889,-4.889,-4.889,-4.889,-4.889,-4.889,-4.889,-4.889,-4.889,-4.889,-4.889,-4.889,-4.889,-4.889,-4.889,-4.889,-4.889,-4.889,-4.889,-4.889,-4.889,-4.889,-4.889,-4.889,-4.889,-4.889,-4.889,-4.889,-4.889,-4.889,-4.889,-4.889,-4.889,-4.889,-4.889,-4.889,-4.889,-4.8909,-4.8926,-4.9015,-4.9118,-4.9168,-4.9214,-4.926,-4.9308,-4.9327,-4.9279,-4.9195,-4.9131,-4.9098,-4.915,-4.9079,-4.9062,-4.9062,-4.9046,-4.9047,-4.9015,-4.8996,-4.9018,-4.902,-4.9039,-4.9039,-4.9002,-4.9187,-4.9466,-4.9856,-5.0339,-5.0766,-5.1175,-5.1714,-5.2289,-5.2679,-5.3051,-5.3274,-5.3701,-5.3738,-5.3813,-5.3813,-5.3813,-5.3813,-5.3813,-5.3813,-5.3813,-5.3813,-5.3813,-5.3813,-5.3813,-5.3813,-5.3813,-5.3813,-5.3813,-5.3813,-5.3813,-5.3813,-5.3813,-5.0898,-5.0898,-5.0898,-5.0898,-5.0898,-5.0898,-5.0898,-5.0909,-5.0905,-5.0872,-5.081,-5.0757,-5.0702,-5.0644,-5.0504,-5.0221,-4.9749,-4.9188,-4.8925,-4.889,-4.889,-4.889,-4.889,-4.889,-4.889,-4.889,-4.889,-4.889,-4.889,-4.889,-4.889,-4.889,-4.889,-4.889,-4.889,-4.889,-4.889,-4.889,-4.889,-4.889,-4.889,-4.889,-4.889,-4.889,-4.889,-4.889,-4.889,-4.889,-4.889,-4.889,-4.889,-4.8909,-4.8945,-4.8962,-4.8943,-4.896,-4.8925,-4.8943,-4.8995,-4.9081,-4.9166,-4.9183,-4.9279,-4.9308,-4.934,-4.9393,-4.939,-4.9324,-4.9228,-4.9195,-4.9195,-4.9195,-4.9179,-4.9179,-4.9181,-4.9183,-4.9193,-4.9235,-4.9405,-4.9371,-4.9279,-4.9373,-4.9522,-4.993,-5.0339,-5.0636,-5.1101,-5.1565,-5.1992,-5.2512,-5.3032,-5.3404,-5.3645,-5.3645,-5.3775,-5.3775,-5.3813,-5.3813,-5.3813,-5.3813,-5.3813,-5.3813,-5.3813,-5.3813,-5.3813,-5.3813,-5.3813,-5.3813,-5.3813,-5.3813,-5.3813,-5.3813,-5.3813,-5.3813,-5.3813,-5.0898,-5.0898,-5.0898,-5.0898,-5.0898,-5.0898,-5.0898,-5.0898,-5.0909,-5.0913,-5.0863,-5.0801,-5.0757,-5.0576,-5.0135,-4.991,-4.9622,-4.922,-4.889,-4.889,-4.889,-4.889,-4.889,-4.889,-4.889,-4.889,-4.889,-4.889,-4.889,-4.889,-4.889,-4.889,-4.889,-4.889,-4.889,-4.889,-4.889,-4.889,-4.889,-4.889,-4.889,-4.889,-4.889,-4.889,-4.889,-4.889,-4.889,-4.889,-4.889,-4.889,-4.8909,-4.8962,-4.9068,-4.9084,-4.9116,-4.9115,-4.9115,-4.91,-4.9129,-4.9195,-4.9244,-4.9262,-4.9377,-4.9459,-4.9459,-4.9393,-4.939,-4.9456,-4.9329,-4.9262,-4.9276,-4.9244,-4.9211,-4.9286,-4.9358,-4.9312,-4.9284,-4.9993,-5.009,-5.0299,-5.0394,-5.032,-5.0358,-5.0822,-5.1268,-5.1546,-5.1881,-5.2327,-5.2717,-5.3162,-5.3404,-5.3683,-5.3813,-5.3813,-5.3813,-5.3813,-5.3813,-5.3813,-5.3813,-5.3813,-5.3813,-5.3813,-5.3813,-5.3813,-5.3813,-5.3813,-5.3813,-5.3813,-5.3813,-5.3813,-5.3813,-5.3813,-5.3813,-5.3813,-5.3813,-5.0898,-5.0898,-5.0898,-5.0898,-5.0898,-5.0898,-5.0898,-5.0898,-5.0898,-5.0885,-5.0855,-5.081,-5.0663,-5.0383,-4.9955,-4.9707,-4.9514,-4.9127,-4.8909,-4.889,-4.889,-4.889,-4.889,-4.889,-4.889,-4.889,-4.889,-4.889,-4.889,-4.889,-4.889,-4.889,-4.889,-4.889,-4.889,-4.889,-4.889,-4.889,-4.889,-4.889,-4.889,-4.889,-4.889,-4.889,-4.889,-4.889,-4.889,-4.889,-4.889,-4.8909,-4.8962,-4.9032,-4.9101,-4.9152,-4.9181,-4.9262,-4.9246,-4.9214,-4.9195,-4.9228,-4.9276,-4.9308,-4.9374,-4.939,-4.944,-4.944,-4.9424,-4.949,-4.9409,-4.9377,-4.9393,-4.9377,-4.9377,-4.9455,-4.9795,-4.9917,-5.0075,-5.0622,-5.1072,-5.1283,-5.149,-5.1472,-5.1454,-5.1751,-5.2085,-5.2234,-5.2587,-5.3051,-5.3292,-5.3497,-5.3664,-5.3757,-5.3813,-5.3813,-5.3813,-5.3813,-5.3813,-5.3813,-5.3813,-5.3813,-5.3813,-5.3813,-5.3813,-5.3813,-5.3813,-5.3813,-5.3813,-5.3813,-5.3813,-5.3813,-5.3813,-5.3813,-5.3813,-5.3813,-5.3813,-5.0898,-5.0898,-5.0898,-5.0898,-5.0898,-5.0898,-5.0898,-5.0898,-5.0898,-5.0866,-5.0836,-5.0801,-5.0577,-5.0218,-4.9936,-4.9651,-4.9399,-4.9044,-4.8925,-4.889,-4.889,-4.889,-4.889,-4.889,-4.889,-4.889,-4.889,-4.889,-4.889,-4.889,-4.889,-4.889,-4.889,-4.889,-4.889,-4.889,-4.889,-4.889,-4.889,-4.889,-4.889,-4.889,-4.889,-4.889,-4.889,-4.889,-4.889,-4.889,-4.889,-4.8979,-4.9032,-4.9101,-4.9166,-4.9214,-4.9279,-4.9343,-4.9343,-4.9345,-4.9329,-4.9329,-4.9292,-4.9324,-4.9358,-4.9406,-4.9474,-4.9509,-4.9509,-4.9509,-4.949,-4.9474,-4.9546,-4.9624,-4.9868,-5.0169,-5.0525,-5.0724,-5.0996,-5.1548,-5.1874,-5.1991,-5.2271,-5.2735,-5.2754,-5.2828,-5.294,-5.2977,-5.3311,-5.372,-5.3794,-5.3775,-5.3794,-5.3813,-5.3813,-5.3813,-5.3813,-5.3813,-5.3813,-5.3813,-5.3813,-5.3813,-5.3813,-5.3813,-5.3813,-5.3813,-5.3813,-5.3813,-5.3813,-5.3813,-5.3813,-5.3813,-5.3813,-5.3813,-5.3813,-5.3813,-5.3813,-5.0898,-5.0898,-5.0898,-5.0898,-5.0898,-5.0898,-5.0898,-5.0898,-5.0898,-5.089,-5.0858,-5.0791,-5.0537,-5.0195,-4.9884,-4.9612,-4.9368,-4.9044,-4.8925,-4.889,-4.889,-4.889,-4.889,-4.889,-4.889,-4.889,-4.889,-4.889,-4.889,-4.889,-4.889,-4.889,-4.889,-4.889,-4.889,-4.889,-4.889,-4.889,-4.889,-4.889,-4.889,-4.889,-4.889,-4.889,-4.889,-4.889,-4.8909,-4.9002,-4.9222,-4.9328,-4.9455,-4.954,-4.9695,-4.9706,-4.9789,-4.9856,-4.9853,-4.9856,-4.9856,-4.9577,-4.9459,-4.9474,-4.9456,-4.9456,-4.949,-4.9509,-4.9509,-4.9602,-4.9734,-4.9734,-4.9884,-5.0091,-5.0541,-5.0842,-5.1239,-5.1586,-5.1932,-5.2407,-5.2713,-5.2717,-5.294,-5.3311,-5.3441,-5.3367,-5.3367,-5.3385,-5.3423,-5.3813,-5.3813,-5.3794,-5.3794,-5.3813,-5.3813,-5.3813,-5.3813,-5.3813,-5.3813,-5.3813,-5.3813,-5.3813,-5.3813,-5.3813,-5.3813,-5.3813,-5.3813,-5.3813,-5.3813,-5.3813,-5.3813,-5.3813,-5.3813,-5.3813,-5.3813,-5.3813,-5.3813,-5.0898,-5.0898,-5.0898,-5.0898,-5.0898,-5.0898,-5.0898,-5.0898,-5.0898,-5.0893,-5.0816,-5.0596,-5.0298,-4.9955,-4.9665,-4.9377,-4.911,-4.8976,-4.8907,-4.889,-4.889,-4.889,-4.889,-4.889,-4.889,-4.889,-4.889,-4.889,-4.889,-4.889,-4.889,-4.889,-4.889,-4.889,-4.889,-4.889,-4.889,-4.889,-4.889,-4.889,-4.889,-4.889,-4.889,-4.889,-4.889,-4.9206,-4.9559,-4.9633,-5.0002,-5.0351,-5.0532,-5.0596,-5.0659,-5.0724,-5.0756,-5.0807,-5.0823,-5.0842,-5.0616,-5.0128,-4.9509,-4.9509,-4.949,-4.9565,-4.9678,-4.9565,-4.9847,-5.0016,-5.0222,-5.0335,-5.1011,-5.1236,-5.1461,-5.1668,-5.1992,-5.243,-5.2774,-5.321,-5.3365,-5.3312,-5.3423,-5.3664,-5.3738,-5.3757,-5.3757,-5.3757,-5.3794,-5.3813,-5.3813,-5.3813,-5.3813,-5.3813,-5.3813,-5.3813,-5.3813,-5.3813,-5.3813,-5.3813,-5.3813,-5.3813,-5.3813,-5.3813,-5.3813,-5.3813,-5.3813,-5.3813,-5.3813,-5.3813,-5.3813,-5.3813,-5.3813,-5.3813,-5.3813,-5.3813,-5.3813,-5.0898,-5.0898,-5.0898,-5.0898,-5.0898,-5.0898,-5.0898,-5.0898,-5.0898,-5.0858,-5.0764,-5.0467,-5.0128,-4.9798,-4.9529,-4.9222,-4.8993,-4.889,-4.889,-4.889,-4.889,-4.889,-4.889,-4.889,-4.889,-4.889,-4.889,-4.889,-4.889,-4.889,-4.889,-4.889,-4.889,-4.889,-4.889,-4.889,-4.889,-4.889,-4.889,-4.889,-4.889,-4.889,-4.915,-4.9224,-4.9336,-4.9763,-5.0283,-5.0525,-5.0783,-5.1169,-5.1443,-5.1604,-5.1742,-5.1846,-5.1895,-5.1931,-5.1931,-5.1949,-5.1574,-5.1048,-5.0222,-5.0429,-5.0391,-5.0353,-5.0222,-5.0203,-5.0691,-5.0935,-5.1086,-5.1311,-5.1987,-5.2043,-5.2231,-5.2456,-5.3076,-5.3495,-5.352,-5.3787,-5.3849,-5.387,-5.3926,-5.3851,-5.3813,-5.3813,-5.3813,-5.3813,-5.3813,-5.3813,-5.3813,-5.3813,-5.3813,-5.3813,-5.3813,-5.3813,-5.3813,-5.3813,-5.3813,-5.3813,-5.3813,-5.3813,-5.3813,-5.3813,-5.3813,-5.3813,-5.3813,-5.3813,-5.3813,-5.3813,-5.3813,-5.3813,-5.3813,-5.3813,-5.3813,-5.3813,-5.3813,-5.0898,-5.0898,-5.0898,-5.0898,-5.0898,-5.0898,-5.0898,-5.0898,-5.0898,-5.0877,-5.0784,-5.0488,-5.0152,-4.9784,-4.9484,-4.9176,-4.8959,-4.889,-4.889,-4.889,-4.889,-4.889,-4.889,-4.889,-4.889,-4.889,-4.889,-4.889,-4.889,-4.889,-4.889,-4.889,-4.889,-4.889,-4.889,-4.889,-4.889,-4.889,-4.889,-4.8909,-4.9057,-4.9094,-4.9429,-4.9949,-5.0098,-5.0506,-5.1156,-5.1361,-5.1583,-5.1915,-5.2021,-5.2108,-5.2212,-5.2238,-5.2233,-5.2212,-5.2156,-5.2081,-5.1949,-5.1874,-5.178,-5.1536,-5.1292,-5.1405,-5.1668,-5.1724,-5.1686,-5.1818,-5.1893,-5.1931,-5.2268,-5.2644,-5.2982,-5.3337,-5.3921,-5.4131,-5.4099,-5.4085,-5.4109,-5.4037,-5.3982,-5.3963,-5.3851,-5.3813,-5.3813,-5.3813,-5.3813,-5.3813,-5.3813,-5.3813,-5.3813,-5.3813,-5.3813,-5.3813,-5.3813,-5.3813,-5.3813,-5.3813,-5.3813,-5.3813,-5.3813,-5.3813,-5.3813,-5.3813,-5.3813,-5.3813,-5.3813,-5.3813,-5.3813,-5.3813,-5.3813,-5.3813,-5.3813,-5.3813,-5.3813,-5.0898,-5.0898,-5.0898,-5.0898,-5.0898,-5.0898,-5.0898,-5.0898,-5.0898,-5.0885,-5.0756,-5.0325,-5.0018,-4.9725,-4.9327,-4.9046,-4.8925,-4.889,-4.889,-4.889,-4.889,-4.889,-4.889,-4.889,-4.889,-4.889,-4.889,-4.889,-4.889,-4.889,-4.889,-4.889,-4.889,-4.889,-4.889,-4.889,-4.889,-4.889,-4.8946,-4.9113,-4.9615,-4.9745,-5.0116,-5.0896,-5.0952,-5.1361,-5.2122,-5.2178,-5.2419,-5.2846,-5.2973,-5.3118,-5.3261,-5.3328,-5.3451,-5.3489,-5.3526,-5.3545,-5.3564,-5.3489,-5.2963,-5.2437,-5.2062,-5.21,-5.1931,-5.1912,-5.2175,-5.2606,-5.2738,-5.2944,-5.3564,-5.3752,-5.3977,-5.3996,-5.4298,-5.4282,-5.4268,-5.4252,-5.4219,-5.4055,-5.3982,-5.3926,-5.3851,-5.3813,-5.3813,-5.3813,-5.3813,-5.3813,-5.3813,-5.3813,-5.3813,-5.3813,-5.3813,-5.3813,-5.3813,-5.3813,-5.3813,-5.3813,-5.3813,-5.3813,-5.3813,-5.3813,-5.3813,-5.3813,-5.3813,-5.3813,-5.3813,-5.3813,-5.3813,-5.3813,-5.3813,-5.3813,-5.3813,-5.3813,-5.3813,-5.0898,-5.0898,-5.0898,-5.0898,-5.0898,-5.0898,-5.0898,-5.0898,-5.0898,-5.085,-5.0644,-5.0184,-4.9866,-4.9651,-4.9255,-4.8926,-4.889,-4.889,-4.889,-4.889,-4.889,-4.889,-4.889,-4.889,-4.889,-4.889,-4.889,-4.889,-4.889,-4.889,-4.889,-4.889,-4.889,-4.889,-4.889,-4.889,-4.889,-4.8983,-4.915,-4.9596,-5.0023,-5.0413,-5.0952,-5.1546,-5.1899,-5.2197,-5.2772,-5.3088,-5.3274,-5.3796,-5.4037,-5.4127,-5.4253,-5.434,-5.4392,-5.4409,-5.4409,-5.4352,-5.4296,-5.4296,-5.3677,-5.3076,-5.2794,-5.2775,-5.2775,-5.2963,-5.3151,-5.3451,-5.3562,-5.3827,-5.4221,-5.4409,-5.4409,-5.439,-5.4373,-5.4357,-5.434,-5.4324,-5.4254,-5.4092,-5.3982,-5.3907,-5.3832,-5.3832,-5.3813,-5.3813,-5.3813,-5.3813,-5.3813,-5.3813,-5.3813,-5.3813,-5.3813,-5.3813,-5.3813,-5.3813,-5.3813,-5.3813,-5.3813,-5.3813,-5.3813,-5.3813,-5.3813,-5.3813,-5.3813,-5.3813,-5.3813,-5.3813,-5.3813,-5.3813,-5.3813,-5.3813,-5.3813,-5.3813,-5.3813,-5.0898,-5.0898,-5.0898,-5.0898,-5.0898,-5.0898,-5.0898,-5.0898,-5.089,-5.0745,-5.0497,-5.0218,-4.9891,-4.9558,-4.9246,-4.9047,-4.896,-4.8925,-4.889,-4.889,-4.889,-4.889,-4.889,-4.889,-4.889,-4.889,-4.889,-4.889,-4.889,-4.889,-4.889,-4.889,-4.889,-4.9002,-4.9057,-4.9132,-4.9132,-4.9317,-4.9837,-5.0302,-5.0729,-5.1138,-5.1806,-5.2364,-5.2698,-5.2995,-5.3404,-5.3645,-5.372,-5.3907,-5.4,-5.4073,-5.4163,-5.4287,-5.4375,-5.4409,-5.4409,-5.4409,-5.4409,-5.4409,-5.4371,-5.3939,-5.4108,-5.4296,-5.4183,-5.3939,-5.3977,-5.4052,-5.4146,-5.424,-5.4409,-5.4409,-5.4409,-5.4409,-5.4409,-5.4392,-5.4392,-5.434,-5.4253,-5.4146,-5.4037,-5.3944,-5.3851,-5.3813,-5.3813,-5.3813,-5.3813,-5.3813,-5.3813,-5.3813,-5.3813,-5.3813,-5.3813,-5.3813,-5.3813,-5.3813,-5.3813,-5.3813,-5.3813,-5.3813,-5.3813,-5.3813,-5.3813,-5.3813,-5.3813,-5.3813,-5.3813,-5.3813,-5.3813,-5.3813,-5.3813,-5.3813,-5.3813,-5.3813,-5.3832,-5.0898,-5.0898,-5.0898,-5.0898,-5.0898,-5.0898,-5.0898,-5.089,-5.0763,-5.0616,-5.0518,-5.0019,-4.987,-4.9798,-4.9337,-4.9211,-4.9129,-4.9062,-4.8925,-4.889,-4.889,-4.889,-4.889,-4.889,-4.889,-4.889,-4.889,-4.889,-4.889,-4.889,-4.889,-4.889,-4.9002,-4.9243,-4.954,-4.9763,-4.9819,-5.0042,-5.0692,-5.1156,-5.1621,-5.2067,-5.2717,-5.3144,-5.3348,-5.359,-5.372,-5.3813,-5.3832,-5.3963,-5.4055,-5.4128,-5.4254,-5.434,-5.4409,-5.4409,-5.4409,-5.4409,-5.4409,-5.4409,-5.4409,-5.4409,-5.4409,-5.4409,-5.4409,-5.4409,-5.4409,-5.4409,-5.4409,-5.4409,-5.4409,-5.4409,-5.4409,-5.4409,-5.4409,-5.4409,-5.4392,-5.4357,-5.4271,-5.4183,-5.4074,-5.3944,-5.3832,-5.3813,-5.3813,-5.3813,-5.3813,-5.3813,-5.3813,-5.3813,-5.3813,-5.3813,-5.3813,-5.3813,-5.3813,-5.3813,-5.3813,-5.3813,-5.3813,-5.3813,-5.3813,-5.3813,-5.3813,-5.3813,-5.3813,-5.3813,-5.3813,-5.3813,-5.3813,-5.3813,-5.3813,-5.3813,-5.3813,-5.3813,-5.3851,-5.0898,-5.0898,-5.0898,-5.0898,-5.0898,-5.0898,-5.0898,-5.0874,-5.0771,-5.0691,-5.0557,-5.0222,-4.9968,-4.9776,-4.9454,-4.9257,-4.9144,-4.8993,-4.889,-4.889,-4.889,-4.889,-4.889,-4.889,-4.889,-4.889,-4.889,-4.889,-4.889,-4.889,-4.889,-4.8946,-4.9132,-4.9633,-5.0116,-5.0711,-5.1156,-5.1323,-5.1658,-5.2141,-5.2512,-5.2902,-5.3404,-5.3664,-5.3794,-5.3813,-5.3813,-5.3813,-5.387,-5.3982,-5.4073,-5.4163,-5.4289,-5.4376,-5.4409,-5.4409,-5.4409,-5.4409,-5.4409,-5.4409,-5.4409,-5.4409,-5.4409,-5.4409,-5.4409,-5.4409,-5.4409,-5.4409,-5.4409,-5.4409,-5.4409,-5.4409,-5.4409,-5.4409,-5.4409,-5.4409,-5.4392,-5.4356,-5.4271,-5.4165,-5.4037,-5.3888,-5.3832,-5.3813,-5.3813,-5.3813,-5.3813,-5.3813,-5.3813,-5.3813,-5.3813,-5.3813,-5.3813,-5.3813,-5.3813,-5.3813,-5.3813,-5.3813,-5.3813,-5.3813,-5.3813,-5.3813,-5.3813,-5.3813,-5.3813,-5.3813,-5.3813,-5.3813,-5.3813,-5.3813,-5.3813,-5.3813,-5.3813,-5.3813,-5.3889,-5.0898,-5.0898,-5.0898,-5.0898,-5.0898,-5.0898,-5.0898,-5.0898,-5.089,-5.078,-5.0606,-5.0557,-5.0187,-4.9851,-4.9598,-4.9358,-4.9188,-4.9008,-4.889,-4.889,-4.889,-4.889,-4.889,-4.889,-4.889,-4.889,-4.889,-4.889,-4.889,-4.8909,-4.8946,-4.902,-4.9652,-5.0209,-5.0803,-5.1695,-5.2197,-5.2494,-5.2568,-5.281,-5.294,-5.3348,-5.3813,-5.3794,-5.3813,-5.3813,-5.3832,-5.3851,-5.387,-5.4,-5.4092,-5.4181,-5.4288,-5.4357,-5.4392,-5.4409,-5.4409,-5.4409,-5.4409,-5.4409,-5.4409,-5.4409,-5.4409,-5.4409,-5.4409,-5.4409,-5.4409,-5.4409,-5.4409,-5.4409,-5.4409,-5.4409,-5.4409,-5.4409,-5.4409,-5.4409,-5.4409,-5.4375,-5.4307,-5.4201,-5.4074,-5.3926,-5.387,-5.3851,-5.3813,-5.3813,-5.3813,-5.3813,-5.3813,-5.3813,-5.3813,-5.3813,-5.3813,-5.3813,-5.3813,-5.3813,-5.3813,-5.3813,-5.3813,-5.3813,-5.3813,-5.3813,-5.3813,-5.3813,-5.3813,-5.3813,-5.3813,-5.3813,-5.3813,-5.3813,-5.3813,-5.3813,-5.3832,-5.3851,-5.3963,-5.0898,-5.0898,-5.0898,-5.0898,-5.0898,-5.0898,-5.0898,-5.0898,-5.0898,-5.0789,-5.0587,-5.0415,-5.0275,-5.0135,-4.9762,-4.9521,-4.9465,-4.9042,-4.8925,-4.889,-4.889,-4.889,-4.889,-4.889,-4.889,-4.889,-4.889,-4.8909,-4.8927,-4.8964,-4.9243,-4.9745,-5.0265,-5.0748,-5.1714,-5.2605,-5.2902,-5.3311,-5.3367,-5.3385,-5.3478,-5.3571,-5.3813,-5.3813,-5.3813,-5.3851,-5.3907,-5.3944,-5.4055,-5.4201,-5.4236,-5.4288,-5.4375,-5.4392,-5.4409,-5.4409,-5.4409,-5.4409,-5.4409,-5.4409,-5.4409,-5.4409,-5.4409,-5.4409,-5.4409,-5.4409,-5.4409,-5.4409,-5.4409,-5.4409,-5.4409,-5.4409,-5.4409,-5.4409,-5.4409,-5.4409,-5.4409,-5.4376,-5.4324,-5.4218,-5.4091,-5.4,-5.3926,-5.387,-5.3832,-5.3813,-5.3813,-5.3813,-5.3813,-5.3813,-5.3813,-5.3813,-5.3813,-5.3813,-5.3813,-5.3813,-5.3813,-5.3813,-5.3813,-5.3813,-5.3813,-5.3813,-5.3813,-5.3813,-5.3813,-5.3813,-5.3813,-5.3813,-5.3813,-5.3813,-5.3832,-5.3832,-5.3963,-5.4035,-5.4161,-5.0898,-5.0898,-5.0898,-5.0898,-5.0898,-5.0898,-5.0898,-5.0898,-5.0898,-5.083,-5.0736,-5.0577,-5.0438,-5.0309,-4.9885,-4.9565,-4.951,-4.9092,-4.8925,-4.889,-4.889,-4.889,-4.889,-4.889,-4.889,-4.889,-4.889,-4.8909,-4.9002,-4.9373,-4.9782,-5.0265,-5.0692,-5.1621,-5.2661,-5.2902,-5.3311,-5.3757,-5.3794,-5.3813,-5.3813,-5.3813,-5.3813,-5.3813,-5.3832,-5.3851,-5.3888,-5.3945,-5.4074,-5.42,-5.4271,-5.434,-5.4392,-5.4409,-5.4409,-5.4409,-5.4409,-5.4409,-5.4409,-5.4409,-5.4409,-5.4409,-5.4409,-5.4409,-5.4409,-5.4409,-5.4409,-5.4409,-5.4409,-5.4409,-5.4409,-5.4409,-5.4409,-5.4409,-5.4409,-5.4409,-5.4392,-5.4359,-5.4271,-5.4163,-5.4036,-5.3963,-5.3888,-5.3851,-5.3813,-5.3813,-5.3813,-5.3813,-5.3813,-5.3813,-5.3813,-5.3813,-5.3832,-5.3813,-5.3813,-5.3813,-5.3813,-5.3813,-5.3813,-5.3813,-5.3813,-5.3813,-5.3813,-5.3813,-5.3813,-5.3813,-5.3813,-5.3813,-5.3813,-5.3813,-5.3832,-5.387,-5.4036,-5.4212,-5.4446,-5.0898,-5.0898,-5.0898,-5.0898,-5.0898,-5.0898,-5.0898,-5.0898,-5.0898,-5.0898,-5.089,-5.0882,-5.0596,-5.0267,-4.9949,-4.956,-4.9239,-4.9027,-4.8907,-4.889,-4.889,-4.889,-4.889,-4.889,-4.889,-4.889,-4.889,-4.9057,-4.9224,-4.967,-5.0135,-5.0618,-5.1565,-5.2642,-5.2921,-5.3311,-5.3794,-5.3794,-5.3813,-5.3813,-5.3813,-5.3813,-5.3813,-5.3813,-5.3813,-5.3794,-5.3851,-5.3945,-5.4037,-5.4163,-5.4323,-5.4375,-5.4409,-5.4409,-5.4409,-5.4409,-5.4409,-5.4409,-5.4409,-5.4409,-5.4409,-5.4409,-5.4409,-5.4409,-5.4409,-5.4409,-5.4409,-5.4409,-5.4409,-5.4409,-5.4409,-5.4409,-5.4409,-5.4409,-5.4409,-5.4409,-5.4393,-5.4359,-5.4271,-5.4145,-5.4073,-5.4,-5.3944,-5.387,-5.3832,-5.3832,-5.3813,-5.3813,-5.3813,-5.3813,-5.3813,-5.3832,-5.3869,-5.3832,-5.3813,-5.3851,-5.3851,-5.3832,-5.3832,-5.3813,-5.3813,-5.3813,-5.3813,-5.3813,-5.3813,-5.3813,-5.3813,-5.3813,-5.3813,-5.3813,-5.3832,-5.387,-5.4054,-5.4298,-5.4746,-5.0898,-5.0898,-5.0898,-5.0898,-5.0898,-5.0898,-5.0898,-5.0898,-5.0898,-5.0898,-5.0898,-5.0882,-5.0708,-5.0404,-5.0028,-4.9659,-4.9334,-4.9061,-4.8926,-4.889,-4.889,-4.889,-4.889,-4.889,-4.889,-4.8927,-4.9039,-4.9317,-4.9707,-5.0079,-5.0841,-5.1974,-5.2141,-5.294,-5.3534,-5.3813,-5.3813,-5.3813,-5.3813,-5.3813,-5.3813,-5.3813,-5.3813,-5.3813,-5.3813,-5.3907,-5.4,-5.4055,-5.4199,-5.4304,-5.4356,-5.4409,-5.4409,-5.4409,-5.4409,-5.4409,-5.4409,-5.4409,-5.4409,-5.4409,-5.4409,-5.4409,-5.4409,-5.4409,-5.4409,-5.4409,-5.4409,-5.4409,-5.4409,-5.4409,-5.4409,-5.4409,-5.4409,-5.4409,-5.4409,-5.4409,-5.4392,-5.4392,-5.4339,-5.4269,-5.4235,-5.4201,-5.4165,-5.4055,-5.3926,-5.3888,-5.3832,-5.3832,-5.3813,-5.3813,-5.3832,-5.3851,-5.3907,-5.3869,-5.3832,-5.3907,-5.3944,-5.3907,-5.3888,-5.3888,-5.3851,-5.3813,-5.3813,-5.3813,-5.3813,-5.3813,-5.3813,-5.3813,-5.3813,-5.3813,-5.3813,-5.387,-5.4089,-5.4413,-5.4876]},{"header":{"parameterUnit":"m.s-1","parameterCategory":1,"la1":31.0,"la2":29.5877,"lo1":-88.7671,"lo2":-86.6584,"dx":0.0162,"dy":0.0185,"nx":115,"ny":88,"refTime":"2023-01-28T06:00:00:Z","depth":0,"parameterNumber":3,"parameterNumberName":"V-component_of_WINDS"},"data":[0.0,0.0,0.0,0.0,0.0,0.0,0.0,0.0,0.0,0.0,0.0,0.0,0.0,0.0,0.0,0.0,0.0,0.0,0.0,0.0,0.0,0.0,0.0,0.0,0.0,0.0,0.0,0.0,0.0,0.0,0.0,0.0,0.0,0.0,0.0,0.0,0.0,0.0,0.0,0.0,0.0,0.0,0.0,0.0,0.0,0.0,0.0,0.0,0.0,0.0,0.0,0.0,0.0,0.0,0.0,0.0,0.0,0.0,0.0,0.0,0.0,0.0,0.0,0.0,0.0,0.0,0.0,0.0,0.0,0.0,0.0,0.0,0.0,0.0,0.0,0.0,0.0,0.0,0.0,0.0,0.0,0.0,0.0,0.0,0.0,0.0,0.0,0.0,0.0,0.0,0.0,0.0,0.0,0.0,0.0,0.0,0.0,0.0,0.0,0.0,0.0,0.0,0.0,0.0,0.0,0.0,0.0,0.0,0.0,0.0,0.0,0.0,0.0,0.0,0.0,0.0,0.0,0.0,0.0,0.0,0.0,0.0,0.0,0.0,0.0,0.0,0.0,0.0,0.0,0.0,0.0,0.0,0.0,0.0,0.0,0.0,0.0,0.0,0.0,0.0,0.0,0.0,0.0,0.0,0.0,0.0,0.0,0.0,0.0,0.0,0.0,0.0,0.0,0.0,0.0,0.0,0.0,0.0,0.0,0.0,0.0,0.0,0.0,0.0,0.0,0.0,0.0,0.0,0.0,0.0,0.0,0.0,0.0,0.0,0.0,0.0,0.0,0.0,0.0,0.0,0.0,0.0,0.0,0.0,0.0,0.0,0.0,0.0,0.0,0.0,0.0,0.0,0.0,0.0,0.0,0.0,0.0,0.0,0.0,0.0,0.0,0.0,0.0,0.0,0.0,0.0,0.0,0.0,0.0,0.0,0.0,0.0,0.0,0.0,0.0,0.0,0.0,0.0,0.0,0.0,0.0,0.0,0.0,0.0,0.0,0.0,0.0,0.0,0.0,0.0,0.0,0.0,0.0,0.0,0.0,0.0,0.0,0.0,0.0,0.0,0.0,0.0,0.0,0.0,0.0,0.0,0.0,0.0,0.0,0.0,0.0,0.0,0.0,0.0,0.0,0.0,0.0,0.0,0.0,0.0,0.0,0.0,0.0,0.0,0.0,0.0,0.0,0.0,0.0,0.0,0.0,0.0,0.0,0.0,0.0,0.0,0.0,0.0,0.0,0.0,0.0,0.0,0.0,0.0,0.0,0.0,0.0,0.0,0.0,0.0,0.0,0.0,0.0,0.0,0.0,0.0,0.0,0.0,0.0,0.0,0.0,0.0,0.0,0.0,0.0,0.0,0.0,0.0,0.0,0.0,0.0,0.0,0.0,0.0,0.0,0.0,0.0,0.0,0.0,0.0,0.0,0.0,0.0,0.0,0.0,0.0,0.0,0.0,0.0,0.0,0.0,0.0,0.0,0.0,0.0,0.0,0.0,0.0,0.0,0.0,0.0,0.0,0.0,0.0,0.0,0.0,0.0,0.0,0.0,0.0,0.0,0.0,0.0,0.0,0.0,0.0,0.0,0.0,0.0,0.0,0.0,0.0,0.0,0.0,0.0,0.0,0.0,0.0,0.0,0.0,0.0,0.0,0.0,0.0,0.0,0.0,0.0,0.0,0.0,0.0,0.0,0.0,0.0,0.0,0.0,0.0,0.0,0.0,0.0,0.0,0.0,0.0,0.0,0.0,0.0,0.0,0.0,0.0,0.0,0.0,0.0,0.0,0.0,0.0,0.0,0.0,0.0,0.0,0.0,0.0,0.0,0.0,0.0,0.0,0.0,0.0,0.0,0.0,0.0,0.0,0.0,0.0,0.0,0.0,0.0,0.0,0.0,0.0,0.0,0.0,0.0,0.0,0.0,0.0,0.0,0.0,0.0,0.0,0.0,0.0,0.0,0.0,0.0,0.0,0.0,0.0,0.0,0.0,0.0,0.0,0.0,0.0,0.0,0.0,0.0,0.0,0.0,0.0,0.0,0.0,0.0,0.0,0.0,0.0,0.0,0.0,0.0,0.0,0.0,0.0,0.0,0.0,0.0,0.0,0.0,0.0,0.0,0.0,0.0,0.0,0.0,0.0,0.0,0.0,0.0,0.0,0.0,0.0,0.0,0.0,0.0,0.0,0.0,0.0,0.0,0.0,0.0,0.0,0.0,0.0,0.0,0.0,0.0,0.0,0.0,0.0,0.0,0.0,0.0,0.0,0.0,0.0,0.0,0.0,0.0,0.0,0.0,0.0,0.0,0.0,0.0,0.0,0.0,0.0,0.0,0.0,0.0,0.0,0.0,0.0,0.0,0.0,0.0,0.0,0.0,0.0,0.0,0.0,0.0,0.0,0.0,0.0,0.0,0.0,0.0,0.0,0.0,0.0,0.0,0.0,0.0,0.0,0.0,0.0,0.0,0.0,0.0,0.0,0.0,0.0,0.0,0.0,0.0,0.0,0.0,0.0,0.0,0.0,0.0,0.0,0.0,0.0,0.0,0.0,0.0,0.0,0.0,0.0,0.0,0.0,0.0,0.0,0.0,0.0,0.0,0.0,0.0,0.0,0.0,0.0,0.0,0.0,0.0,0.0,0.0,0.0,0.0,0.0,0.0,0.0,0.0,0.0,0.0,0.0,0.0,0.0,0.0,0.0,0.0,0.0,0.0,0.0,0.0,0.0,0.0,0.0,0.0,0.0,0.0,0.0,0.0,0.0,0.0,0.0,0.0,0.0,0.0,0.0,0.0,0.0,0.0,0.0,0.0,0.0,0.0,0.0,0.0,0.0,0.0,0.0,0.0,0.0,0.0,0.0,0.0,0.0,0.0,0.0,0.0,0.0,0.0,0.0,0.0,0.0,0.0,0.0,0.0,0.0,0.0,0.0,0.0,0.0,0.0,0.0,0.0,0.0,0.0,0.0,0.0,0.0,0.0,0.0,0.0,0.0,0.0,0.0,0.0,0.0,0.0,0.0,0.0,0.0,0.0,0.0,0.0,0.0,0.0,0.0,0.0,0.0,0.0,0.0,0.0,0.0,0.0,0.0,0.0,0.0,0.0,0.0,0.0,0.0,0.0,0.0,0.0,0.0,0.0,0.0,0.0,0.0,0.0,0.0,0.0,0.0,0.0,0.0,0.0,0.0,0.0,0.0,0.0,0.0,0.0,0.0,0.0,0.0,0.0,0.0,0.0,0.0,0.0,0.0,0.0,0.0,0.0,0.0,0.0,0.0,0.0,0.0,0.0,0.0,0.0,0.0,0.0,0.0,0.0,0.0,0.0,0.0,0.0,0.0,0.0,0.0,0.0,0.0,0.0,0.0,0.0,0.0,0.0,0.0,0.0,0.0,0.0,0.0,0.0,0.0,0.0,0.0,0.0,0.0,0.0,0.0,0.0,0.0,0.0,0.0,0.0,0.0,0.0,0.0,0.0,0.0,0.0,0.0,0.0,0.0,0.0,0.0,0.0,0.0,0.0,0.0,0.0,0.0,0.0,0.0,0.0,0.0,0.0,0.0,0.0,0.0,0.0,0.0,0.0,0.0,0.0,0.0,0.0,0.0,0.0,0.0,0.0,0.0,0.0,0.0,0.0,0.0,0.0,0.0,0.0,0.0,0.0,0.0,0.0,0.0,0.0,0.0,0.0,0.0,0.0,0.0,0.0,0.0,0.0,0.0,0.0,0.0,0.0,0.0,0.0,0.0,0.0,0.0,0.0,0.0,0.0,0.0,0.0,0.0,0.0,0.0,0.0,0.0,0.0,0.0,0.0,0.0,0.0,0.0,0.0,0.0,0.0,0.0,0.0,0.0,0.0,0.0,0.0,0.0,0.0,0.0,0.0,0.0,0.0,0.0,0.0,0.0,0.0,0.0,0.0,0.0,0.0,0.0,0.0,0.0,0.0,0.0,0.0,0.0,0.0,0.0,0.0,0.0,0.0,0.0,0.0,0.0,0.0,0.0,0.0,0.0,0.0,0.0,0.0,0.0,0.0,0.0,0.0,0.0,0.0,0.0,0.0,0.0,0.0,0.0,0.0,0.0,0.0,0.0,0.0,0.0,0.0,0.0,0.0,0.0,0.0,0.0,0.0,0.0,0.0,0.0,0.0,0.0,0.0,0.0,0.0,0.0,0.0,0.0,0.0,0.0,0.0,0.0,0.0,0.0,0.0,0.0,0.0,0.0,0.0,0.0,0.0,0.0,0.0,0.0,0.0,0.0,0.0,0.0,0.0,0.0,0.0,0.0,-1.2705,0.0,0.0,0.0,0.0,0.0,0.0,0.0,0.0,0.0,0.0,0.0,0.0,0.0,0.0,0.0,0.0,0.0,0.0,0.0,0.0,0.0,0.0,0.0,0.0,0.0,0.0,0.0,0.0,0.0,0.0,0.0,0.0,0.0,0.0,0.0,0.0,0.0,0.0,0.0,0.0,0.0,0.0,0.0,0.0,0.0,0.0,0.0,0.0,0.0,0.0,0.0,0.0,0.0,0.0,0.0,0.0,0.0,0.0,0.0,0.0,0.0,0.0,0.0,0.0,0.0,0.0,0.0,0.0,0.0,0.0,0.0,0.0,0.0,0.0,0.0,0.0,0.0,0.0,0.0,0.0,0.0,0.0,0.0,0.0,0.0,0.0,0.0,0.0,0.0,0.0,0.0,0.0,0.0,0.0,0.0,0.0,0.0,0.0,0.0,0.0,0.0,0.0,0.0,0.0,0.0,0.0,0.0,0.0,0.0,0.0,-1.2705,-1.2705,-1.2705,-1.2705,-1.2705,0.0,0.0,0.0,0.0,0.0,0.0,0.0,0.0,0.0,0.0,0.0,0.0,0.0,0.0,0.0,0.0,0.0,0.0,0.0,0.0,0.0,0.0,0.0,0.0,0.0,0.0,0.0,0.0,0.0,0.0,0.0,0.0,0.0,0.0,0.0,0.0,0.0,0.0,0.0,0.0,0.0,0.0,0.0,0.0,0.0,0.0,0.0,0.0,0.0,0.0,0.0,0.0,0.0,0.0,0.0,0.0,0.0,0.0,0.0,0.0,0.0,0.0,0.0,0.0,0.0,0.0,0.0,0.0,0.0,0.0,0.0,0.0,0.0,0.0,0.0,0.0,0.0,0.0,0.0,0.0,0.0,0.0,0.0,0.0,0.0,0.0,0.0,0.0,0.0,0.0,0.0,0.0,0.0,0.0,0.0,0.0,0.0,0.0,0.0,0.0,0.0,0.0,0.0,0.0,0.0,0.0,0.0,0.0,0.0,0.0,0.0,0.0,-1.2705,-1.2705,-1.2705,0.0,0.0,0.0,0.0,0.0,0.0,0.0,0.0,0.0,0.0,0.0,0.0,0.0,0.0,0.0,0.0,0.0,0.0,0.0,0.0,0.0,0.0,0.0,0.0,0.0,0.0,0.0,0.0,0.0,0.0,0.0,0.0,0.0,0.0,0.0,0.0,0.0,0.0,0.0,0.0,0.0,0.0,0.0,0.0,0.0,0.0,0.0,0.0,0.0,0.0,0.0,0.0,0.0,0.0,0.0,0.0,0.0,0.0,0.0,0.0,0.0,0.0,0.0,0.0,0.0,0.0,0.0,0.0,0.0,0.0,0.0,0.0,0.0,0.0,0.0,0.0,0.0,0.0,0.0,0.0,0.0,0.0,0.0,0.0,0.0,0.0,0.0,0.0,0.0,0.0,0.0,0.0,0.0,0.0,0.0,0.0,0.0,0.0,0.0,0.0,0.0,0.0,0.0,0.0,0.0,0.0,0.0,0.0,0.0,0.0,-1.2705,-1.2705,-1.2699,0.0,-1.2705,0.0,0.0,0.0,0.0,0.0,0.0,0.0,0.0,0.0,0.0,0.0,0.0,0.0,0.0,0.0,0.0,0.0,0.0,0.0,0.0,0.0,0.0,0.0,0.0,0.0,0.0,0.0,0.0,0.0,0.0,0.0,0.0,0.0,0.0,0.0,0.0,0.0,0.0,0.0,0.0,0.0,0.0,0.0,0.0,0.0,0.0,0.0,0.0,0.0,0.0,0.0,0.0,0.0,0.0,0.0,0.0,0.0,0.0,0.0,0.0,0.0,0.0,0.0,0.0,0.0,0.0,0.0,0.0,0.0,0.0,0.0,0.0,0.0,0.0,0.0,0.0,0.0,0.0,0.0,0.0,0.0,0.0,0.0,0.0,0.0,0.0,0.0,0.0,0.0,0.0,0.0,0.0,0.0,0.0,0.0,0.0,0.0,0.0,0.0,0.0,0.0,0.0,0.0,0.0,0.0,0.0,0.0,0.0,0.0,0.0,-1.2632,-1.2475,-1.2318,-1.2199,0.0,0.0,0.0,0.0,0.0,0.0,0.0,0.0,0.0,0.0,0.0,0.0,0.0,0.0,0.0,0.0,0.0,0.0,0.0,0.0,0.0,0.0,0.0,0.0,0.0,0.0,0.0,0.0,0.0,0.0,0.0,0.0,0.0,0.0,0.0,0.0,0.0,0.0,0.0,0.0,0.0,0.0,0.0,0.0,0.0,0.0,0.0,0.0,0.0,0.0,0.0,0.0,0.0,0.0,0.0,0.0,0.0,0.0,0.0,0.0,0.0,0.0,0.0,0.0,0.0,0.0,0.0,0.0,0.0,0.0,0.0,0.0,0.0,0.0,0.0,0.0,0.0,0.0,0.0,0.0,0.0,0.0,0.0,0.0,0.0,0.0,0.0,0.0,0.0,0.0,0.0,0.0,0.0,0.0,0.0,0.0,0.0,0.0,0.0,0.0,0.0,0.0,0.0,0.0,0.0,0.0,0.0,0.0,0.0,0.0,-1.2596,-1.2469,-1.2216,-1.1982,-1.1886,-1.1886,0.0,0.0,0.0,0.0,0.0,0.0,0.0,0.0,0.0,0.0,0.0,0.0,0.0,0.0,0.0,0.0,0.0,0.0,0.0,0.0,0.0,0.0,0.0,0.0,0.0,0.0,0.0,0.0,0.0,0.0,0.0,0.0,0.0,0.0,0.0,0.0,0.0,0.0,0.0,0.0,0.0,0.0,0.0,0.0,0.0,0.0,0.0,0.0,0.0,0.0,0.0,0.0,0.0,0.0,0.0,0.0,0.0,0.0,0.0,0.0,0.0,0.0,0.0,0.0,0.0,0.0,0.0,0.0,0.0,0.0,0.0,0.0,0.0,0.0,0.0,0.0,0.0,0.0,0.0,0.0,0.0,0.0,0.0,0.0,0.0,0.0,0.0,0.0,0.0,0.0,0.0,0.0,0.0,0.0,0.0,0.0,0.0,0.0,0.0,0.0,0.0,0.0,0.0,0.0,0.0,0.0,0.0,0.0,-1.2343,-1.233,-1.2163,-1.191,-1.1886,-1.188,0.0,0.0,0.0,0.0,0.0,0.0,0.0,0.0,0.0,0.0,0.0,0.0,0.0,0.0,0.0,0.0,0.0,0.0,0.0,0.0,0.0,0.0,0.0,0.0,0.0,0.0,0.0,0.0,0.0,0.0,0.0,0.0,0.0,0.0,0.0,0.0,0.0,0.0,0.0,0.0,0.0,0.0,0.0,0.0,0.0,0.0,0.0,0.0,0.0,0.0,0.0,0.0,0.0,0.0,0.0,0.0,0.0,0.0,0.0,0.0,0.0,0.0,0.0,0.0,0.0,0.0,0.0,0.0,0.0,0.0,0.0,0.0,0.0,0.0,0.0,0.0,0.0,0.0,0.0,0.0,0.0,0.0,0.0,0.0,0.0,0.0,0.0,0.0,0.0,0.0,0.0,0.0,0.0,0.0,0.0,0.0,0.0,0.0,0.0,0.0,0.0,0.0,0.0,0.0,0.0,0.0,0.0,0.0,0.0,-1.2306,-1.198,-1.1724,-1.1633,-1.1459,-1.1407,0.0,0.0,0.0,0.0,0.0,0.0,0.0,0.0,0.0,0.0,0.0,0.0,0.0,0.0,0.0,0.0,0.0,0.0,0.0,0.0,0.0,0.0,0.0,0.0,0.0,0.0,0.0,0.0,0.0,0.0,0.0,0.0,0.0,0.0,0.0,0.0,0.0,0.0,0.0,0.0,0.0,0.0,0.0,0.0,0.0,0.0,0.0,0.0,0.0,0.0,0.0,0.0,0.0,0.0,0.0,0.0,0.0,0.0,0.0,0.0,0.0,0.0,0.0,0.0,0.0,0.0,0.0,0.0,0.0,0.0,0.0,0.0,0.0,0.0,0.0,0.0,0.0,0.0,0.0,0.0,0.0,0.0,0.0,0.0,0.0,0.0,0.0,0.0,0.0,0.0,0.0,0.0,0.0,0.0,0.0,0.0,0.0,0.0,0.0,0.0,0.0,0.0,0.0,0.0,0.0,0.0,0.0,0.0,0.0,-1.2012,0.0,-1.1357,-1.1389,-1.117,-1.1117,0.0,0.0,0.0,0.0,0.0,0.0,0.0,0.0,0.0,0.0,0.0,0.0,0.0,0.0,0.0,0.0,0.0,0.0,0.0,0.0,0.0,0.0,0.0,0.0,0.0,0.0,0.0,0.0,0.0,0.0,0.0,0.0,0.0,0.0,0.0,0.0,0.0,0.0,0.0,0.0,0.0,0.0,0.0,0.0,0.0,0.0,0.0,0.0,0.0,0.0,0.0,0.0,0.0,0.0,0.0,0.0,0.0,0.0,0.0,0.0,0.0,0.0,0.0,0.0,0.0,0.0,0.0,0.0,0.0,0.0,0.0,0.0,0.0,0.0,0.0,0.0,0.0,0.0,0.0,0.0,0.0,0.0,0.0,0.0,0.0,0.0,0.0,0.0,0.0,0.0,0.0,0.0,0.0,0.0,0.0,0.0,0.0,0.0,0.0,0.0,0.0,0.0,0.0,0.0,0.0,0.0,0.0,0.0,-1.2012,-1.1519,-1.1268,-1.1135,-1.1117,-1.1123,-1.1117,0.0,0.0,0.0,0.0,0.0,0.0,0.0,0.0,0.0,0.0,0.0,0.0,0.0,0.0,0.0,0.0,0.0,0.0,0.0,0.0,0.0,0.0,0.0,0.0,0.0,0.0,0.0,0.0,0.0,0.0,0.0,0.0,0.0,0.0,0.0,0.0,0.0,0.0,0.0,0.0,0.0,0.0,0.0,0.0,0.0,0.0,0.0,0.0,0.0,0.0,0.0,0.0,0.0,0.0,0.0,0.0,0.0,0.0,0.0,0.0,0.0,0.0,0.0,0.0,0.0,0.0,0.0,0.0,0.0,0.0,0.0,0.0,0.0,0.0,0.0,0.0,0.0,0.0,0.0,0.0,0.0,0.0,0.0,0.0,0.0,0.0,0.0,0.0,0.0,0.0,0.0,0.0,0.0,0.0,0.0,0.0,0.0,0.0,0.0,0.0,0.0,0.0,0.0,0.0,0.0,0.0,0.0,0.0,0.0,-1.1495,-1.1256,-1.1202,-1.1345,-1.117,-1.1117,0.0,0.0,0.0,0.0,0.0,0.0,0.0,0.0,0.0,0.0,0.0,0.0,0.0,0.0,0.0,0.0,0.0,0.0,0.0,0.0,0.0,0.0,0.0,0.0,0.0,0.0,0.0,0.0,0.0,0.0,0.0,0.0,0.0,0.0,0.0,0.0,0.0,0.0,0.0,0.0,0.0,0.0,0.0,0.0,0.0,0.0,0.0,0.0,0.0,0.0,0.0,0.0,0.0,0.0,0.0,0.0,0.0,0.0,0.0,0.0,0.0,0.0,0.0,0.0,0.0,0.0,0.0,0.0,0.0,0.0,0.0,0.0,0.0,0.0,0.0,0.0,0.0,0.0,0.0,0.0,0.0,0.0,0.0,0.0,0.0,0.0,0.0,0.0,0.0,0.0,0.0,0.0,0.0,0.0,0.0,0.0,0.0,0.0,0.0,0.0,0.0,0.0,0.0,0.0,0.0,0.0,0.0,0.0,0.0,-1.176,-1.1552,-1.1498,-1.1633,-1.1369,-1.123,-1.123,0.0,0.0,0.0,0.0,0.0,0.0,0.0,0.0,0.0,0.0,0.0,0.0,0.0,0.0,0.0,0.0,0.0,0.0,0.0,0.0,0.0,0.0,0.0,0.0,0.0,0.0,0.0,0.0,0.0,0.0,0.0,0.0,0.0,0.0,0.0,0.0,0.0,0.0,0.0,0.0,0.0,0.0,0.0,0.0,0.0,0.0,0.0,0.0,0.0,0.0,0.0,0.0,0.0,0.0,0.0,0.0,0.0,0.0,0.0,0.0,0.0,0.0,0.0,0.0,0.0,0.0,0.0,0.0,0.0,0.0,0.0,0.0,0.0,0.0,0.0,0.0,0.0,0.0,0.0,0.0,0.0,0.0,0.0,0.0,0.0,0.0,0.0,0.0,0.0,0.0,0.0,0.0,0.0,0.0,0.0,0.0,0.0,0.0,0.0,0.0,0.0,0.0,0.0,0.0,0.0,0.0,0.0,0.0,-1.2306,-1.2083,-1.1956,-1.1938,-1.1633,-1.1489,0.0,0.0,0.0,0.0,0.0,0.0,0.0,0.0,0.0,0.0,0.0,0.0,0.0,0.0,0.0,0.0,0.0,0.0,0.0,0.0,0.0,0.0,0.0,0.0,0.0,0.0,0.0,0.0,0.0,0.0,0.0,0.0,0.0,0.0,0.0,0.0,0.0,0.0,0.0,0.0,0.0,0.0,0.0,0.0,0.0,0.0,0.0,0.0,0.0,0.0,0.0,0.0,0.0,0.0,0.0,0.0,0.0,0.0,0.0,0.0,0.0,0.0,0.0,0.0,0.0,0.0,0.0,0.0,0.0,0.0,0.0,0.0,0.0,0.0,0.0,0.0,0.0,0.0,0.0,0.0,0.0,0.0,0.0,0.0,0.0,0.0,0.0,0.0,0.0,0.0,0.0,0.0,0.0,0.0,0.0,0.0,0.0,0.0,0.0,0.0,0.0,0.0,0.0,0.0,0.0,0.0,0.0,0.0,0.0,-1.2259,-1.2433,-1.2409,-1.221,-1.1736,-1.1489,0.0,0.0,0.0,0.0,0.0,0.0,0.0,0.0,0.0,0.0,0.0,0.0,0.0,0.0,0.0,0.0,0.0,0.0,0.0,0.0,0.0,0.0,0.0,0.0,0.0,0.0,0.0,0.0,0.0,0.0,0.0,0.0,0.0,0.0,0.0,0.0,0.0,0.0,0.0,0.0,0.0,0.0,0.0,0.0,0.0,0.0,0.0,0.0,0.0,0.0,0.0,0.0,0.0,0.0,0.0,0.0,0.0,0.0,0.0,0.0,0.0,0.0,0.0,0.0,0.0,0.0,0.0,0.0,0.0,0.0,0.0,0.0,0.0,0.0,0.0,0.0,0.0,0.0,0.0,0.0,0.0,0.0,0.0,0.0,0.0,0.0,0.0,0.0,0.0,0.0,0.0,0.0,0.0,0.0,0.0,0.0,0.0,0.0,0.0,0.0,0.0,0.0,0.0,0.0,0.0,0.0,0.0,0.0,-1.2101,-1.2469,-1.262,-1.2626,-1.2481,-1.2036,-1.1766,0.0,0.0,0.0,0.0,0.0,0.0,0.0,0.0,0.0,0.0,0.0,0.0,0.0,0.0,0.0,0.0,0.0,0.0,0.0,0.0,0.0,0.0,0.0,0.0,0.0,0.0,0.0,0.0,0.0,0.0,0.0,0.0,0.0,0.0,0.0,0.0,0.0,0.0,0.0,0.0,0.0,0.0,0.0,0.0,0.0,0.0,0.0,0.0,0.0,0.0,0.0,0.0,0.0,0.0,0.0,0.0,0.0,0.0,0.0,0.0,0.0,0.0,0.0,0.0,0.0,0.0,0.0,0.0,0.0,0.0,0.0,0.0,0.0,0.0,0.0,0.0,0.0,0.0,0.0,0.0,0.0,0.0,0.0,0.0,0.0,0.0,0.0,0.0,0.0,0.0,0.0,0.0,0.0,0.0,0.0,0.0,0.0,0.0,0.0,0.0,0.0,0.0,0.0,0.0,0.0,0.0,0.0,0.0,-1.2204,-1.2693,-1.2705,-1.2705,-1.2693,-1.2451,-1.2192,0.0,0.0,0.0,0.0,0.0,0.0,0.0,0.0,0.0,0.0,0.0,0.0,0.0,0.0,0.0,0.0,0.0,0.0,0.0,0.0,0.0,0.0,0.0,0.0,0.0,0.0,0.0,0.0,0.0,0.0,0.0,0.0,0.0,0.0,0.0,0.0,0.0,0.0,0.0,0.0,0.0,0.0,0.0,0.0,0.0,0.0,0.0,0.0,0.0,0.0,0.0,0.0,0.0,0.0,0.0,0.0,0.0,0.0,0.0,0.0,0.0,0.0,0.0,0.0,0.0,0.0,0.0,0.0,0.0,0.0,0.0,0.0,0.0,0.0,0.0,0.0,0.0,0.0,0.0,0.0,0.0,0.0,0.0,0.0,0.0,0.0,0.0,0.0,0.0,0.0,0.0,0.0,0.0,0.0,0.0,0.0,0.0,0.0,0.0,0.0,0.0,0.0,0.0,0.0,0.0,0.0,0.0,0.0,-1.2385,-1.2693,-1.2705,-1.2705,-1.2705,-1.2451,-1.2151,0.0,0.0,0.0,0.0,0.0,0.0,0.0,0.0,0.0,0.0,0.0,0.0,0.0,0.0,0.0,0.0,0.0,0.0,0.0,0.0,0.0,0.0,0.0,0.0,0.0,0.0,0.0,0.0,0.0,0.0,0.0,0.0,0.0,0.0,0.0,0.0,0.0,0.0,0.0,0.0,0.0,0.0,0.0,0.0,0.0,0.0,0.0,0.0,-0.8632,0.0,0.0,0.0,0.0,0.0,0.0,0.0,0.0,0.0,0.0,0.0,0.0,0.0,0.0,0.0,0.0,0.0,0.0,0.0,0.0,0.0,0.0,0.0,0.0,0.0,0.0,0.0,0.0,0.0,0.0,0.0,0.0,0.0,0.0,0.0,0.0,0.0,0.0,0.0,0.0,0.0,0.0,0.0,0.0,0.0,0.0,0.0,0.0,0.0,0.0,0.0,0.0,0.0,0.0,0.0,0.0,0.0,0.0,0.0,-1.2529,-1.2693,-1.2705,-1.2869,-1.3281,-1.3197,-1.276,0.0,0.0,0.0,0.0,0.0,0.0,0.0,0.0,0.0,0.0,0.0,0.0,0.0,0.0,0.0,0.0,0.0,0.0,0.0,0.0,0.0,0.0,0.0,0.0,0.0,0.0,0.0,0.0,0.0,0.0,0.0,0.0,0.0,0.0,0.0,0.0,0.0,0.0,0.0,0.0,0.0,0.0,0.0,0.0,0.0,0.0,0.0,0.0,0.0,0.0,0.0,0.0,0.0,0.0,0.0,0.0,0.0,0.0,0.0,0.0,0.0,0.0,0.0,0.0,0.0,0.0,0.0,0.0,0.0,0.0,0.0,0.0,0.0,0.0,0.0,0.0,0.0,0.0,0.0,0.0,0.0,0.0,0.0,0.0,0.0,0.0,0.0,0.0,0.0,0.0,0.0,0.0,0.0,0.0,0.0,0.0,0.0,0.0,0.0,0.0,0.0,0.0,0.0,0.0,0.0,0.0,0.0,-1.2754,-1.306,-1.3148,-1.316,-1.3535,-1.4287,-1.421,-1.365,-1.2538,0.0,0.0,0.0,0.0,0.0,0.0,0.0,0.0,0.0,0.0,0.0,0.0,0.0,0.0,0.0,0.0,0.0,0.0,0.0,0.0,0.0,0.0,0.0,0.0,0.0,0.0,0.0,0.0,0.0,0.0,0.0,0.0,0.0,0.0,0.0,0.0,0.0,0.0,-1.0425,-1.0849,0.0,0.0,0.0,0.0,0.0,0.0,0.0,0.0,-1.0068,0.0,0.0,0.0,0.0,0.0,0.0,0.0,0.0,0.0,0.0,0.0,0.0,0.0,0.0,0.0,0.0,0.0,0.0,0.0,0.0,0.0,0.0,0.0,0.0,0.0,0.0,0.0,0.0,0.0,0.0,0.0,0.0,0.0,0.0,0.0,0.0,0.0,0.0,0.0,0.0,0.0,0.0,0.0,0.0,0.0,0.0,0.0,0.0,0.0,0.0,0.0,0.0,0.0,0.0,0.0,0.0,-1.3318,-1.4192,-1.4823,-1.5199,-1.5199,-1.5357,-1.564,-1.5157,-1.459,-1.3884,0.0,0.0,0.0,0.0,0.0,0.0,0.0,0.0,0.0,0.0,0.0,0.0,0.0,0.0,0.0,0.0,0.0,0.0,0.0,0.0,0.0,0.0,0.0,0.0,0.0,0.0,0.0,0.0,0.0,0.0,0.0,0.0,0.0,0.0,0.0,0.0,0.0,0.0,0.0,-1.1433,-1.167,0.0,0.0,0.0,0.0,0.0,0.0,0.0,0.0,-1.066,0.0,0.0,0.0,0.0,0.0,0.0,0.0,0.0,0.0,0.0,0.0,0.0,0.0,0.0,0.0,0.0,0.0,0.0,0.0,0.0,0.0,0.0,0.0,0.0,0.0,0.0,0.0,0.0,0.0,0.0,0.0,0.0,0.0,0.0,0.0,0.0,0.0,0.0,0.0,0.0,0.0,0.0,0.0,0.0,0.0,0.0,0.0,0.0,0.0,0.0,0.0,0.0,0.0,0.0,0.0,-1.3514,-1.4817,-1.5338,-1.5047,-1.5379,-1.5786,-1.6314,-1.5869,-1.5331,0.0,0.0,0.0,0.0,0.0,0.0,0.0,0.0,0.0,0.0,0.0,0.0,0.0,0.0,0.0,0.0,0.0,0.0,0.0,0.0,0.0,0.0,0.0,0.0,0.0,0.0,0.0,0.0,0.0,0.0,0.0,0.0,0.0,0.0,0.0,0.0,0.0,0.0,0.0,0.0,-1.2069,-1.2545,-1.3349,0.0,0.0,0.0,0.0,0.0,0.0,-1.1953,-1.1554,0.0,0.0,0.0,0.0,0.0,0.0,0.0,0.0,0.0,0.0,0.0,0.0,0.0,0.0,0.0,0.0,0.0,0.0,0.0,0.0,0.0,0.0,0.0,0.0,0.0,0.0,0.0,0.0,0.0,0.0,0.0,0.0,0.0,0.0,0.0,0.0,0.0,0.0,0.0,0.0,0.0,0.0,0.0,0.0,0.0,0.0,0.0,0.0,0.0,0.0,0.0,0.0,0.0,0.0,0.0,-1.392,-1.5554,-1.6008,-1.5262,-1.5718,-1.6378,-1.7074,-1.6591,-1.5978,0.0,0.0,0.0,0.0,0.0,0.0,0.0,0.0,0.0,0.0,0.0,0.0,0.0,0.0,0.0,0.0,0.0,0.0,0.0,0.0,0.0,0.0,0.0,0.0,0.0,0.0,0.0,0.0,0.0,0.0,0.0,0.0,0.0,0.0,0.0,0.0,0.0,0.0,0.0,0.0,0.0,-1.3573,-1.4477,-1.396,0.0,0.0,0.0,0.0,-1.2926,-1.2764,0.0,0.0,0.0,0.0,0.0,0.0,0.0,0.0,0.0,0.0,0.0,0.0,0.0,0.0,0.0,0.0,0.0,0.0,0.0,0.0,0.0,0.0,0.0,0.0,0.0,0.0,0.0,0.0,0.0,0.0,0.0,0.0,0.0,0.0,0.0,0.0,0.0,0.0,0.0,0.0,0.0,0.0,0.0,0.0,0.0,0.0,0.0,0.0,0.0,0.0,0.0,0.0,0.0,0.0,0.0,0.0,-1.5703,-1.7073,-1.7829,-1.7942,-1.8023,-1.8193,-1.8442,-1.7505,-1.6517,0.0,0.0,0.0,0.0,0.0,0.0,0.0,0.0,0.0,0.0,0.0,0.0,0.0,0.0,0.0,0.0,0.0,0.0,0.0,0.0,0.0,0.0,0.0,0.0,0.0,0.0,0.0,0.0,0.0,0.0,0.0,0.0,0.0,0.0,0.0,0.0,0.0,0.0,0.0,0.0,0.0,-1.4629,-1.4398,-1.519,-1.538,0.0,0.0,-1.422,-1.3539,-1.3394,0.0,0.0,0.0,0.0,0.0,0.0,0.0,0.0,0.0,0.0,0.0,0.0,0.0,0.0,0.0,0.0,0.0,0.0,0.0,0.0,0.0,0.0,0.0,0.0,0.0,0.0,0.0,0.0,0.0,0.0,0.0,0.0,0.0,0.0,0.0,0.0,0.0,0.0,0.0,0.0,0.0,0.0,0.0,0.0,0.0,0.0,0.0,0.0,0.0,0.0,0.0,0.0,0.0,0.0,0.0,-1.537,-1.5148,-1.6635,-1.7033,-1.6165,-1.6501,-1.6755,-1.6804,-1.6255,-1.5493,0.0,0.0,0.0,0.0,0.0,0.0,0.0,0.0,0.0,0.0,0.0,0.0,0.0,0.0,0.0,0.0,0.0,0.0,0.0,0.0,0.0,0.0,0.0,0.0,0.0,0.0,0.0,0.0,0.0,0.0,0.0,0.0,0.0,0.0,0.0,0.0,0.0,0.0,0.0,0.0,0.0,0.0,-1.5826,-1.5622,0.0,0.0,0.0,-1.4454,-1.3636,0.0,0.0,0.0,0.0,0.0,0.0,0.0,0.0,0.0,0.0,0.0,0.0,0.0,0.0,0.0,0.0,0.0,0.0,0.0,0.0,0.0,0.0,0.0,0.0,0.0,0.0,0.0,0.0,0.0,0.0,0.0,0.0,0.0,0.0,0.0,0.0,0.0,0.0,0.0,0.0,0.0,0.0,0.0,0.0,0.0,0.0,0.0,0.0,0.0,0.0,0.0,0.0,0.0,0.0,0.0,0.0,0.0,-1.4643,-1.6008,-1.6083,-1.4803,-1.5262,-1.556,-1.556,-1.5269,0.0,0.0,0.0,0.0,0.0,0.0,0.0,0.0,0.0,0.0,0.0,0.0,0.0,0.0,0.0,0.0,0.0,0.0,0.0,0.0,0.0,0.0,0.0,0.0,0.0,0.0,0.0,-1.1698,0.0,0.0,0.0,0.0,0.0,0.0,0.0,0.0,0.0,0.0,0.0,0.0,0.0,0.0,-1.4682,-1.6657,-1.5954,-1.5703,0.0,0.0,-1.4715,-1.3912,-1.3826,-1.3539,0.0,0.0,0.0,0.0,0.0,0.0,0.0,0.0,0.0,0.0,0.0,0.0,0.0,0.0,0.0,0.0,0.0,0.0,0.0,0.0,0.0,0.0,0.0,0.0,0.0,0.0,0.0,0.0,0.0,0.0,0.0,0.0,0.0,0.0,0.0,0.0,0.0,0.0,0.0,0.0,0.0,0.0,0.0,0.0,0.0,0.0,0.0,0.0,0.0,0.0,0.0,0.0,0.0,0.0,0.0,-1.5095,-1.5711,-1.591,-1.5621,-1.5876,-1.6057,-1.6049,-1.5436,-1.493,0.0,0.0,0.0,0.0,0.0,0.0,0.0,0.0,0.0,0.0,0.0,0.0,0.0,0.0,0.0,0.0,0.0,0.0,0.0,0.0,0.0,0.0,0.0,0.0,0.0,0.0,0.0,0.0,0.0,0.0,0.0,0.0,0.0,0.0,0.0,0.0,0.0,0.0,0.0,0.0,0.0,-1.5444,-1.5846,-1.6365,-1.6665,0.0,0.0,-1.5485,-1.4752,-1.4585,-1.4346,-1.3552,0.0,0.0,0.0,0.0,0.0,0.0,0.0,0.0,0.0,0.0,0.0,0.0,0.0,0.0,0.0,0.0,0.0,0.0,0.0,0.0,0.0,0.0,0.0,0.0,0.0,0.0,0.0,0.0,0.0,0.0,0.0,0.0,0.0,0.0,0.0,0.0,0.0,0.0,0.0,0.0,0.0,0.0,0.0,0.0,0.0,0.0,0.0,0.0,0.0,0.0,0.0,0.0,0.0,-1.5151,-1.5269,-1.5752,-1.5944,-1.5895,-1.5977,-1.6067,-1.6018,-1.5944,-1.5554,0.0,0.0,0.0,0.0,0.0,0.0,0.0,0.0,0.0,0.0,0.0,0.0,0.0,0.0,0.0,0.0,0.0,0.0,0.0,0.0,0.0,0.0,0.0,0.0,0.0,0.0,0.0,0.0,-1.2908,-1.3095,-1.2688,0.0,0.0,0.0,0.0,0.0,0.0,0.0,0.0,0.0,0.0,-1.6075,-1.6989,-1.7676,0.0,0.0,-1.7401,-1.6404,-1.5815,-1.49,-1.4069,-1.3568,-1.3161,0.0,0.0,0.0,0.0,0.0,0.0,0.0,0.0,0.0,0.0,0.0,0.0,0.0,0.0,0.0,0.0,0.0,0.0,0.0,0.0,0.0,0.0,0.0,0.0,0.0,0.0,0.0,0.0,0.0,0.0,0.0,0.0,0.0,0.0,0.0,0.0,0.0,0.0,0.0,0.0,0.0,0.0,0.0,0.0,0.0,0.0,0.0,0.0,0.0,0.0,0.0,0.0,-1.5193,-1.5394,-1.5876,-1.6116,-1.6126,-1.6175,-1.6216,-1.6216,-1.6314,-1.609,0.0,0.0,0.0,0.0,0.0,0.0,0.0,0.0,0.0,0.0,0.0,0.0,0.0,0.0,0.0,0.0,0.0,0.0,0.0,0.0,0.0,0.0,0.0,0.0,0.0,0.0,0.0,0.0,-1.3233,-1.3348,-1.2968,0.0,0.0,0.0,0.0,0.0,0.0,0.0,0.0,0.0,0.0,-1.6725,-1.8145,-1.8619,-1.8996,-1.9579,-1.8359,-1.7072,-1.6353,-1.5192,-1.4261,-1.383,0.0,0.0,0.0,0.0,0.0,0.0,0.0,0.0,0.0,0.0,0.0,0.0,0.0,0.0,0.0,0.0,0.0,0.0,0.0,0.0,0.0,0.0,0.0,0.0,0.0,0.0,0.0,0.0,0.0,0.0,0.0,0.0,0.0,0.0,0.0,0.0,0.0,0.0,0.0,0.0,0.0,0.0,0.0,0.0,0.0,0.0,0.0,0.0,0.0,0.0,0.0,0.0,0.0,-1.5179,-1.5436,-1.6083,-1.6445,-1.6437,-1.6609,-1.6698,-1.669,-1.6527,-1.6412,-1.6329,0.0,0.0,0.0,0.0,0.0,0.0,0.0,0.0,0.0,0.0,0.0,0.0,0.0,0.0,0.0,0.0,0.0,0.0,0.0,0.0,0.0,0.0,0.0,0.0,0.0,0.0,-1.2817,-1.3209,-1.3438,0.0,0.0,0.0,0.0,0.0,0.0,0.0,0.0,0.0,0.0,-1.6453,-1.7463,-1.9187,-1.9105,-1.8954,-1.9162,-1.8448,-1.7435,-1.6188,-1.5677,-1.519,0.0,0.0,0.0,0.0,0.0,0.0,0.0,0.0,0.0,0.0,0.0,0.0,0.0,0.0,0.0,0.0,0.0,0.0,0.0,0.0,0.0,0.0,0.0,0.0,0.0,0.0,0.0,-1.0457,-1.0669,0.0,0.0,0.0,0.0,0.0,0.0,0.0,0.0,0.0,0.0,0.0,-1.3525,-1.3694,0.0,0.0,0.0,0.0,0.0,0.0,0.0,0.0,0.0,0.0,0.0,0.0,-1.5928,-1.6476,-1.7392,-1.8009,-1.8287,-1.8407,-1.8158,-1.7594,-1.7925,-1.757,-1.6427,0.0,0.0,0.0,0.0,0.0,0.0,0.0,0.0,0.0,0.0,0.0,0.0,0.0,0.0,0.0,0.0,0.0,0.0,0.0,0.0,0.0,0.0,0.0,0.0,0.0,-1.2838,0.0,0.0,0.0,0.0,0.0,0.0,0.0,0.0,0.0,0.0,0.0,-1.4818,-1.556,-1.6941,-1.8095,-1.8692,-1.9598,-2.0346,0.0,0.0,0.0,0.0,0.0,0.0,0.0,0.0,0.0,0.0,0.0,0.0,0.0,0.0,-1.2331,-1.2013,-1.1969,-1.1982,-1.2056,0.0,0.0,0.0,0.0,0.0,0.0,0.0,0.0,0.0,0.0,0.0,0.0,0.0,0.0,0.0,0.0,-1.1424,0.0,0.0,0.0,0.0,0.0,0.0,0.0,0.0,-1.3737,-1.3948,-1.3797,-1.396,-1.3954,0.0,-1.4075,-1.4064,0.0,0.0,0.0,0.0,0.0,0.0,0.0,0.0,-1.6365,-1.6878,-1.7759,-1.8397,-1.8696,-1.8637,-1.835,-1.7888,-1.8103,-1.7689,-1.6477,-1.4853,-1.387,0.0,0.0,0.0,0.0,0.0,0.0,0.0,0.0,0.0,0.0,0.0,0.0,0.0,0.0,0.0,0.0,0.0,0.0,0.0,0.0,0.0,0.0,0.0,-1.3252,0.0,0.0,0.0,0.0,0.0,0.0,0.0,0.0,0.0,-1.428,-1.4796,-1.5394,-1.6144,-1.7401,-1.8416,-1.8782,0.0,0.0,0.0,0.0,0.0,0.0,0.0,-1.5646,-1.5321,-1.4984,-1.467,-1.4613,-1.4288,-1.4021,-1.4015,0.0,0.0,-1.2684,-1.2659,-1.2704,-1.2704,-1.2545,-1.2442,-1.2447,-1.2292,-1.2184,0.0,0.0,0.0,0.0,0.0,0.0,0.0,0.0,-1.2081,-1.2035,0.0,-1.2064,0.0,0.0,0.0,0.0,0.0,0.0,0.0,0.0,-1.4076,-1.4298,-1.4292,-1.4292,-1.4292,-1.4346,-1.458,-1.4687,-1.4663,-1.4435,0.0,0.0,0.0,0.0,0.0,0.0,-1.6411,-1.6566,-1.7275,-1.7573,-1.7593,-1.7339,-1.7296,-1.7541,-1.707,-1.666,-1.6441,-1.5557,-1.4999,-1.4763,-1.3945,0.0,0.0,0.0,0.0,0.0,0.0,0.0,0.0,0.0,0.0,0.0,0.0,0.0,0.0,0.0,0.0,0.0,0.0,0.0,0.0,-1.3062,0.0,0.0,0.0,0.0,0.0,0.0,0.0,0.0,0.0,0.0,-1.434,-1.525,-1.6323,-1.7398,0.0,0.0,0.0,0.0,-1.9072,-1.8878,-1.8572,-1.8011,-1.7001,-1.6549,-1.6128,-1.5603,0.0,0.0,-1.5192,-1.4676,-1.4367,-1.431,-1.4521,-1.4399,-1.3339,-1.2998,-1.2797,-1.2797,-1.2807,-1.2735,-1.2786,-1.2822,-1.2755,-1.2992,0.0,0.0,0.0,0.0,-1.2296,-1.2628,-1.3037,-1.328,-1.3328,-1.3263,-1.3222,0.0,0.0,0.0,0.0,0.0,0.0,-1.3637,-1.382,-1.4172,-1.4298,-1.4298,-1.4298,-1.4298,-1.4298,-1.4586,-1.5067,-1.5671,-1.5149,-1.4909,-1.4995,0.0,0.0,0.0,0.0,-1.631,-1.6094,-1.6988,-1.7307,-1.7033,-1.6938,-1.6894,-1.6799,-1.5503,-1.493,-1.526,-1.4437,-1.3954,-1.3863,-1.366,0.0,0.0,0.0,0.0,0.0,0.0,0.0,0.0,0.0,0.0,0.0,0.0,0.0,0.0,0.0,0.0,0.0,0.0,0.0,-1.2641,-1.3355,-1.3705,0.0,0.0,0.0,0.0,0.0,0.0,0.0,0.0,0.0,-1.5143,-1.565,-1.6234,0.0,0.0,-1.8115,-1.8436,-1.8429,-1.8475,-1.8774,0.0,0.0,0.0,-1.6749,-1.619,-1.5848,-1.5761,-1.5777,-1.5665,-1.5399,-1.5147,-1.5141,-1.5046,-1.4803,-1.4523,-1.4236,-1.397,-1.3827,-1.3773,-1.3773,-1.3773,-1.3779,-1.3768,-1.3825,-1.3383,-1.2858,-1.2786,-1.3009,-1.3163,-1.3439,-1.3823,-1.3973,-1.3973,-1.3871,-1.3898,-1.3684,-1.3299,-1.3151,0.0,0.0,0.0,-1.3826,-1.407,-1.4202,-1.4298,-1.4298,-1.4298,-1.4298,-1.4298,-1.4442,-1.4914,-1.5609,-1.5166,-1.5046,-1.5206,0.0,0.0,-1.5336,-1.6157,-1.661,-1.674,-1.7364,-1.7553,-1.7318,-1.6906,-1.6575,-1.6206,-1.4917,-1.4331,-1.4582,-1.4093,-1.3827,-1.3821,-1.3725,-1.3664,0.0,0.0,0.0,0.0,0.0,0.0,0.0,0.0,0.0,0.0,0.0,-1.1781,-1.1963,0.0,0.0,0.0,-1.2509,-1.2662,-1.2894,-1.3394,0.0,0.0,0.0,0.0,0.0,0.0,0.0,-1.4853,-1.5149,-1.5533,-1.6091,-1.6426,-1.6798,-1.7193,-1.7687,-1.8062,-1.8115,0.0,-1.8003,-1.7989,-1.7424,-1.6996,-1.7023,-1.6628,-1.6215,-1.5949,-1.5889,-1.5885,-1.5885,-1.5737,-1.5636,-1.5636,-1.5523,-1.5303,-1.5202,-1.5041,-1.4832,-1.4455,-1.4245,-1.4196,-1.4196,-1.4196,-1.4196,-1.4298,-1.4244,-1.3775,-1.3727,-1.3931,-1.3931,-1.4064,-1.4298,-1.4298,-1.416,-1.3925,-1.416,-1.4016,-1.3588,-1.3539,0.0,-1.3931,-1.3931,-1.4064,-1.4298,-1.4298,-1.4298,-1.4298,-1.4298,-1.4298,-1.4298,-1.4298,-1.4448,-1.4688,-1.464,-1.5159,-1.6055,-1.5404,-1.5601,-1.6534,-1.6629,-1.7052,-1.78,-1.7846,-1.7854,-1.78,-1.6911,-1.619,-1.5697,-1.501,-1.4538,-1.4298,-1.4298,-1.4298,-1.4292,-1.4069,-1.3936,-1.3924,0.0,0.0,0.0,0.0,0.0,0.0,0.0,0.0,0.0,0.0,0.0,0.0,0.0,0.0,0.0,-1.2785,0.0,-1.3098,-1.3394,0.0,0.0,0.0,-1.4727,-1.4745,-1.498,-1.5188,-1.5239,0.0,0.0,-1.707,0.0,-1.7674,-1.7955,-1.7982,-1.8094,-1.8265,-1.7989,-1.7569,-1.6836,-1.6677,-1.6524,-1.6346,-1.6264,-1.6158,-1.5921,-1.5885,-1.5885,-1.5885,-1.5885,-1.5885,-1.5885,-1.5885,-1.5838,-1.5589,-1.5482,-1.5315,-1.4773,-1.445,-1.4245,-1.4245,-1.4191,-1.4196,-1.4298,-1.4298,-1.4154,-1.416,-1.4208,-1.4202,-1.425,-1.4298,-1.4298,-1.425,-1.4208,-1.4298,-1.4202,-1.4106,-1.4106,-1.4154,-1.4208,-1.4208,-1.425,-1.4298,-1.4298,-1.4298,-1.4298,-1.4298,-1.4298,-1.4298,-1.4298,-1.4346,-1.4394,-1.4394,-1.464,-1.5016,-1.4879,-1.5404,-1.6534,-1.6763,-1.648,-1.5838,-1.5784,-1.5635,-1.5201,-1.4962,-1.4771,-1.4675,-1.449,-1.4346,-1.4298,-1.4298,-1.4298,-1.4298,-1.4238,-1.4201,-1.4201,-1.3654,0.0,0.0,0.0,0.0,0.0,0.0,0.0,0.0,0.0,-1.211,-1.24,0.0,-1.2726,0.0,-1.292,-1.3152,-1.3394,-1.3636,0.0,0.0,-1.4481,-1.4749,-1.4998,-1.5246,-1.5758,-1.6619,-1.6866,-1.7141,-1.7468,-1.758,-1.7659,-1.7674,-1.8048,-1.7996,-1.7252,-1.6842,-1.6636,-1.6477,-1.6318,-1.6045,-1.6051,-1.5998,-1.6004,-1.5885,-1.5885,-1.5885,-1.5885,-1.5885,-1.5885,-1.5885,-1.5885,-1.5891,-1.5838,-1.5636,-1.5476,-1.5261,-1.488,-1.4498,-1.4498,-1.4342,-1.4191,-1.3854,-1.4298,-1.4298,-1.4298,-1.4298,-1.4298,-1.4298,-1.4298,-1.4298,-1.4298,-1.4298,-1.4298,-1.4298,-1.4298,-1.4298,-1.4298,-1.4298,-1.4298,-1.4298,-1.4298,-1.4298,-1.4298,-1.4298,-1.4298,-1.4298,-1.4298,-1.4298,-1.4298,-1.4298,-1.4298,-1.458,-1.5201,-1.5201,-1.5676,-1.6581,-1.6567,-1.6473,-1.6251,-1.6143,-1.5954,-1.5615,-1.5188,-1.4956,-1.4956,-1.4538,-1.4298,-1.4298,-1.4298,-1.4298,-1.4298,-1.4298,-1.4298,-1.4292,-1.3815,-1.3374,0.0,0.0,0.0,0.0,0.0,0.0,0.0,0.0,0.0,0.0,0.0,-1.3001,-1.3104,-1.3195,-1.3346,-1.3497,-1.431,-1.468,-1.4345,-1.5208,-1.5859,-1.6011,-1.6284,-1.6716,-1.7328,-1.7527,-1.7589,-1.7589,-1.7589,-1.7589,-1.7589,-1.7845,-1.7845,-1.7312,-1.7358,-1.7411,-1.6955,-1.7153,-1.7147,-1.6736,-1.6205,-1.5885,-1.5885,-1.5885,-1.5885,-1.5885,-1.5885,-1.5885,-1.5885,-1.5885,-1.5885,-1.5885,-1.5791,-1.569,-1.5636,-1.5309,-1.4982,-1.4821,-1.4557,-1.4401,-1.3468,-1.4298,-1.4298,-1.4298,-1.4298,-1.4298,-1.4298,-1.4298,-1.4298,-1.4298,-1.4298,-1.4298,-1.4298,-1.4298,-1.4298,-1.4298,-1.4298,-1.4298,-1.4298,-1.4298,-1.4298,-1.4298,-1.4298,-1.4298,-1.4298,-1.4298,-1.4298,-1.4298,-1.4298,-1.4298,-1.4771,-1.5609,-1.5656,-1.5906,-1.6393,-1.615,-1.6466,-1.7365,-1.7063,-1.6915,-1.6915,-1.6075,-1.5609,-1.5561,-1.4765,-1.4298,-1.4298,-1.4298,-1.4298,-1.4298,-1.4298,-1.4298,-1.4292,-1.3844,-1.352,0.0,-1.2761,0.0,0.0,0.0,0.0,0.0,0.0,0.0,0.0,-1.3098,-1.3201,-1.3491,-1.3539,-1.3556,-1.3633,-1.499,-1.5453,-1.4612,-1.5961,-1.6974,-1.702,-1.7265,-1.7477,-1.7582,-1.7589,-1.7589,-1.7589,-1.7589,-1.7582,-1.7371,-1.7318,-1.7378,-1.7635,-1.8251,-1.8506,-1.7845,-1.8454,-1.8244,-1.7364,-1.6471,-1.5885,-1.5885,-1.5885,-1.5885,-1.5885,-1.5885,-1.5885,-1.5885,-1.5885,-1.5885,-1.5885,-1.5885,-1.5885,-1.5891,-1.5684,-1.5422,-1.5148,-1.4874,-1.4659,-1.4148,-1.4298,-1.4298,-1.4298,-1.4298,-1.4298,-1.4298,-1.4298,-1.4298,-1.4298,-1.4298,-1.4298,-1.4298,-1.4298,-1.4298,-1.4298,-1.4298,-1.4298,-1.4298,-1.4298,-1.4298,-1.4298,-1.4298,-1.4298,-1.4298,-1.4298,-1.4298,-1.4298,-1.4298,-1.4298,-1.449,-1.4873,-1.4921,-1.5077,-1.5363,0.0,0.0,0.0,-1.5112,-1.486,-1.486,-1.4675,-1.458,-1.458,-1.4388,0.0,-1.4298,-1.4298,-1.4298,-1.4298,-1.4298,0.0,0.0,0.0,0.0,0.0,0.0,0.0,0.0,0.0,0.0,0.0,-1.2989,-1.2958,-1.2856,-1.3007,-1.3195,-1.3491,-1.369,-1.4019,-1.4421,-1.4728,-1.5027,-1.5249,-1.5588,-1.5937,-1.6094,-1.6234,-1.6577,-1.7477,-1.7589,-1.7589,-1.7582,-1.7589,-1.7213,-1.6411,-1.6205,-1.663,-1.7477,-1.7793,-1.8153,-1.8662,-1.8408,-1.7523,-1.6418,-1.6099,-1.5885,-1.5885,-1.5885,-1.5885,-1.5885,-1.5885,-1.5885,-1.5885,-1.5885,-1.5885,-1.5885,-1.5885,-1.5885,-1.5885,-1.5838,-1.5737,-1.5476,-1.5148,-1.4928,-1.343,0.0,-1.4298,-1.4298,0.0,-1.4298,-1.4298,-1.4298,-1.4298,-1.4298,-1.4298,-1.4298,-1.4298,-1.4298,-1.4298,-1.4298,-1.4298,-1.4298,-1.4298,-1.4298,-1.4298,-1.4298,-1.4298,-1.4298,-1.4298,-1.4298,-1.4298,-1.4298,-1.4298,-1.4298,-1.4346,-1.449,-1.449,-1.4592,-1.4688,-1.4586,-1.4592,-1.4688,-1.4442,-1.4298,-1.4298,-1.4298,-1.4298,-1.4298,0.0,0.0,0.0,0.0,0.0,0.0,0.0,0.0,0.0,0.0,0.0,-1.3737,-1.3499,-1.3357,-1.3345,-1.3208,-1.3169,-1.3281,-1.3292,-1.3244,-1.3152,-1.3346,-1.3582,-1.3877,-1.414,-1.4423,-1.4659,-1.5432,-1.5808,-1.5573,-1.6137,-1.659,-1.6711,-1.6736,-1.6948,-1.7483,-1.7589,-1.7424,-1.6836,-1.6783,-1.6524,-1.5992,-1.5885,-1.6311,-1.7371,-1.7589,-1.7996,-1.8968,-1.8304,-1.7424,-1.6842,-1.6211,-1.5885,-1.5885,-1.5885,-1.5885,-1.5885,-1.5885,-1.5885,-1.5885,-1.5885,-1.5885,-1.5885,-1.5885,-1.5885,-1.5885,-1.5885,-1.5885,-1.5684,-1.547,-1.5261,-1.2785,-1.4443,-1.4437,-1.4437,-1.4437,-1.4389,-1.437,-1.4364,0.0,0.0,0.0,-1.4298,-1.4298,-1.4298,-1.4298,-1.4298,-1.4298,-1.4298,-1.4298,-1.4298,-1.4298,-1.4298,-1.4298,-1.4298,-1.4298,-1.4298,-1.4298,-1.4298,-1.4298,-1.4298,-1.4298,-1.4298,-1.4298,-1.4298,-1.4298,-1.4298,-1.4298,-1.4298,-1.4298,-1.4298,-1.4298,-1.4298,-1.4298,-1.4298,-1.4298,-1.4298,-1.4298,-1.4298,-1.4298,-1.4298,-1.4298,-1.4298,-1.4298,-1.4298,-1.4202,-1.3979,-1.3931,-1.3835,-1.3636,-1.3588,-1.3588,-1.3588,-1.3588,-1.3539,-1.3491,-1.3779,-1.4044,-1.4274,-1.4575,-1.4805,-1.4853,-1.6081,-1.6536,-1.5664,-1.6603,-1.7259,-1.7265,-1.7265,-1.7213,-1.7318,-1.7265,-1.6948,-1.6099,-1.5939,-1.5885,-1.5885,-1.5885,-1.6205,-1.7107,-1.7681,-1.8153,-1.861,-1.8094,-1.7529,-1.716,-1.6524,-1.5939,-1.5885,-1.5885,-1.5885,-1.5885,-1.5885,-1.5885,-1.5885,-1.5885,-1.5885,-1.5885,-1.5885,-1.5885,-1.5885,-1.5885,-1.5885,-1.5885,-1.5737,-1.5583,-1.3841,-1.4992,-1.4992,-1.4992,-1.4974,-1.4757,-1.466,-1.4636,-1.4407,-1.4298,-1.4298,-1.4298,-1.4298,-1.4298,-1.4298,-1.4298,-1.4298,-1.4298,-1.4298,0.0,-1.4298,-1.4298,-1.4298,-1.4298,-1.4298,-1.4298,-1.4298,-1.4298,-1.4298,-1.4298,-1.4298,-1.4298,-1.4298,-1.4298,-1.4298,-1.4298,-1.4298,-1.4298,-1.4298,-1.4298,-1.4298,-1.4298,-1.4298,-1.4298,-1.4298,-1.4298,-1.4298,-1.4298,-1.4298,-1.4298,-1.4298,-1.4298,-1.4298,-1.4298,-1.4298,-1.4256,-1.4027,-1.3973,-1.4154,-1.3973,-1.3841,-1.3835,-1.3835,-1.3738,-1.3545,-1.3941,-1.426,-1.4321,-1.4745,-1.5149,-1.536,-1.5606,-1.5851,-1.5842,-1.6021,-1.6152,-1.6205,-1.6205,-1.6211,-1.6205,-1.6105,-1.6152,-1.5939,-1.5885,-1.5885,-1.5885,-1.5885,-1.5992,-1.6411,-1.7772,-1.8506,-1.8042,-1.774,-1.7213,-1.6471,-1.6045,-1.5885,-1.5885,-1.5885,-1.5885,-1.5885,-1.5885,-1.5885,-1.5885,-1.5885,-1.5885,-1.5885,-1.5885,-1.5885,-1.5885,-1.5885,-1.5885,-1.5885,-1.5838,-1.5844,-1.3251,-1.4225,-1.4847,-1.5113,-1.5101,-1.498,-1.4926,-1.4914,-1.4793,-1.4733,-1.4733,-1.4733,-1.4733,-1.4739,-1.4739,-1.4733,-1.4733,-1.4733,-1.466,-1.4527,-1.4527,-1.4437,-1.431,-1.4298,-1.4298,-1.4298,-1.4298,-1.4298,-1.4298,-1.4298,-1.4298,-1.4298,-1.4298,-1.4298,-1.4298,-1.4298,-1.4298,-1.4298,-1.4298,-1.4298,-1.4298,-1.4298,-1.4298,-1.4298,-1.4298,-1.4298,-1.4298,-1.4298,-1.4298,-1.4298,-1.4298,-1.4298,-1.4298,-1.4298,-1.4298,-1.4298,-1.4208,-1.4154,-1.4298,-1.4208,-1.4183,-1.4326,-1.4338,-1.4355,-1.4386,-1.4473,-1.457,-1.4719,-1.5116,-1.5366,-1.5493,-1.562,-1.5759,-1.5879,-1.5885,-1.5885,-1.5885,-1.5885,-1.5885,-1.5885,-1.5885,-1.5885,-1.5885,-1.5885,-1.5885,-1.5885,-1.5885,-1.5885,-1.5885,-1.6723,-1.7246,-1.6783,-1.6683,-1.6471,-1.5992,-1.5885,-1.5885,-1.5885,-1.5885,-1.5885,-1.5885,-1.5885,-1.5885,-1.5885,-1.5885,-1.5885,-1.5885,-1.5885,-1.5885,-1.5885,-1.5885,-1.5885,-1.5885,-1.5885,-1.5885,-1.2341,-1.3547,-1.4499,-1.4989,-1.5197,-1.5191,-1.5197,-1.5197,-1.5197,-1.5228,-1.527,-1.5167,-1.5113,-1.5113,-1.5113,-1.5113,-1.5113,-1.5113,-1.4992,-1.4817,-1.4805,-1.469,-1.4497,-1.4479,-1.4479,-1.4467,-1.4419,-1.4395,-1.4383,-1.4334,-1.4298,-1.4298,-1.4298,-1.4298,-1.4298,-1.4298,-1.4298,-1.4298,-1.4298,-1.4298,-1.4298,-1.4298,-1.4298,-1.4298,-1.4298,-1.4298,-1.4298,-1.4298,-1.4298,-1.4298,-1.4298,-1.4298,-1.4298,-1.4298,-1.4298,-1.4298,-1.4298,-1.4328,-1.4389,-1.4395,-1.4515,-1.4775,-1.4805,-1.492,-1.5143,-1.5016,-1.4974,-1.5185,-1.5433,-1.559,-1.562,-1.5759,-1.5885,-1.5885,-1.5885,-1.5885,-1.5885,-1.5885,-1.5885,-1.5885,-1.5885,-1.5885,-1.5885,-1.5885,-1.5885,-1.5885,-1.5885,-1.5885,-1.5885,-1.5885,-1.5885,-1.5885,-1.5885,-1.5939,-1.5885,-1.5885,-1.5885,-1.5885,-1.5885,-1.5885,-1.5885,-1.5885,-1.5885,-1.5885,-1.5885,-1.5885,-1.5885,-1.5885,-1.5885,-1.5885,-1.5885,-1.5885,-1.5885,-1.5885,-1.5885,-1.1656,-1.359,-1.4078,-1.4724,-1.5365,-1.5405,-1.5359,-1.5411,-1.5463,-1.5596,-1.5688,-1.5318,-1.5131,-1.5113,-1.5131,-1.5137,-1.5137,-1.5113,-1.5107,-1.5077,-1.5071,-1.5059,-1.5004,-1.5022,-1.5034,-1.4986,-1.4787,-1.4672,-1.466,-1.4437,-1.431,-1.4298,-1.4298,-1.4322,-1.431,-1.4316,-1.431,-1.4298,-1.4298,-1.4298,-1.4298,-1.4298,-1.4298,-1.4298,-1.4298,-1.4298,-1.4298,-1.4298,-1.4298,-1.4298,-1.4298,-1.4298,-1.4298,-1.4298,-1.4298,-1.431,-1.431,-1.4407,-1.4648,-1.4684,-1.4793,-1.5034,-1.5077,-1.5185,-1.5433,-1.5433,-1.5427,-1.5499,-1.5704,-1.5825,-1.5849,-1.5873,-1.5885,-1.5885,-1.5885,-1.5885,-1.5885,-1.5885,-1.5885,-1.5885,-1.5885,-1.5885,-1.5885,-1.5885,-1.5885,-1.5885,-1.5885,-1.5885,-1.5885,-1.5885,-1.5885,-1.5885,-1.5885,-1.5885,-1.5885,-1.5885,-1.5885,-1.5885,-1.5885,-1.5885,-1.5885,-1.5885,-1.5885,-1.5885,-1.5885,-1.5885,-1.5885,-1.5885,-1.5885,-1.5885,-1.5885,-1.5885,-1.5885,-1.5885,-1.5885,-1.0773,-1.1751,-1.2689,-1.3342,-1.364,-1.3683,-1.3683,-1.3741,-1.4445,-1.4832,-1.5001,-1.534,-1.5572,-1.5565,-1.5572,-1.5572,-1.5572,-1.5572,-1.5481,-1.5348,-1.5342,-1.5258,-1.5119,-1.5113,-1.5113,-1.5107,-1.4998,-1.4944,-1.4926,-1.4829,-1.4775,-1.4781,-1.4781,-1.4775,-1.4775,-1.4775,-1.4775,-1.4775,-1.4775,-1.4781,-1.4739,-1.4455,-1.4298,-1.4298,-1.4298,-1.4298,-1.4298,-1.4298,-1.4298,-1.4298,-1.4298,-1.4298,-1.4298,-1.4455,-1.4545,-1.4558,-1.4696,-1.4823,-1.4944,-1.495,-1.5065,-1.5324,-1.5336,-1.5451,-1.5698,-1.5728,-1.5728,-1.5741,-1.5831,-1.5885,-1.5885,-1.5885,-1.5885,-1.5885,-1.5885,-1.5885,-1.5885,-1.5885,-1.5885,-1.5885,-1.5885,-1.5885,-1.5885,-1.5885,-1.5885,-1.5885,-1.5885,-1.5885,-1.5885,-1.5885,-1.5885,-1.5885,-1.5885,-1.5885,-1.5885,-1.5885,-1.5885,-1.5885,-1.5885,-1.5885,-1.5885,-1.5885,-1.5885,-1.5885,-1.5885,-1.5885,-1.5885,-1.5885,-1.5885,-1.5885,-1.5885,-1.5885,-1.5885,-1.5885,-1.5885,-0.9688,-1.0171,-1.1651,-1.2309,-1.2417,-1.2417,-1.2417,-1.2526,-1.3673,-1.4169,-1.4326,-1.5405,-1.5885,-1.5885,-1.5885,-1.5885,-1.5885,-1.5885,-1.5789,-1.562,-1.5602,-1.5505,-1.533,-1.5318,-1.5324,-1.5306,-1.5252,-1.5173,-1.5125,-1.5113,-1.5113,-1.5113,-1.5113,-1.5113,-1.5113,-1.5113,-1.5113,-1.5107,-1.5113,-1.5113,-1.5052,-1.4721,-1.4521,-1.4515,-1.4515,-1.4521,-1.4521,-1.4521,-1.4515,-1.4521,-1.4515,-1.4515,-1.4527,-1.4714,-1.4823,-1.4835,-1.5004,-1.5137,-1.5203,-1.5215,-1.533,-1.5565,-1.5602,-1.5686,-1.5837,-1.5885,-1.5885,-1.5879,-1.5885,-1.5885,-1.5885,-1.5885,-1.5885,-1.5885,-1.5885,-1.5885,-1.5885,-1.5885,-1.5885,-1.5885,-1.5885,-1.5885,-1.5885,-1.5885,-1.5885,-1.5885,-1.5885,-1.5885,-1.5885,-1.5885,-1.5885,-1.5885,-1.5885,-1.5885,-1.5885,-1.5885,-1.5885,-1.5885,-1.5885,-1.5885,-1.5885,-1.5885,-1.5885,-1.5885,-1.5885,-1.5885,-1.5885,-1.5885,-1.5885,-1.5885,-1.5885,-1.5885,-1.5885,-1.5885,-1.5885,-0.8367,-0.9504,-1.1265,-1.2037,-1.2363,-1.2254,-1.2309,-1.2358,-1.3619,-1.4169,-1.4331,-1.541,-1.5885,-1.5885,-1.5885,-1.5885,-1.5885,-1.5885,-1.5873,-1.5843,-1.5855,-1.5861,-1.5861,-1.5861,-1.5837,-1.5765,-1.5578,-1.5372,-1.5155,-1.5137,-1.5113,-1.5131,-1.5155,-1.5131,-1.5155,-1.5167,-1.5125,-1.5167,-1.5167,-1.5137,-1.5131,-1.5095,-1.5071,-1.5071,-1.5059,-1.5034,-1.5046,-1.5059,-1.5059,-1.5065,-1.5034,-1.5052,-1.5059,-1.5077,-1.5089,-1.5107,-1.5119,-1.5234,-1.5445,-1.5481,-1.559,-1.5807,-1.5843,-1.5873,-1.5879,-1.5885,-1.5891,-1.5885,-1.5885,-1.5885,-1.5885,-1.5885,-1.5885,-1.5885,-1.5885,-1.5885,-1.5885,-1.5885,-1.5885,-1.5885,-1.5885,-1.5885,-1.5885,-1.5885,-1.5885,-1.5885,-1.5885,-1.5885,-1.5885,-1.5885,-1.5885,-1.5885,-1.5885,-1.5885,-1.5885,-1.5885,-1.5885,-1.5885,-1.5885,-1.5885,-1.5885,-1.5885,-1.5885,-1.5885,-1.5885,-1.5885,-1.5885,-1.5885,-1.5885,-1.5885,-1.5885,-1.5885,-1.5885,-1.5885,-1.5885,-0.7934,-0.853,-0.9137,-0.9633,-0.9908,-0.9908,-1.0457,-1.1433,-1.2526,-1.3506,-1.4326,-1.5405,-1.5885,-1.5885,-1.5885,-1.5885,-1.5885,-1.5885,-1.5885,-1.5885,-1.5885,-1.5885,-1.5885,-1.5885,-1.5885,-1.5873,-1.5795,-1.5704,-1.562,-1.5608,-1.5608,-1.5608,-1.5602,-1.5608,-1.5608,-1.5608,-1.5608,-1.5608,-1.5608,-1.5608,-1.559,-1.5608,-1.5608,-1.559,-1.5276,-1.5113,-1.5113,-1.5113,-1.5113,-1.5113,-1.5113,-1.5113,-1.5125,-1.527,-1.5433,-1.559,-1.5608,-1.565,-1.5734,-1.5753,-1.5783,-1.5873,-1.5737,-1.5737,-1.5838,-1.5737,-1.5684,-1.5838,-1.5885,-1.5885,-1.5885,-1.5885,-1.5885,-1.5885,-1.5885,-1.5885,-1.5885,-1.5885,-1.5885,-1.5885,-1.5885,-1.5885,-1.5885,-1.5885,-1.5885,-1.5885,-1.5885,-1.5885,-1.5885,-1.5885,-1.5885,-1.5885,-1.5885,-1.5885,-1.5885,-1.5885,-1.5885,-1.5885,-1.5885,-1.5885,-1.5885,-1.5885,-1.5885,-1.5885,-1.5885,-1.5885,-1.5885,-1.5885,-1.5885,-1.5885,-1.5885,-1.5885,-1.5885,-1.5885,-1.5885,-0.7604,-0.7826,-0.7881,-0.81,-0.8484,-0.854,-0.9089,-1.0237,-1.1324,-1.2526,-1.3673,-1.4809,-1.5512,-1.5885,-1.5885,-1.5885,-1.5885,-1.5885,-1.5885,-1.5885,-1.5885,-1.5885,-1.5885,-1.5885,-1.5885,-1.5885,-1.5885,-1.5885,-1.5885,-1.5885,-1.5885,-1.5879,-1.5885,-1.5885,-1.5885,-1.5885,-1.5885,-1.5885,-1.5885,-1.5885,-1.5885,-1.5885,-1.5885,-1.5837,-1.5541,-1.536,-1.536,-1.536,-1.536,-1.536,-1.536,-1.536,-1.5384,-1.5529,-1.5698,-1.5861,-1.5879,-1.5885,-1.5885,-1.5885,-1.5885,-1.5891,-1.569,-1.5636,-1.5838,-1.5636,-1.5636,-1.5838,-1.5885,-1.5885,-1.5885,-1.5885,-1.5885,-1.5885,-1.5885,-1.5885,-1.5885,-1.5885,-1.5885,-1.5885,-1.5885,-1.5885,-1.5885,-1.5885,-1.5885,-1.5885,-1.5885,-1.5885,-1.5885,-1.5885,-1.5885,-1.5885,-1.5885,-1.5885,-1.5885,-1.5885,-1.5885,-1.5885,-1.5885,-1.5885,-1.5885,-1.5885,-1.5885,-1.5885,-1.5891,-1.5891,-1.5891,-1.5891,-1.5903,-1.591,-1.5885,-1.5885,-1.5885,-1.5885,-1.5928,-0.7379,-0.7607,-0.7607,-0.7934,-0.8429,-0.8429,-0.8654,-0.9372,-1.0347,-1.1596,-1.2906,-1.384,-1.4922,-1.5725,-1.5885,-1.5885,-1.5885,-1.5885,-1.5885,-1.5885,-1.5885,-1.5885,-1.5885,-1.5885,-1.5885,-1.5885,-1.5885,-1.5885,-1.5885,-1.5885,-1.5885,-1.5885,-1.5885,-1.5885,-1.5885,-1.5885,-1.5885,-1.5885,-1.5885,-1.5885,-1.5885,-1.5885,-1.5885,-1.5885,-1.5843,-1.5825,-1.5849,-1.5843,-1.5819,-1.5831,-1.5843,-1.5873,-1.5825,-1.5849,-1.5879,-1.5879,-1.5885,-1.5885,-1.5885,-1.5885,-1.5891,-1.5838,-1.5636,-1.5583,-1.5737,-1.5636,-1.5583,-1.5838,-1.5885,-1.5885,-1.5885,-1.5885,-1.5885,-1.5885,-1.5885,-1.5885,-1.5885,-1.5885,-1.5885,-1.5885,-1.5885,-1.5885,-1.5885,-1.5885,-1.5885,-1.5885,-1.5885,-1.5885,-1.5885,-1.5885,-1.5885,-1.5885,-1.5885,-1.5885,-1.5885,-1.5885,-1.5885,-1.5885,-1.5885,-1.5885,-1.5885,-1.5885,-1.5885,-1.5891,-1.5994,-1.6,-1.6042,-1.6048,-1.6091,-1.6091,-1.6006,-1.6018,-1.6079,-1.6127,-1.6054,-0.7268,-0.7324,-0.7324,-0.7657,-0.81,-0.8152,-0.8871,-1.0076,-1.0566,-1.1819,-1.3457,-1.4002,-1.4815,-1.5672,-1.5885,-1.5885,-1.5885,-1.5885,-1.5885,-1.5885,-1.5885,-1.5885,-1.5885,-1.5885,-1.5885,-1.5885,-1.5885,-1.5885,-1.5885,-1.5885,-1.5885,-1.5885,-1.5885,-1.5885,-1.5885,-1.5885,-1.5885,-1.5885,-1.5885,-1.5885,-1.5885,-1.5885,-1.5885,-1.5885,-1.5885,-1.5885,-1.5885,-1.5885,-1.5885,-1.5885,-1.5885,-1.5885,-1.5885,-1.5885,-1.5885,-1.5885,-1.5885,-1.5885,-1.5885,-1.5885,-1.5791,-1.5636,-1.5369,-1.5315,-1.5529,-1.5369,-1.5416,-1.5785,-1.5885,-1.5885,-1.5885,-1.5885,-1.5885,-1.5885,-1.5885,-1.5885,-1.5885,-1.5885,-1.5885,-1.5885,-1.5885,-1.5885,-1.5885,-1.5885,-1.5885,-1.5885,-1.5885,-1.5885,-1.5885,-1.5885,-1.5885,-1.5885,-1.5885,-1.5885,-1.5885,-1.5885,-1.5885,-1.5885,-1.5885,-1.5885,-1.5885,-1.5952,-1.594,-1.6006,-1.6097,-1.6157,-1.6193,-1.6241,-1.6302,-1.6386,-1.641,-1.6429,-1.6447,-1.6398,-1.6314,-0.721,-0.721,-0.721,-0.7435,-0.7823,-0.7881,-0.8595,-0.9798,-0.9908,-1.0996,-1.2694,-1.3349,-1.4164,-1.5185,-1.5678,-1.5885,-1.5885,-1.5885,-1.5885,-1.5885,-1.5885,-1.5885,-1.5885,-1.5885,-1.5885,-1.5885,-1.5885,-1.5885,-1.5885,-1.5885,-1.5885,-1.5885,-1.5885,-1.5885,-1.5885,-1.5885,-1.5885,-1.5885,-1.5885,-1.5885,-1.5885,-1.5885,-1.5885,-1.5885,-1.5885,-1.5885,-1.5885,-1.5885,-1.5885,-1.5885,-1.5885,-1.5885,-1.5885,-1.5885,-1.5885,-1.5885,-1.5885,-1.5885,-1.5885,-1.5885,-1.5785,-1.5529,-1.5202,-1.5148,-1.5369,-1.5208,-1.5303,-1.5779,-1.5885,-1.5885,-1.5885,-1.5885,-1.5885,-1.5885,-1.5885,-1.5885,-1.5885,-1.5885,-1.5885,-1.5885,-1.5885,-1.5885,-1.5885,-1.5885,-1.5885,-1.5885,-1.5885,-1.5885,-1.5885,-1.5885,-1.5885,-1.5885,-1.5885,-1.5885,-1.5885,-1.5885,-1.5885,-1.5885,-1.5885,-1.5885,-1.5885,-1.6048,-1.6115,-1.629,-1.641,-1.6429,-1.6465,-1.6525,-1.6592,-1.6688,-1.6748,-1.6652,-1.6585,-1.6616,-1.6561,-0.721,-0.721,-0.721,-0.7324,-0.7607,-0.7607,-0.8045,-0.854,-0.8595,-0.9523,-1.0891,-1.2146,-1.3181,-1.4326,-1.5405,-1.5885,-1.5885,-1.5885,-1.5885,-1.5885,-1.5885,-1.5885,-1.5885,-1.5885,-1.5885,-1.5885,-1.5885,-1.5885,-1.5885,-1.5885,-1.5885,-1.5885,-1.5885,-1.5885,-1.5885,-1.5885,-1.5885,-1.5885,-1.5885,-1.5885,-1.5885,-1.5885,-1.5885,-1.5885,-1.5885,-1.5885,-1.5885,-1.5885,-1.5885,-1.5885,-1.5885,-1.5885,-1.5885,-1.5885,-1.5885,-1.5885,-1.5885,-1.5885,-1.5885,-1.5885,-1.5791,-1.5529,-1.5208,-1.5148,-1.5369,-1.5208,-1.5256,-1.5832,-1.5885,-1.5885,-1.5885,-1.5885,-1.5885,-1.5885,-1.5885,-1.5885,-1.5885,-1.5885,-1.5885,-1.5885,-1.5885,-1.5885,-1.5885,-1.5885,-1.5885,-1.5885,-1.5885,-1.5885,-1.5885,-1.5885,-1.5885,-1.5885,-1.5885,-1.5885,-1.5891,-1.6018,-1.603,-1.606,-1.6066,-1.6091,-1.6054,-1.6199,-1.6338,-1.6513,-1.6688,-1.6712,-1.6761,-1.6827,-1.6869,-1.693,-1.6893,-1.6767,-1.6791,-1.6875,-1.6887,-0.721,-0.721,-0.721,-0.7324,-0.7607,-0.7607,-0.7934,-0.8484,-0.8484,-0.9306,-1.0726,-1.1923,-1.3073,-1.4218,-1.5351,-1.5885,-1.5885,-1.5885,-1.5885,-1.5885,-1.5885,-1.5885,-1.5885,-1.5885,-1.5885,-1.5885,-1.5885,-1.5885,-1.5885,-1.5885,-1.5885,-1.5885,-1.5885,-1.5885,-1.5885,-1.5885,-1.5885,-1.5885,-1.5885,-1.5885,-1.5885,-1.5885,-1.5885,-1.5885,-1.5885,-1.5885,-1.5885,-1.5885,-1.5885,-1.5885,-1.5885,-1.5885,-1.5885,-1.5885,-1.5885,-1.5885,-1.5885,-1.5885,-1.5885,-1.5885,-1.5785,-1.5529,-1.5208,-1.5148,-1.5428,-1.5202,-1.5309,-1.5731,-1.5885,-1.5885,-1.5885,-1.5885,-1.5885,-1.5885,-1.5885,-1.5885,-1.5885,-1.5885,-1.5885,-1.5885,-1.5885,-1.5885,-1.5885,-1.5885,-1.5885,-1.5885,-1.5885,-1.5885,-1.5885,-1.5885,-1.5885,-1.5885,-1.5885,-1.5885,-1.5934,-1.6091,-1.6193,-1.6247,-1.6314,-1.6429,-1.6404,-1.6441,-1.6555,-1.6682,-1.6905,-1.699,-1.7068,-1.7147,-1.7171,-1.7159,-1.7189,-1.7153,-1.7231,-1.7304,-1.7274,-0.721,-0.721,-0.721,-0.7268,-0.7438,-0.7438,-0.7712,-0.81,-0.8263,-0.914,-1.0503,-1.1819,-1.3073,-1.4218,-1.4917,-1.5458,-1.5785,-1.5405,-1.5458,-1.5885,-1.5885,-1.5885,-1.5885,-1.5885,-1.5885,-1.5885,-1.5885,-1.5885,-1.5885,-1.5885,-1.5885,-1.5885,-1.5885,-1.5885,-1.5885,-1.5885,-1.5885,-1.5885,-1.5885,-1.5885,-1.5885,-1.5885,-1.5885,-1.5885,-1.5885,-1.5885,-1.5885,-1.5885,-1.5885,-1.5885,-1.5885,-1.5885,-1.5885,-1.5885,-1.5885,-1.5885,-1.5885,-1.5885,-1.5885,-1.5885,-1.5678,-1.5369,-1.5208,-1.5256,-1.5315,-1.5208,-1.5422,-1.5785,-1.5885,-1.5885,-1.5885,-1.5885,-1.5885,-1.5885,-1.5885,-1.5885,-1.5885,-1.5885,-1.5885,-1.5885,-1.5885,-1.5885,-1.5885,-1.5885,-1.5885,-1.5885,-1.5885,-1.5885,-1.5885,-1.5885,-1.5903,-1.5922,-1.5946,-1.597,-1.6079,-1.6235,-1.6441,-1.6501,-1.664,-1.6748,-1.6748,-1.6748,-1.6863,-1.6996,-1.7153,-1.7261,-1.7304,-1.7346,-1.7364,-1.7388,-1.7473,-1.7485,-1.7485,-1.7485,-1.7485,-0.721,-0.721,-0.721,-0.721,-0.721,-0.721,-0.7379,-0.7662,-0.7934,-0.8758,-1.0123,-1.1651,-1.2748,-1.384,-1.4105,-1.4702,-1.5405,-1.4654,-1.5137,-1.5618,-1.5885,-1.5885,-1.5885,-1.5885,-1.5885,-1.5885,-1.5885,-1.5885,-1.5885,-1.5885,-1.5885,-1.5885,-1.5885,-1.5885,-1.5885,-1.5885,-1.5885,-1.5885,-1.5885,-1.5885,-1.5885,-1.5885,-1.5885,-1.5885,-1.5885,-1.5885,-1.5885,-1.5885,-1.5885,-1.5885,-1.5885,-1.5885,-1.5885,-1.5885,-1.5885,-1.5885,-1.5885,-1.5885,-1.5885,-1.5891,-1.5678,-1.5256,-1.5374,-1.5374,-1.5261,-1.5315,-1.5583,-1.5891,-1.5885,-1.5885,-1.5885,-1.5885,-1.5885,-1.5885,-1.5885,-1.5885,-1.5885,-1.5885,-1.5885,-1.5885,-1.5885,-1.5885,-1.5885,-1.5885,-1.5885,-1.5885,-1.5885,-1.5885,-1.5885,-1.5885,-1.594,-1.6006,-1.6036,-1.6072,-1.6223,-1.6398,-1.6622,-1.6797,-1.6984,-1.7092,-1.7092,-1.7123,-1.7237,-1.734,-1.7352,-1.7376,-1.7424,-1.7461,-1.7485,-1.7485,-1.7485,-1.7485,-1.7485,-1.7485,-1.7485,-0.721,-0.721,-0.721,-0.721,-0.721,-0.721,-0.7379,-0.7607,-0.7881,-0.8371,-0.9302,-1.1378,-1.1982,-1.1651,-1.3236,-1.3889,-1.3668,-1.4002,-1.4815,-1.5779,-1.5885,-1.5885,-1.5885,-1.5885,-1.5885,-1.5885,-1.5885,-1.5885,-1.5885,-1.5885,-1.5885,-1.5885,-1.5885,-1.5885,-1.5885,-1.5885,-1.5885,-1.5885,-1.5885,-1.5885,-1.5885,-1.5885,-1.5885,-1.5885,-1.5885,-1.5885,-1.5885,-1.5885,-1.5885,-1.5885,-1.5885,-1.5885,-1.5885,-1.5885,-1.5885,-1.5885,-1.5885,-1.5885,-1.5885,-1.5891,-1.5791,-1.5476,-1.5374,-1.5482,-1.5428,-1.5422,-1.5583,-1.5838,-1.5885,-1.5885,-1.5885,-1.5885,-1.5885,-1.5885,-1.5885,-1.5885,-1.5885,-1.5885,-1.5885,-1.5885,-1.5885,-1.5885,-1.5885,-1.5885,-1.5885,-1.5885,-1.5885,-1.5885,-1.591,-1.5928,-1.6042,-1.6163,-1.6229,-1.6308,-1.6537,-1.6712,-1.6911,-1.705,-1.7213,-1.7322,-1.7322,-1.734,-1.7394,-1.743,-1.7455,-1.7485,-1.7485,-1.7485,-1.7485,-1.7485,-1.7485,-1.7485,-1.7485,-1.7485,-1.7485,-0.721,-0.721,-0.721,-0.721,-0.721,-0.721,-0.7268,-0.749,-0.7823,-0.8429,-0.9306,-1.0941,-1.1487,-1.1487,-1.2254,-1.2635,-1.3506,-1.4433,-1.5298,-1.5838,-1.5885,-1.5885,-1.5885,-1.5885,-1.5885,-1.5885,-1.5885,-1.5885,-1.5885,-1.5885,-1.5885,-1.5885,-1.5885,-1.5885,-1.5885,-1.5885,-1.5885,-1.5885,-1.5885,-1.5885,-1.5885,-1.5885,-1.5885,-1.5885,-1.5885,-1.5885,-1.5885,-1.5885,-1.5885,-1.5885,-1.5885,-1.5885,-1.5885,-1.5885,-1.5885,-1.5885,-1.5885,-1.5885,-1.5891,-1.5791,-1.5636,-1.5535,-1.5374,-1.5267,-1.5261,-1.5261,-1.5422,-1.5636,-1.5737,-1.5737,-1.5885,-1.5885,-1.5885,-1.5885,-1.5885,-1.5885,-1.5885,-1.5885,-1.5885,-1.5885,-1.5885,-1.5885,-1.5885,-1.5885,-1.5885,-1.5885,-1.591,-1.5928,-1.6115,-1.6151,-1.6278,-1.6386,-1.6453,-1.6592,-1.6845,-1.7056,-1.7237,-1.7322,-1.737,-1.7424,-1.7424,-1.7443,-1.7473,-1.7485,-1.7485,-1.7485,-1.7485,-1.7485,-1.7485,-1.7485,-1.7485,-1.7485,-1.7485,-1.7485,-1.7485,-0.721,-0.721,-0.721,-0.721,-0.721,-0.721,-0.721,-0.7268,-0.7712,-0.8429,-0.9523,-1.0288,-1.1051,-1.1492,-1.1109,-1.2037,-1.3619,-1.4922,-1.5458,-1.5838,-1.5885,-1.5885,-1.5885,-1.5885,-1.5885,-1.5885,-1.5885,-1.5885,-1.5885,-1.5885,-1.5885,-1.5885,-1.5885,-1.5885,-1.5885,-1.5885,-1.5885,-1.5885,-1.5885,-1.5885,-1.5885,-1.5885,-1.5885,-1.5885,-1.5885,-1.5885,-1.5885,-1.5885,-1.5885,-1.5885,-1.5885,-1.5885,-1.5885,-1.5885,-1.5885,-1.5885,-1.5885,-1.5885,-1.5838,-1.5684,-1.5482,-1.5428,-1.5208,-1.4987,-1.4987,-1.5041,-1.5208,-1.5422,-1.5583,-1.5684,-1.5838,-1.5891,-1.5885,-1.5885,-1.5885,-1.5885,-1.5885,-1.5885,-1.5885,-1.5885,-1.5885,-1.5885,-1.5885,-1.5885,-1.5885,-1.5903,-1.5934,-1.6018,-1.6211,-1.6392,-1.6513,-1.6646,-1.673,-1.6869,-1.7117,-1.7201,-1.7406,-1.7449,-1.7485,-1.7485,-1.7485,-1.7485,-1.7485,-1.7485,-1.7485,-1.7485,-1.7485,-1.7485,-1.7485,-1.7485,-1.7485,-1.7485,-1.7485,-1.7485,-1.7485,-0.721,-0.721,-0.721,-0.721,-0.721,-0.721,-0.721,-0.7268,-0.7549,-0.7878,-0.8484,-0.9633,-0.9908,-0.986,-1.0511,-1.1487,-1.2852,-1.4213,-1.519,-1.5785,-1.5885,-1.5885,-1.5885,-1.5885,-1.5885,-1.5885,-1.5885,-1.5885,-1.5885,-1.5885,-1.5885,-1.5885,-1.5885,-1.5885,-1.5885,-1.5885,-1.5885,-1.5885,-1.5885,-1.5885,-1.5885,-1.5885,-1.5885,-1.5885,-1.5885,-1.5885,-1.5885,-1.5885,-1.5885,-1.5885,-1.5885,-1.5885,-1.5885,-1.5885,-1.5885,-1.5885,-1.5885,-1.5885,-1.5838,-1.5636,-1.5369,-1.5148,-1.5041,-1.4874,-1.4821,-1.4874,-1.5041,-1.5363,-1.5577,-1.5737,-1.5589,-1.5684,-1.5838,-1.5885,-1.5838,-1.5838,-1.5891,-1.5891,-1.5891,-1.5891,-1.5891,-1.5891,-1.5897,-1.5934,-1.5982,-1.606,-1.6157,-1.6247,-1.641,-1.6592,-1.6754,-1.6887,-1.702,-1.7183,-1.7376,-1.7394,-1.7467,-1.7467,-1.7485,-1.7485,-1.7485,-1.7485,-1.7485,-1.7485,-1.7485,-1.7485,-1.7485,-1.7485,-1.7485,-1.7485,-1.7485,-1.7485,-1.7485,-1.7485,-1.7485,-0.721,-0.721,-0.721,-0.721,-0.721,-0.721,-0.721,-0.7268,-0.7493,-0.7773,-0.8211,-0.8923,-0.9203,-0.9099,-0.9427,-1.0676,-1.2472,-1.432,-1.5351,-1.5885,-1.5885,-1.5885,-1.5885,-1.5885,-1.5885,-1.5885,-1.5885,-1.5885,-1.5885,-1.5885,-1.5885,-1.5885,-1.5885,-1.5885,-1.5885,-1.5885,-1.5885,-1.5885,-1.5885,-1.5885,-1.5885,-1.5885,-1.5885,-1.5885,-1.5885,-1.5885,-1.5885,-1.5885,-1.5885,-1.5885,-1.5885,-1.5885,-1.5885,-1.5885,-1.5885,-1.5885,-1.5885,-1.5891,-1.5838,-1.569,-1.5428,-1.5267,-1.4987,-1.4767,-1.4606,-1.4611,-1.4773,-1.4982,-1.5256,-1.5363,-1.5261,-1.5357,-1.541,-1.541,-1.5464,-1.5523,-1.569,-1.5684,-1.5809,-1.5928,-1.5934,-1.5934,-1.5922,-1.5982,-1.6072,-1.6199,-1.6356,-1.6495,-1.6628,-1.6803,-1.699,-1.7117,-1.7237,-1.731,-1.7449,-1.7461,-1.7485,-1.7485,-1.7485,-1.7485,-1.7485,-1.7485,-1.7485,-1.7485,-1.7485,-1.7485,-1.7485,-1.7485,-1.7485,-1.7485,-1.7485,-1.7485,-1.7485,-1.7485,-1.7485,-0.721,-0.721,-0.721,-0.721,-0.721,-0.721,-0.721,-0.7268,-0.7438,-0.766,-0.7934,-0.8266,-0.8598,-0.893,-0.9588,-1.0789,-1.2635,-1.4804,-1.5779,-1.5885,-1.5885,-1.5885,-1.5885,-1.5885,-1.5885,-1.5885,-1.5885,-1.5885,-1.5885,-1.5885,-1.5885,-1.5885,-1.5885,-1.5885,-1.5885,-1.5885,-1.5885,-1.5885,-1.5885,-1.5885,-1.5885,-1.5885,-1.5885,-1.5885,-1.5885,-1.5885,-1.5885,-1.5885,-1.5885,-1.5885,-1.5885,-1.5891,-1.5844,-1.5791,-1.5785,-1.5731,-1.5779,-1.5785,-1.5624,-1.5416,-1.5208,-1.5154,-1.4773,-1.4606,-1.4498,-1.4455,-1.4396,-1.4552,-1.4874,-1.4982,-1.4982,-1.4982,-1.5035,-1.5035,-1.5095,-1.5154,-1.5451,-1.5642,-1.5815,-1.5923,-1.5952,-1.6042,-1.6091,-1.6223,-1.6356,-1.6453,-1.6604,-1.6754,-1.6893,-1.7062,-1.7231,-1.7352,-1.743,-1.743,-1.7473,-1.7473,-1.7485,-1.7485,-1.7485,-1.7485,-1.7485,-1.7485,-1.7485,-1.7485,-1.7485,-1.7485,-1.7485,-1.7485,-1.7485,-1.7485,-1.7485,-1.7485,-1.7485,-1.7485,-1.7485,-0.721,-0.721,-0.721,-0.721,-0.721,-0.721,-0.721,-0.721,-0.7268,-0.7382,-0.7715,-0.7989,-0.8266,-0.9089,-1.1,-1.1982,-1.3122,-1.4696,-1.5885,-1.5885,-1.5885,-1.5885,-1.5885,-1.5885,-1.5885,-1.5885,-1.5885,-1.5885,-1.5885,-1.5885,-1.5885,-1.5885,-1.5885,-1.5885,-1.5885,-1.5885,-1.5885,-1.5885,-1.5885,-1.5885,-1.5885,-1.5885,-1.5885,-1.5885,-1.5885,-1.5885,-1.5885,-1.5885,-1.5885,-1.5885,-1.5891,-1.5791,-1.5589,-1.5535,-1.5369,-1.5309,-1.5309,-1.5422,-1.5196,-1.4982,-1.4821,-1.4826,-1.4509,-1.4299,-1.4299,-1.4455,-1.4396,-1.424,-1.4671,-1.4826,-1.4713,-1.4821,-1.4928,-1.4951,-1.4914,-1.5135,-1.5421,-1.5643,-1.5853,-1.6161,-1.6313,-1.635,-1.6362,-1.6513,-1.6658,-1.6748,-1.6857,-1.7002,-1.7129,-1.7274,-1.7352,-1.7443,-1.7485,-1.7485,-1.7485,-1.7485,-1.7485,-1.7485,-1.7485,-1.7485,-1.7485,-1.7485,-1.7485,-1.7485,-1.7485,-1.7485,-1.7485,-1.7485,-1.7485,-1.7485,-1.7485,-1.7485,-1.7485,-1.7485,-1.7485,-0.721,-0.721,-0.721,-0.721,-0.721,-0.721,-0.721,-0.721,-0.721,-0.7435,-0.7771,-0.7934,-0.8592,-0.9908,-1.1705,-1.2797,-1.3673,-1.5137,-1.5891,-1.5885,-1.5885,-1.5885,-1.5885,-1.5885,-1.5885,-1.5885,-1.5885,-1.5885,-1.5885,-1.5885,-1.5885,-1.5885,-1.5885,-1.5885,-1.5885,-1.5885,-1.5885,-1.5885,-1.5885,-1.5885,-1.5885,-1.5885,-1.5885,-1.5885,-1.5885,-1.5885,-1.5885,-1.5885,-1.5885,-1.5891,-1.5791,-1.5636,-1.5482,-1.5321,-1.5095,-1.4826,-1.488,-1.4987,-1.4982,-1.4874,-1.4713,-1.4606,-1.445,-1.4396,-1.4293,-1.4293,-1.4347,-1.4191,-1.4401,-1.4509,-1.4455,-1.4509,-1.4509,-1.4591,-1.475,-1.5023,-1.531,-1.5658,-1.5919,-1.6292,-1.6606,-1.6662,-1.6718,-1.6815,-1.6923,-1.6972,-1.7086,-1.7237,-1.7316,-1.7382,-1.7436,-1.7467,-1.7485,-1.7485,-1.7485,-1.7485,-1.7485,-1.7485,-1.7485,-1.7485,-1.7485,-1.7485,-1.7485,-1.7485,-1.7485,-1.7485,-1.7485,-1.7485,-1.7485,-1.7485,-1.7485,-1.7485,-1.7485,-1.7485,-1.7485,-0.721,-0.721,-0.721,-0.721,-0.721,-0.721,-0.721,-0.721,-0.721,-0.7432,-0.7768,-0.7989,-0.8975,-1.0617,-1.1873,-1.3014,-1.4223,-1.5405,-1.5779,-1.5885,-1.5885,-1.5885,-1.5885,-1.5885,-1.5885,-1.5885,-1.5885,-1.5885,-1.5885,-1.5885,-1.5885,-1.5885,-1.5885,-1.5885,-1.5885,-1.5885,-1.5885,-1.5885,-1.5885,-1.5885,-1.5885,-1.5885,-1.5885,-1.5885,-1.5885,-1.5885,-1.5885,-1.5885,-1.5885,-1.5737,-1.5636,-1.5482,-1.5208,-1.4987,-1.4773,-1.4557,-1.4557,-1.4617,-1.4671,-1.4671,-1.4659,-1.4552,-1.4504,-1.4342,-1.4245,-1.4196,-1.4196,-1.4196,-1.4191,-1.4245,-1.4207,-1.4288,-1.4358,-1.4445,-1.4548,-1.4845,-1.5166,-1.5637,-1.6169,-1.6642,-1.6921,-1.7071,-1.7141,-1.7165,-1.7201,-1.7213,-1.7322,-1.7455,-1.7479,-1.7473,-1.7479,-1.7485,-1.7485,-1.7485,-1.7485,-1.7485,-1.7485,-1.7485,-1.7485,-1.7485,-1.7485,-1.7485,-1.7485,-1.7485,-1.7485,-1.7485,-1.7485,-1.7485,-1.7485,-1.7485,-1.7485,-1.7485,-1.7485,-1.7485,-1.7485,-0.721,-0.721,-0.721,-0.721,-0.721,-0.721,-0.721,-0.721,-0.721,-0.7265,-0.7487,-0.7931,-0.9196,-1.0726,-1.2091,-1.3236,-1.4331,-1.5405,-1.5779,-1.5885,-1.5885,-1.5885,-1.5885,-1.5885,-1.5885,-1.5885,-1.5885,-1.5885,-1.5885,-1.5885,-1.5885,-1.5885,-1.5885,-1.5885,-1.5885,-1.5885,-1.5885,-1.5885,-1.5885,-1.5885,-1.5885,-1.5885,-1.5885,-1.5885,-1.5885,-1.5885,-1.5891,-1.5922,-1.5875,-1.5671,-1.5593,-1.5323,-1.5016,-1.4842,-1.463,-1.4473,-1.4413,-1.4473,-1.4473,-1.4451,-1.4299,-1.4245,-1.424,-1.424,-1.4191,-1.4196,-1.4196,-1.4223,-1.4261,-1.4261,-1.4304,-1.4363,-1.4492,-1.4579,-1.4753,-1.5097,-1.5444,-1.5898,-1.6368,-1.6938,-1.7201,-1.7322,-1.7364,-1.734,-1.734,-1.7346,-1.7358,-1.7485,-1.7485,-1.7479,-1.7479,-1.7485,-1.7485,-1.7485,-1.7485,-1.7485,-1.7485,-1.7485,-1.7485,-1.7485,-1.7485,-1.7485,-1.7485,-1.7485,-1.7485,-1.7485,-1.7485,-1.7485,-1.7485,-1.7485,-1.7485,-1.7485,-1.7485,-1.7485,-1.7485,-0.721,-0.721,-0.721,-0.721,-0.721,-0.721,-0.721,-0.721,-0.721,-0.7379,-0.7765,-0.8865,-1.0233,-1.1705,-1.296,-1.4159,-1.519,-1.5618,-1.5832,-1.5885,-1.5885,-1.5885,-1.5885,-1.5885,-1.5885,-1.5885,-1.5885,-1.5885,-1.5885,-1.5885,-1.5885,-1.5885,-1.5885,-1.5885,-1.5885,-1.5885,-1.5885,-1.5885,-1.5885,-1.5885,-1.5885,-1.5885,-1.5885,-1.5885,-1.5885,-1.5988,-1.6103,-1.6127,-1.6066,-1.5936,-1.5751,-1.5409,-1.5066,-1.4845,-1.4734,-1.4629,-1.4573,-1.4579,-1.4514,-1.4374,-1.4196,-1.4196,-1.4191,-1.4213,-1.4245,-1.4213,-1.4293,-1.4342,-1.4401,-1.4433,-1.4627,-1.4692,-1.4756,-1.4815,-1.5031,-1.5344,-1.5695,-1.6078,-1.6506,-1.6937,-1.7229,-1.7436,-1.7461,-1.7467,-1.7467,-1.7467,-1.7479,-1.7485,-1.7485,-1.7485,-1.7485,-1.7485,-1.7485,-1.7485,-1.7485,-1.7485,-1.7485,-1.7485,-1.7485,-1.7485,-1.7485,-1.7485,-1.7485,-1.7485,-1.7485,-1.7485,-1.7485,-1.7485,-1.7485,-1.7485,-1.7485,-1.7485,-1.7485,-1.7485,-1.7485,-0.721,-0.721,-0.721,-0.721,-0.721,-0.721,-0.721,-0.721,-0.721,-0.7487,-0.8097,-0.9467,-1.0941,-1.2358,-1.3619,-1.4756,-1.5565,-1.5885,-1.5885,-1.5885,-1.5885,-1.5885,-1.5885,-1.5885,-1.5885,-1.5885,-1.5885,-1.5885,-1.5885,-1.5885,-1.5885,-1.5885,-1.5885,-1.5885,-1.5885,-1.5885,-1.5885,-1.5885,-1.5885,-1.5885,-1.5885,-1.5885,-1.597,-1.5994,-1.603,-1.6169,-1.6338,-1.6416,-1.6317,-1.6134,-1.5912,-1.5654,-1.5327,-1.5112,-1.4942,-1.4891,-1.4891,-1.4896,-1.4789,-1.4638,-1.4401,-1.446,-1.4449,-1.4439,-1.4401,-1.4396,-1.4536,-1.4606,-1.4649,-1.4713,-1.4907,-1.4923,-1.4977,-1.5042,-1.5219,-1.5529,-1.579,-1.6124,-1.6527,-1.6921,-1.7197,-1.7367,-1.7485,-1.7485,-1.7485,-1.7485,-1.7485,-1.7485,-1.7485,-1.7485,-1.7485,-1.7485,-1.7485,-1.7485,-1.7485,-1.7485,-1.7485,-1.7485,-1.7485,-1.7485,-1.7485,-1.7485,-1.7485,-1.7485,-1.7485,-1.7485,-1.7485,-1.7485,-1.7485,-1.7485,-1.7485,-1.7485,-1.7485,-1.7485,-1.7485,-0.721,-0.721,-0.721,-0.721,-0.721,-0.721,-0.721,-0.721,-0.721,-0.749,-0.81,-0.9357,-1.0832,-1.2413,-1.3781,-1.4976,-1.5672,-1.5885,-1.5885,-1.5885,-1.5885,-1.5885,-1.5885,-1.5885,-1.5885,-1.5885,-1.5885,-1.5885,-1.5885,-1.5885,-1.5885,-1.5885,-1.5885,-1.5885,-1.5885,-1.5885,-1.5885,-1.5885,-1.5885,-1.5891,-1.594,-1.5952,-1.606,-1.6229,-1.6278,-1.641,-1.6622,-1.6688,-1.6636,-1.6431,-1.6091,-1.5807,-1.5528,-1.5164,-1.5039,-1.4972,-1.4955,-1.4934,-1.4896,-1.4875,-1.4848,-1.4778,-1.4708,-1.474,-1.4815,-1.4832,-1.4821,-1.4859,-1.488,-1.4891,-1.4988,-1.5095,-1.5192,-1.5231,-1.5461,-1.565,-1.5897,-1.6085,-1.6478,-1.6844,-1.702,-1.7144,-1.7367,-1.7485,-1.7485,-1.7485,-1.7485,-1.7485,-1.7485,-1.7485,-1.7485,-1.7485,-1.7485,-1.7485,-1.7485,-1.7485,-1.7485,-1.7485,-1.7485,-1.7485,-1.7485,-1.7485,-1.7485,-1.7485,-1.7485,-1.7485,-1.7485,-1.7485,-1.7485,-1.7485,-1.7485,-1.7485,-1.7485,-1.7485,-1.7485,-0.721,-0.721,-0.721,-0.721,-0.721,-0.721,-0.721,-0.721,-0.721,-0.7435,-0.8152,-0.9896,-1.126,-1.2571,-1.4261,-1.5464,-1.5779,-1.5885,-1.5885,-1.5885,-1.5885,-1.5885,-1.5885,-1.5885,-1.5885,-1.5885,-1.5885,-1.5885,-1.5885,-1.5885,-1.5885,-1.5885,-1.5885,-1.5885,-1.5885,-1.5885,-1.5885,-1.5885,-1.5903,-1.5958,-1.6121,-1.6163,-1.6284,-1.6537,-1.6555,-1.6688,-1.6936,-1.6954,-1.6906,-1.6726,-1.6385,-1.6113,-1.584,-1.5544,-1.5327,-1.5338,-1.5348,-1.5354,-1.5359,-1.5338,-1.5187,-1.5036,-1.4929,-1.4939,-1.4891,-1.4885,-1.4961,-1.5085,-1.5122,-1.5182,-1.5359,-1.5413,-1.5478,-1.5483,-1.5634,-1.5758,-1.5946,-1.607,-1.6318,-1.6785,-1.702,-1.7197,-1.7367,-1.7485,-1.7485,-1.7485,-1.7485,-1.7485,-1.7485,-1.7485,-1.7485,-1.7485,-1.7485,-1.7485,-1.7485,-1.7485,-1.7485,-1.7485,-1.7485,-1.7485,-1.7485,-1.7485,-1.7485,-1.7485,-1.7485,-1.7485,-1.7485,-1.7485,-1.7485,-1.7485,-1.7485,-1.7485,-1.7485,-1.7485,-1.7485,-0.721,-0.721,-0.721,-0.721,-0.721,-0.721,-0.721,-0.721,-0.721,-0.7543,-0.8589,-1.0495,-1.1914,-1.3014,-1.4648,-1.5838,-1.5885,-1.5885,-1.5885,-1.5885,-1.5885,-1.5885,-1.5885,-1.5885,-1.5885,-1.5885,-1.5885,-1.5885,-1.5885,-1.5885,-1.5885,-1.5885,-1.5885,-1.5885,-1.5885,-1.5885,-1.5885,-1.5916,-1.597,-1.6115,-1.6254,-1.638,-1.6555,-1.6748,-1.6863,-1.696,-1.7147,-1.7249,-1.7181,-1.7026,-1.6779,-1.6419,-1.6135,-1.5839,-1.5661,-1.5601,-1.5601,-1.5585,-1.5569,-1.5569,-1.5392,-1.5219,-1.5138,-1.5133,-1.5133,-1.5187,-1.5241,-1.5327,-1.5295,-1.5435,-1.5548,-1.5601,-1.5601,-1.5596,-1.5655,-1.5779,-1.5839,-1.5963,-1.62,-1.6667,-1.702,-1.7191,-1.7426,-1.7426,-1.7485,-1.7485,-1.7485,-1.7485,-1.7485,-1.7485,-1.7485,-1.7485,-1.7485,-1.7485,-1.7485,-1.7485,-1.7485,-1.7485,-1.7485,-1.7485,-1.7485,-1.7485,-1.7485,-1.7485,-1.7485,-1.7485,-1.7485,-1.7485,-1.7485,-1.7485,-1.7485,-1.7485,-1.7485,-1.7485,-1.7485,-0.721,-0.721,-0.721,-0.721,-0.721,-0.721,-0.721,-0.721,-0.7265,-0.8094,-0.9416,-1.0617,-1.1978,-1.3511,-1.488,-1.5523,-1.5731,-1.5779,-1.5885,-1.5885,-1.5885,-1.5885,-1.5885,-1.5885,-1.5885,-1.5885,-1.5885,-1.5885,-1.5885,-1.5885,-1.5885,-1.5885,-1.5885,-1.5922,-1.594,-1.5964,-1.5964,-1.6024,-1.6193,-1.6344,-1.6483,-1.6616,-1.6833,-1.7014,-1.7123,-1.7219,-1.7352,-1.743,-1.739,-1.7191,-1.6832,-1.6596,-1.6301,-1.5952,-1.572,-1.5601,-1.5601,-1.5601,-1.5601,-1.5601,-1.5591,-1.5467,-1.5515,-1.5569,-1.5537,-1.5467,-1.5478,-1.5499,-1.5526,-1.5553,-1.5601,-1.5601,-1.5601,-1.5601,-1.5601,-1.5661,-1.5661,-1.5839,-1.6135,-1.649,-1.6844,-1.7138,-1.7367,-1.7485,-1.7485,-1.7485,-1.7485,-1.7485,-1.7485,-1.7485,-1.7485,-1.7485,-1.7485,-1.7485,-1.7485,-1.7485,-1.7485,-1.7485,-1.7485,-1.7485,-1.7485,-1.7485,-1.7485,-1.7485,-1.7485,-1.7485,-1.7485,-1.7485,-1.7485,-1.7485,-1.7485,-1.7485,-1.7485,-1.7485,-1.7426,-0.721,-0.721,-0.721,-0.721,-0.721,-0.721,-0.721,-0.7265,-0.7983,-0.8754,-0.9192,-1.1433,-1.2146,-1.2358,-1.4439,-1.4928,-1.5196,-1.541,-1.5779,-1.5885,-1.5885,-1.5885,-1.5885,-1.5885,-1.5885,-1.5885,-1.5885,-1.5885,-1.5885,-1.5885,-1.5885,-1.5885,-1.5922,-1.6,-1.6097,-1.6169,-1.6187,-1.626,-1.6471,-1.6622,-1.6773,-1.6917,-1.7129,-1.7267,-1.7334,-1.7412,-1.7455,-1.7485,-1.7426,-1.7079,-1.672,-1.6484,-1.62,-1.5839,-1.5601,-1.5601,-1.5601,-1.5601,-1.5601,-1.5601,-1.5601,-1.5601,-1.5601,-1.5601,-1.5601,-1.5601,-1.5601,-1.5601,-1.5601,-1.5601,-1.5601,-1.5601,-1.5601,-1.5601,-1.5601,-1.5601,-1.5661,-1.5779,-1.6076,-1.6436,-1.679,-1.7138,-1.7426,-1.7485,-1.7485,-1.7485,-1.7485,-1.7485,-1.7485,-1.7485,-1.7485,-1.7485,-1.7485,-1.7485,-1.7485,-1.7485,-1.7485,-1.7485,-1.7485,-1.7485,-1.7485,-1.7485,-1.7485,-1.7485,-1.7485,-1.7485,-1.7485,-1.7485,-1.7485,-1.7485,-1.7485,-1.7485,-1.7485,-1.7485,-1.7303,-0.721,-0.721,-0.721,-0.721,-0.721,-0.721,-0.721,-0.7376,-0.7928,-0.8426,-0.9085,-1.0503,-1.1651,-1.2526,-1.3889,-1.4708,-1.5083,-1.5565,-1.5885,-1.5885,-1.5885,-1.5885,-1.5885,-1.5885,-1.5885,-1.5885,-1.5885,-1.5885,-1.5885,-1.5885,-1.5885,-1.5903,-1.5964,-1.6127,-1.6284,-1.6477,-1.6622,-1.6676,-1.6785,-1.6942,-1.7062,-1.7189,-1.7352,-1.7436,-1.7479,-1.7485,-1.7485,-1.7485,-1.7309,-1.702,-1.6661,-1.6366,-1.6081,-1.5785,-1.5601,-1.5601,-1.5601,-1.5601,-1.5601,-1.5601,-1.5601,-1.5601,-1.5601,-1.5601,-1.5601,-1.5601,-1.5601,-1.5601,-1.5601,-1.5601,-1.5601,-1.5601,-1.5601,-1.5601,-1.5601,-1.5601,-1.5661,-1.5715,-1.6076,-1.6495,-1.6844,-1.725,-1.7426,-1.7485,-1.7485,-1.7485,-1.7485,-1.7485,-1.7485,-1.7485,-1.7485,-1.7485,-1.7485,-1.7485,-1.7485,-1.7485,-1.7485,-1.7485,-1.7485,-1.7485,-1.7485,-1.7485,-1.7485,-1.7485,-1.7485,-1.7485,-1.7485,-1.7485,-1.7485,-1.7485,-1.7485,-1.7485,-1.7485,-1.7485,-1.7185,-0.721,-0.721,-0.721,-0.721,-0.721,-0.721,-0.721,-0.721,-0.7265,-0.7873,-0.8809,-0.9085,-1.0668,-1.2141,-1.329,-1.4153,-1.4804,-1.5452,-1.5885,-1.5885,-1.5885,-1.5885,-1.5885,-1.5885,-1.5885,-1.5885,-1.5885,-1.5885,-1.5885,-1.5891,-1.5903,-1.5928,-1.6133,-1.6314,-1.6507,-1.6797,-1.696,-1.7056,-1.708,-1.7159,-1.7201,-1.7334,-1.7485,-1.7479,-1.7485,-1.7485,-1.7426,-1.7367,-1.7309,-1.6961,-1.6667,-1.6307,-1.6016,-1.5779,-1.5661,-1.5601,-1.5601,-1.5601,-1.5601,-1.5601,-1.5601,-1.5601,-1.5601,-1.5601,-1.5601,-1.5601,-1.5601,-1.5601,-1.5601,-1.5601,-1.5601,-1.5601,-1.5601,-1.5601,-1.5601,-1.5601,-1.5601,-1.572,-1.6022,-1.6377,-1.6726,-1.7067,-1.7309,-1.7367,-1.7485,-1.7485,-1.7485,-1.7485,-1.7485,-1.7485,-1.7485,-1.7485,-1.7485,-1.7485,-1.7485,-1.7485,-1.7485,-1.7485,-1.7485,-1.7485,-1.7485,-1.7485,-1.7485,-1.7485,-1.7485,-1.7485,-1.7485,-1.7485,-1.7485,-1.7485,-1.7485,-1.7485,-1.7426,-1.7303,-1.6885,-0.721,-0.721,-0.721,-0.721,-0.721,-0.721,-0.721,-0.721,-0.721,-0.7817,-0.892,-0.9743,-1.0343,-1.1,-1.258,-1.3501,-1.3776,-1.5345,-1.5779,-1.5885,-1.5885,-1.5885,-1.5885,-1.5885,-1.5885,-1.5885,-1.5885,-1.5891,-1.5897,-1.591,-1.6,-1.6163,-1.6332,-1.6489,-1.6803,-1.7092,-1.7189,-1.7322,-1.734,-1.7346,-1.7376,-1.7406,-1.7485,-1.7485,-1.7485,-1.7367,-1.7256,-1.7138,-1.6785,-1.6377,-1.6259,-1.6016,-1.572,-1.5661,-1.5601,-1.5601,-1.5601,-1.5601,-1.5601,-1.5601,-1.5601,-1.5601,-1.5601,-1.5601,-1.5601,-1.5601,-1.5601,-1.5601,-1.5601,-1.5601,-1.5601,-1.5601,-1.5601,-1.5601,-1.5601,-1.5601,-1.5601,-1.5785,-1.5963,-1.6253,-1.6602,-1.6897,-1.7132,-1.7309,-1.7426,-1.7485,-1.7485,-1.7485,-1.7485,-1.7485,-1.7485,-1.7485,-1.7485,-1.7485,-1.7485,-1.7485,-1.7485,-1.7485,-1.7485,-1.7485,-1.7485,-1.7485,-1.7485,-1.7485,-1.7485,-1.7485,-1.7485,-1.7485,-1.7485,-1.7485,-1.7426,-1.7426,-1.6885,-1.6585,-1.6172,-0.721,-0.721,-0.721,-0.721,-0.721,-0.721,-0.721,-0.721,-0.721,-0.754,-0.8149,-0.8861,-0.9519,-1.0178,-1.1919,-1.3339,-1.3614,-1.5185,-1.5779,-1.5885,-1.5885,-1.5885,-1.5885,-1.5885,-1.5885,-1.5885,-1.5885,-1.5891,-1.5922,-1.6042,-1.6175,-1.6332,-1.6471,-1.6773,-1.7111,-1.7189,-1.7322,-1.7467,-1.7479,-1.7485,-1.7485,-1.7485,-1.7485,-1.7485,-1.7426,-1.7367,-1.725,-1.7073,-1.6726,-1.6312,-1.6076,-1.5839,-1.5661,-1.5601,-1.5601,-1.5601,-1.5601,-1.5601,-1.5601,-1.5601,-1.5601,-1.5601,-1.5601,-1.5601,-1.5601,-1.5601,-1.5601,-1.5601,-1.5601,-1.5601,-1.5601,-1.5601,-1.5601,-1.5601,-1.5601,-1.5601,-1.5661,-1.5844,-1.6076,-1.6366,-1.6714,-1.7015,-1.725,-1.7367,-1.7485,-1.7485,-1.7485,-1.7485,-1.7485,-1.7485,-1.7485,-1.7485,-1.7426,-1.7485,-1.7485,-1.7485,-1.7485,-1.7485,-1.7485,-1.7485,-1.7485,-1.7485,-1.7485,-1.7485,-1.7485,-1.7485,-1.7485,-1.7485,-1.7485,-1.7485,-1.7426,-1.7309,-1.6649,-1.593,-1.5035,-0.721,-0.721,-0.721,-0.721,-0.721,-0.721,-0.721,-0.721,-0.721,-0.721,-0.7265,-0.7321,-0.8751,-1.0284,-1.1474,-1.328,-1.4702,-1.5458,-1.5832,-1.5885,-1.5885,-1.5885,-1.5885,-1.5885,-1.5885,-1.5885,-1.5885,-1.594,-1.5994,-1.6139,-1.629,-1.6447,-1.6754,-1.7105,-1.7195,-1.7322,-1.7479,-1.7479,-1.7485,-1.7485,-1.7485,-1.7485,-1.7485,-1.7485,-1.7485,-1.7479,-1.7303,-1.7073,-1.6779,-1.6366,-1.5898,-1.572,-1.5601,-1.5601,-1.5601,-1.5601,-1.5601,-1.5601,-1.5601,-1.5601,-1.5601,-1.5601,-1.5601,-1.5601,-1.5601,-1.5601,-1.5601,-1.5601,-1.5601,-1.5601,-1.5601,-1.5601,-1.5601,-1.5601,-1.5601,-1.5601,-1.5726,-1.5844,-1.6076,-1.636,-1.6661,-1.6961,-1.7138,-1.7309,-1.7426,-1.7426,-1.7485,-1.7485,-1.7485,-1.7485,-1.7485,-1.7426,-1.7373,-1.7426,-1.7485,-1.7367,-1.7367,-1.7426,-1.7426,-1.7485,-1.7485,-1.7485,-1.7485,-1.7485,-1.7485,-1.7485,-1.7485,-1.7485,-1.7485,-1.7485,-1.7426,-1.7244,-1.6526,-1.5634,-1.3904,-0.721,-0.721,-0.721,-0.721,-0.721,-0.721,-0.721,-0.721,-0.721,-0.721,-0.721,-0.7321,-0.8202,-0.9798,-1.1034,-1.267,-1.4379,-1.5351,-1.5838,-1.5885,-1.5885,-1.5885,-1.5885,-1.5885,-1.5885,-1.5897,-1.5934,-1.6024,-1.6151,-1.6272,-1.6519,-1.6887,-1.6942,-1.7201,-1.7394,-1.7485,-1.7485,-1.7485,-1.7485,-1.7485,-1.7485,-1.7485,-1.7485,-1.7485,-1.7485,-1.7126,-1.6832,-1.6655,-1.6248,-1.5893,-1.5715,-1.5601,-1.5601,-1.5601,-1.5601,-1.5601,-1.5601,-1.5601,-1.5601,-1.5601,-1.5601,-1.5601,-1.5601,-1.5601,-1.5601,-1.5601,-1.5601,-1.5601,-1.5601,-1.5601,-1.5601,-1.5601,-1.5601,-1.5601,-1.5601,-1.5601,-1.5661,-1.5661,-1.5774,-1.6011,-1.6194,-1.6377,-1.6495,-1.6785,-1.7132,-1.725,-1.7426,-1.7426,-1.7485,-1.7485,-1.7426,-1.7367,-1.7256,-1.7373,-1.7426,-1.7191,-1.7138,-1.7256,-1.7315,-1.7315,-1.7367,-1.7485,-1.7485,-1.7485,-1.7485,-1.7485,-1.7485,-1.7485,-1.7485,-1.7485,-1.7485,-1.7244,-1.6408,-1.5154,-1.3301]}]]